Time,TemperatureF,DewpointF,PressureIn,WindDirection,WindDirectionDegrees,WindSpeedMPH,WindSpeedGustMPH,Humidity,HourlyPrecipIn,Conditions,Clouds,dailyrainin,SoftwareType,DateUTC
2013-03-07 00:00:00,35.6,32.7,29.79,NE,45,0.0,0.0,89,0.00,,---,0.00,VWS V14.00,2013-03-07 08:00:00,
2013-03-07 00:01:00,35.6,32.7,29.79,NE,45,0.0,0.0,89,0.00,,---,0.00,VWS V14.00,2013-03-07 08:01:00,
2013-03-07 00:02:00,35.6,32.7,29.79,NE,45,0.0,0.0,89,0.00,,---,0.00,VWS V14.00,2013-03-07 08:02:00,
2013-03-07 00:03:00,35.6,32.7,29.79,NE,45,0.0,0.0,89,0.00,,---,0.00,VWS V14.00,2013-03-07 08:03:00,
2013-03-07 00:04:00,34.9,31.7,29.82,NE,45,0.0,0.0,88,0.00,,---,0.00,VWS V14.00,2013-03-07 08:04:00,
2013-03-07 00:05:00,35.6,32.7,29.79,NE,45,0.0,1.1,89,0.00,,---,0.00,VWS V14.00,2013-03-07 08:05:00,
2013-03-07 00:06:00,35.6,32.7,29.79,NE,45,0.0,0.0,89,0.00,,---,0.00,VWS V14.00,2013-03-07 08:06:00,
2013-03-07 00:07:00,35.6,32.7,29.79,NE,45,0.0,0.0,89,0.00,,---,0.00,VWS V14.00,2013-03-07 08:07:00,
2013-03-07 00:08:00,35.6,32.7,29.79,NE,45,0.0,0.0,89,0.00,,---,0.00,VWS V14.00,2013-03-07 08:08:00,
2013-03-07 00:09:00,34.9,31.7,29.82,NE,45,0.0,0.0,88,0.00,,---,0.00,VWS V14.00,2013-03-07 08:09:00,
2013-03-07 00:10:00,35.8,32.9,29.79,NE,45,0.0,0.0,89,0.00,,---,0.00,VWS V14.00,2013-03-07 08:10:00,
2013-03-07 00:11:00,35.8,32.9,29.79,NE,45,0.0,0.0,89,0.00,,---,0.00,VWS V14.00,2013-03-07 08:11:00,
2013-03-07 00:12:00,35.8,32.9,29.79,NE,45,0.0,0.0,89,0.00,,---,0.00,VWS V14.00,2013-03-07 08:12:00,
2013-03-07 00:13:00,35.8,32.9,29.79,NE,45,0.0,0.0,89,0.00,,---,0.00,VWS V14.00,2013-03-07 08:13:00,
2013-03-07 00:14:00,35.8,32.9,29.79,NE,45,0.0,0.0,89,0.00,,---,0.00,VWS V14.00,2013-03-07 08:14:00,
2013-03-07 00:15:00,35.1,31.9,29.82,NE,45,0.0,0.0,88,0.00,,---,0.00,VWS V14.00,2013-03-07 08:15:00,
2013-03-07 00:16:00,35.8,32.9,29.79,NE,45,0.0,0.0,89,0.00,,---,0.00,VWS V14.00,2013-03-07 08:16:00,
2013-03-07 00:17:00,35.8,32.9,29.79,NE,45,0.0,0.0,89,0.00,,---,0.00,VWS V14.00,2013-03-07 08:17:00,
2013-03-07 00:18:00,35.8,32.9,29.79,NE,45,0.0,0.0,89,0.00,,---,0.00,VWS V14.00,2013-03-07 08:18:00,
2013-03-07 00:19:00,35.8,32.9,29.79,NE,45,0.0,0.0,89,0.00,,---,0.00,VWS V14.00,2013-03-07 08:19:00,
2013-03-07 00:20:00,35.1,32.2,29.82,NE,45,0.0,0.0,89,0.00,,---,0.00,VWS V14.00,2013-03-07 08:20:00,
2013-03-07 00:21:00,35.8,32.9,29.79,NE,45,1.1,1.3,89,0.00,,---,0.00,VWS V14.00,2013-03-07 08:21:00,
2013-03-07 00:22:00,36.0,33.0,29.79,NE,45,2.2,2.9,89,0.00,,---,0.00,VWS V14.00,2013-03-07 08:22:00,
2013-03-07 00:23:00,36.0,33.0,29.79,NE,45,0.0,2.2,89,0.00,,---,0.00,VWS V14.00,2013-03-07 08:23:00,
2013-03-07 00:24:00,36.1,33.2,29.79,NE,45,0.0,0.0,89,0.00,,---,0.00,VWS V14.00,2013-03-07 08:24:00,
2013-03-07 00:25:00,35.2,32.3,29.82,NE,45,0.0,0.0,89,0.00,,---,0.00,VWS V14.00,2013-03-07 08:25:00,
2013-03-07 00:26:00,36.1,33.2,29.79,NE,45,1.1,1.6,89,0.00,,---,0.00,VWS V14.00,2013-03-07 08:26:00,
2013-03-07 00:27:00,36.1,33.2,29.79,NE,45,2.0,2.0,89,0.00,,---,0.00,VWS V14.00,2013-03-07 08:27:00,
2013-03-07 00:28:00,36.1,33.2,29.79,NE,45,0.9,2.0,89,0.00,,---,0.00,VWS V14.00,2013-03-07 08:28:00,
2013-03-07 00:29:00,36.1,33.2,29.79,NE,45,0.9,1.3,89,0.00,,---,0.00,VWS V14.00,2013-03-07 08:29:00,
2013-03-07 00:30:00,35.2,32.3,29.82,NE,45,0.0,0.0,89,0.00,,---,0.00,VWS V14.00,2013-03-07 08:30:00,
2013-03-07 00:31:00,36.1,33.2,29.79,NE,45,0.0,0.0,89,0.00,,---,0.00,VWS V14.00,2013-03-07 08:31:00,
2013-03-07 00:32:00,36.1,33.2,29.79,NE,45,0.0,0.0,89,0.00,,---,0.00,VWS V14.00,2013-03-07 08:32:00,
2013-03-07 00:33:00,36.1,33.2,29.79,NE,45,0.0,0.0,89,0.00,,---,0.00,VWS V14.00,2013-03-07 08:33:00,
2013-03-07 00:34:00,36.1,33.2,29.79,NE,45,0.0,0.0,89,0.00,,---,0.00,VWS V14.00,2013-03-07 08:34:00,
2013-03-07 00:35:00,35.4,32.5,29.82,NE,45,0.0,0.0,89,0.00,,---,0.00,VWS V14.00,2013-03-07 08:35:00,
2013-03-07 00:36:00,36.1,33.2,29.79,NE,45,1.3,1.3,89,0.00,,---,0.00,VWS V14.00,2013-03-07 08:36:00,
2013-03-07 00:37:00,36.3,33.4,29.79,NE,45,1.1,1.6,89,0.00,,---,0.00,VWS V14.00,2013-03-07 08:37:00,
2013-03-07 00:38:00,36.1,33.2,29.79,NE,45,2.2,2.2,89,0.00,,---,0.00,VWS V14.00,2013-03-07 08:38:00,
2013-03-07 00:39:00,36.3,33.4,29.79,NE,45,1.3,2.2,89,0.00,,---,0.00,VWS V14.00,2013-03-07 08:39:00,
2013-03-07 00:40:00,35.4,32.5,29.82,NE,45,0.0,0.0,89,0.00,,---,0.00,VWS V14.00,2013-03-07 08:40:00,
2013-03-07 00:41:00,36.3,33.4,29.79,NE,45,2.0,2.7,89,0.00,,---,0.00,VWS V14.00,2013-03-07 08:41:00,
2013-03-07 00:42:00,36.3,33.4,29.79,NE,45,1.3,2.0,89,0.00,,---,0.00,VWS V14.00,2013-03-07 08:42:00,
2013-03-07 00:43:00,36.3,33.4,29.79,NE,45,1.6,1.6,89,0.00,,---,0.00,VWS V14.00,2013-03-07 08:43:00,
2013-03-07 00:44:00,36.3,33.4,29.79,NE,45,1.3,1.6,89,0.00,,---,0.00,VWS V14.00,2013-03-07 08:44:00,
2013-03-07 00:45:00,35.6,32.7,29.82,NE,45,0.9,1.3,89,0.00,,---,0.00,VWS V14.00,2013-03-07 08:45:00,
2013-03-07 00:46:00,36.3,33.4,29.79,NE,45,0.0,1.3,89,0.00,,---,0.00,VWS V14.00,2013-03-07 08:46:00,
2013-03-07 00:47:00,36.3,33.4,29.79,NE,45,0.0,0.0,89,0.00,,---,0.00,VWS V14.00,2013-03-07 08:47:00,
2013-03-07 00:48:00,36.3,33.4,29.79,NE,45,0.0,0.0,89,0.00,,---,0.00,VWS V14.00,2013-03-07 08:48:00,
2013-03-07 00:49:00,36.3,33.4,29.79,NE,45,0.0,0.0,89,0.00,,---,0.00,VWS V14.00,2013-03-07 08:49:00,
2013-03-07 00:50:00,35.6,32.7,29.79,NE,45,0.0,0.0,89,0.00,,---,0.00,VWS V14.00,2013-03-07 08:50:00,
2013-03-07 00:51:00,36.3,33.4,29.79,NE,45,0.0,0.0,89,0.00,,---,0.00,VWS V14.00,2013-03-07 08:51:00,
2013-03-07 00:52:00,36.3,33.4,29.79,NE,45,0.0,0.0,89,0.00,,---,0.00,VWS V14.00,2013-03-07 08:52:00,
2013-03-07 00:53:00,36.3,33.4,29.79,NE,45,0.0,0.0,89,0.00,,---,0.00,VWS V14.00,2013-03-07 08:53:00,
2013-03-07 00:54:00,36.3,33.4,29.79,NE,45,0.9,0.9,89,0.00,,---,0.00,VWS V14.00,2013-03-07 08:54:00,
2013-03-07 00:55:00,35.6,32.7,29.79,NE,45,0.0,0.0,89,0.00,,---,0.00,VWS V14.00,2013-03-07 08:55:00,
2013-03-07 00:56:00,36.3,33.4,29.79,NE,45,0.0,0.0,89,0.00,,---,0.00,VWS V14.00,2013-03-07 08:56:00,
2013-03-07 00:57:00,36.3,33.4,29.79,NE,45,1.3,1.3,89,0.00,,---,0.00,VWS V14.00,2013-03-07 08:57:00,
2013-03-07 00:58:00,36.3,33.4,29.79,NE,45,2.0,2.0,89,0.00,,---,0.00,VWS V14.00,2013-03-07 08:58:00,
2013-03-07 00:59:00,36.3,33.4,29.79,NE,45,2.7,2.7,89,0.00,,---,0.00,VWS V14.00,2013-03-07 08:59:00,
2013-03-07 01:00:00,35.6,32.7,29.79,NE,45,0.0,0.0,89,0.00,,---,0.00,VWS V14.00,2013-03-07 09:00:00,
2013-03-07 01:01:00,36.5,33.3,29.79,NNE,22,3.1,3.8,88,0.00,,---,0.00,VWS V14.00,2013-03-07 09:01:00,
2013-03-07 01:02:00,36.5,33.3,29.79,NNE,22,3.4,4.0,88,0.00,,---,0.00,VWS V14.00,2013-03-07 09:02:00,
2013-03-07 01:03:00,36.7,33.5,29.79,NNE,22,2.5,3.4,88,0.00,,---,0.00,VWS V14.00,2013-03-07 09:03:00,
2013-03-07 01:04:00,36.7,33.5,29.79,NNE,22,1.3,2.5,88,0.00,,---,0.00,VWS V14.00,2013-03-07 09:04:00,
2013-03-07 01:05:00,35.8,32.9,29.79,NE,45,0.0,0.0,89,0.00,,---,0.00,VWS V14.00,2013-03-07 09:05:00,
2013-03-07 01:06:00,36.7,33.5,29.79,NNE,22,1.6,1.6,88,0.00,,---,0.00,VWS V14.00,2013-03-07 09:06:00,
2013-03-07 01:07:00,36.7,33.5,29.79,NNE,22,0.0,2.0,88,0.00,,---,0.00,VWS V14.00,2013-03-07 09:07:00,
2013-03-07 01:08:00,36.5,33.3,29.76,NNE,22,1.1,1.1,88,0.00,,---,0.00,VWS V14.00,2013-03-07 09:08:00,
2013-03-07 01:09:00,36.5,33.3,29.76,NNE,22,0.0,1.1,88,0.00,,---,0.00,VWS V14.00,2013-03-07 09:09:00,
2013-03-07 01:10:00,36.5,33.3,29.76,NNE,22,2.2,2.2,88,0.00,,---,0.00,VWS V14.00,2013-03-07 09:10:00,
2013-03-07 01:11:00,35.8,32.9,29.79,NE,45,0.0,0.0,89,0.00,,---,0.00,VWS V14.00,2013-03-07 09:11:00,
2013-03-07 01:12:00,36.5,33.3,29.76,NNE,22,2.2,2.2,88,0.00,,---,0.00,VWS V14.00,2013-03-07 09:12:00,
2013-03-07 01:13:00,36.5,33.3,29.76,NNE,22,1.3,2.5,88,0.00,,---,0.00,VWS V14.00,2013-03-07 09:13:00,
2013-03-07 01:14:00,36.5,33.3,29.76,NNE,22,2.0,2.0,88,0.00,,---,0.00,VWS V14.00,2013-03-07 09:14:00,
2013-03-07 01:15:00,36.7,33.5,29.76,NNE,22,1.3,2.0,88,0.00,,---,0.00,VWS V14.00,2013-03-07 09:15:00,
2013-03-07 01:16:00,35.8,32.9,29.79,NE,45,0.0,0.0,89,0.00,,---,0.00,VWS V14.00,2013-03-07 09:16:00,
2013-03-07 01:17:00,36.7,33.5,29.76,NE,45,1.3,2.2,88,0.00,,---,0.00,VWS V14.00,2013-03-07 09:17:00,
2013-03-07 01:18:00,36.7,33.5,29.76,ENE,68,2.0,2.0,88,0.00,,---,0.00,VWS V14.00,2013-03-07 09:18:00,
2013-03-07 01:19:00,36.7,33.5,29.76,ENE,68,1.3,2.0,88,0.00,,---,0.00,VWS V14.00,2013-03-07 09:19:00,
2013-03-07 01:20:00,36.7,33.5,29.76,ENE,68,0.0,1.3,88,0.00,,---,0.00,VWS V14.00,2013-03-07 09:20:00,
2013-03-07 01:21:00,36.1,33.2,29.79,NE,45,0.9,1.1,89,0.00,,---,0.00,VWS V14.00,2013-03-07 09:21:00,
2013-03-07 01:22:00,36.7,33.5,29.76,ENE,68,1.3,2.2,88,0.00,,---,0.00,VWS V14.00,2013-03-07 09:22:00,
2013-03-07 01:23:00,36.7,33.5,29.76,ENE,68,1.3,1.3,88,0.00,,---,0.00,VWS V14.00,2013-03-07 09:23:00,
2013-03-07 01:24:00,36.7,33.5,29.76,ENE,68,0.0,1.3,88,0.00,,---,0.00,VWS V14.00,2013-03-07 09:24:00,
2013-03-07 01:25:00,36.7,33.5,29.76,ENE,68,1.3,2.0,88,0.00,,---,0.00,VWS V14.00,2013-03-07 09:25:00,
2013-03-07 01:26:00,36.7,33.5,29.76,ESE,112,2.2,2.2,88,0.00,,---,0.00,VWS V14.00,2013-03-07 09:26:00,
2013-03-07 01:27:00,36.1,33.2,29.79,NE,45,0.0,0.0,89,0.00,,---,0.00,VWS V14.00,2013-03-07 09:27:00,
2013-03-07 01:28:00,36.7,33.5,29.76,SSE,158,2.9,2.9,88,0.00,,---,0.00,VWS V14.00,2013-03-07 09:28:00,
2013-03-07 01:29:00,36.7,33.5,29.76,South,180,2.7,3.1,88,0.00,,---,0.00,VWS V14.00,2013-03-07 09:29:00,
2013-03-07 01:30:00,36.7,33.5,29.76,SSW,202,1.1,2.7,88,0.00,,---,0.00,VWS V14.00,2013-03-07 09:30:00,
2013-03-07 01:31:00,36.7,33.5,29.76,SSW,202,1.1,1.6,88,0.00,,---,0.00,VWS V14.00,2013-03-07 09:31:00,
2013-03-07 01:32:00,36.1,33.2,29.79,NE,45,1.3,1.3,89,0.00,,---,0.00,VWS V14.00,2013-03-07 09:32:00,
2013-03-07 01:33:00,36.7,33.5,29.76,SW,225,1.6,2.5,88,0.00,,---,0.00,VWS V14.00,2013-03-07 09:33:00,
2013-03-07 01:34:00,36.7,33.5,29.76,SW,225,0.0,1.6,88,0.00,,---,0.00,VWS V14.00,2013-03-07 09:34:00,
2013-03-07 01:35:00,36.7,33.5,29.76,SW,225,2.0,2.2,88,0.00,,---,0.00,VWS V14.00,2013-03-07 09:35:00,
2013-03-07 01:36:00,36.5,33.3,29.76,WSW,248,0.9,2.0,88,0.00,,---,0.00,VWS V14.00,2013-03-07 09:36:00,
2013-03-07 01:37:00,36.3,33.4,29.79,NE,45,2.0,2.7,89,0.00,,---,0.00,VWS V14.00,2013-03-07 09:37:00,
2013-03-07 01:38:00,36.5,33.3,29.79,WSW,248,1.6,1.6,88,0.04,,---,0.04,VWS V14.00,2013-03-07 09:38:00,
2013-03-07 01:39:00,36.5,33.3,29.79,WSW,248,1.1,2.0,88,0.04,,---,0.04,VWS V14.00,2013-03-07 09:39:00,
2013-03-07 01:40:00,36.5,33.3,29.79,WSW,248,1.6,2.2,88,0.04,,---,0.04,VWS V14.00,2013-03-07 09:40:00,
2013-03-07 01:41:00,36.5,33.3,29.79,WSW,248,0.0,1.6,88,0.04,,---,0.04,VWS V14.00,2013-03-07 09:41:00,
2013-03-07 01:42:00,36.5,33.3,29.79,WSW,248,0.0,0.0,88,0.04,,---,0.04,VWS V14.00,2013-03-07 09:42:00,
2013-03-07 01:43:00,36.3,33.4,29.79,NE,45,0.0,0.0,89,0.00,,---,0.00,VWS V14.00,2013-03-07 09:43:00,
2013-03-07 01:44:00,36.5,33.3,29.79,WSW,248,1.3,1.3,88,0.04,,---,0.04,VWS V14.00,2013-03-07 09:44:00,
2013-03-07 01:45:00,36.5,33.3,29.79,WSW,248,1.1,1.3,88,0.04,,---,0.04,VWS V14.00,2013-03-07 09:45:00,
2013-03-07 01:46:00,36.3,33.1,29.79,WSW,248,1.6,2.0,88,0.04,,---,0.04,VWS V14.00,2013-03-07 09:46:00,
2013-03-07 01:47:00,36.3,33.1,29.79,WSW,248,0.9,2.0,88,0.04,,---,0.04,VWS V14.00,2013-03-07 09:47:00,
2013-03-07 01:48:00,36.3,33.4,29.79,NE,45,0.0,0.0,89,0.00,,---,0.00,VWS V14.00,2013-03-07 09:48:00,
2013-03-07 01:49:00,36.3,33.1,29.79,WSW,248,0.0,0.0,88,0.04,,---,0.04,VWS V14.00,2013-03-07 09:49:00,
2013-03-07 01:50:00,36.3,33.1,29.79,WSW,248,0.0,0.0,88,0.04,,---,0.04,VWS V14.00,2013-03-07 09:50:00,
2013-03-07 01:51:00,36.3,33.1,29.79,WSW,248,0.0,0.0,88,0.04,,---,0.04,VWS V14.00,2013-03-07 09:51:00,
2013-03-07 01:52:00,36.3,33.1,29.79,West,270,0.0,0.0,88,0.04,,---,0.04,VWS V14.00,2013-03-07 09:52:00,
2013-03-07 01:53:00,36.3,33.4,29.79,NE,45,0.0,0.0,89,0.00,,---,0.00,VWS V14.00,2013-03-07 09:53:00,
2013-03-07 01:54:00,36.3,33.1,29.79,West,270,0.0,0.0,88,0.04,,---,0.04,VWS V14.00,2013-03-07 09:54:00,
2013-03-07 01:55:00,36.3,33.1,29.79,West,270,0.0,0.0,88,0.04,,---,0.04,VWS V14.00,2013-03-07 09:55:00,
2013-03-07 01:56:00,36.3,33.1,29.79,West,270,0.0,0.0,88,0.04,,---,0.04,VWS V14.00,2013-03-07 09:56:00,
2013-03-07 01:57:00,36.3,33.1,29.79,West,270,0.0,0.0,88,0.04,,---,0.04,VWS V14.00,2013-03-07 09:57:00,
2013-03-07 01:58:00,36.5,33.3,29.79,NNE,22,2.9,3.1,88,0.00,,---,0.00,VWS V14.00,2013-03-07 09:58:00,
2013-03-07 01:59:00,36.3,33.1,29.79,West,270,0.9,1.6,88,0.04,,---,0.04,VWS V14.00,2013-03-07 09:59:00,
2013-03-07 02:00:00,36.3,33.1,29.79,West,270,0.0,1.1,88,0.04,,---,0.04,VWS V14.00,2013-03-07 10:00:00,
2013-03-07 02:01:00,36.1,32.9,29.79,West,270,0.0,0.0,88,0.04,,---,0.04,VWS V14.00,2013-03-07 10:01:00,
2013-03-07 02:02:00,36.1,32.9,29.79,WNW,292,3.4,3.4,88,0.04,,---,0.04,VWS V14.00,2013-03-07 10:02:00,
2013-03-07 02:03:00,36.7,33.5,29.79,NNE,22,1.6,2.0,88,0.00,,---,0.00,VWS V14.00,2013-03-07 10:03:00,
2013-03-07 02:04:00,36.3,33.1,29.79,NNW,338,1.3,2.0,88,0.04,,---,0.04,VWS V14.00,2013-03-07 10:04:00,
2013-03-07 02:05:00,36.3,33.1,29.79,NNE,22,3.6,3.6,88,0.04,,---,0.04,VWS V14.00,2013-03-07 10:05:00,
2013-03-07 02:06:00,36.3,33.1,29.79,NNE,22,2.7,3.6,88,0.04,,---,0.04,VWS V14.00,2013-03-07 10:06:00,
2013-03-07 02:07:00,36.3,33.1,29.79,NNE,22,4.7,4.7,88,0.04,,---,0.04,VWS V14.00,2013-03-07 10:07:00,
2013-03-07 02:08:00,36.5,33.3,29.76,NNE,22,1.6,1.6,88,0.00,,---,0.00,VWS V14.00,2013-03-07 10:08:00,
2013-03-07 02:09:00,36.3,33.1,29.79,NNE,22,3.8,3.8,88,0.04,,---,0.04,VWS V14.00,2013-03-07 10:09:00,
2013-03-07 02:10:00,36.3,33.1,29.79,NNE,22,2.5,3.8,88,0.04,,---,0.04,VWS V14.00,2013-03-07 10:10:00,
2013-03-07 02:11:00,36.1,32.9,29.79,NNE,22,3.1,3.1,88,0.04,,---,0.04,VWS V14.00,2013-03-07 10:11:00,
2013-03-07 02:12:00,36.1,32.9,29.79,NNE,22,2.5,3.1,88,0.04,,---,0.04,VWS V14.00,2013-03-07 10:12:00,
2013-03-07 02:13:00,36.7,33.5,29.76,NE,45,1.6,2.2,88,0.00,,---,0.00,VWS V14.00,2013-03-07 10:13:00,
2013-03-07 02:14:00,36.1,32.9,29.79,NNE,22,2.9,3.1,88,0.04,,---,0.04,VWS V14.00,2013-03-07 10:14:00,
2013-03-07 02:15:00,36.1,32.9,29.79,NNE,22,2.0,3.1,88,0.04,,---,0.04,VWS V14.00,2013-03-07 10:15:00,
2013-03-07 02:16:00,36.1,32.9,29.79,NNE,22,1.3,2.0,88,0.04,,---,0.04,VWS V14.00,2013-03-07 10:16:00,
2013-03-07 02:17:00,36.0,32.5,29.79,NNE,22,0.0,1.3,87,0.04,,---,0.04,VWS V14.00,2013-03-07 10:17:00,
2013-03-07 02:18:00,36.7,33.5,29.76,ENE,68,2.2,2.2,88,0.00,,---,0.00,VWS V14.00,2013-03-07 10:18:00,
2013-03-07 02:19:00,36.0,32.5,29.79,NNE,22,0.0,0.0,87,0.04,,---,0.04,VWS V14.00,2013-03-07 10:19:00,
2013-03-07 02:20:00,35.8,32.3,29.79,NNE,22,0.0,0.0,87,0.04,,---,0.04,VWS V14.00,2013-03-07 10:20:00,
2013-03-07 02:21:00,35.8,32.3,29.79,NNE,22,0.0,0.0,87,0.04,,---,0.04,VWS V14.00,2013-03-07 10:21:00,
2013-03-07 02:22:00,35.8,32.3,29.79,NNE,22,0.0,0.0,87,0.04,,---,0.04,VWS V14.00,2013-03-07 10:22:00,
2013-03-07 02:23:00,36.7,33.5,29.76,ESE,112,1.6,2.2,88,0.00,,---,0.00,VWS V14.00,2013-03-07 10:23:00,
2013-03-07 02:24:00,35.8,32.3,29.79,NNE,22,1.3,1.6,87,0.04,,---,0.04,VWS V14.00,2013-03-07 10:24:00,
2013-03-07 02:25:00,35.6,32.1,29.79,NNE,22,0.0,1.3,87,0.04,,---,0.04,VWS V14.00,2013-03-07 10:25:00,
2013-03-07 02:26:00,35.6,32.1,29.79,NNE,22,0.0,0.0,87,0.04,,---,0.04,VWS V14.00,2013-03-07 10:26:00,
2013-03-07 02:27:00,35.6,32.1,29.79,NNE,22,0.0,0.0,87,0.04,,---,0.04,VWS V14.00,2013-03-07 10:27:00,
2013-03-07 02:28:00,36.7,33.5,29.76,SSW,202,2.5,2.5,88,0.00,,---,0.00,VWS V14.00,2013-03-07 10:28:00,
2013-03-07 02:29:00,35.6,32.1,29.79,NNE,22,0.0,0.0,87,0.04,,---,0.04,VWS V14.00,2013-03-07 10:29:00,
2013-03-07 02:30:00,35.4,31.9,29.79,NNE,22,0.0,0.0,87,0.04,,---,0.04,VWS V14.00,2013-03-07 10:30:00,
2013-03-07 02:31:00,35.4,31.9,29.79,NNE,22,1.1,1.1,87,0.04,,---,0.04,VWS V14.00,2013-03-07 10:31:00,
2013-03-07 02:32:00,35.4,31.9,29.79,NNE,22,2.0,4.0,87,0.04,,---,0.04,VWS V14.00,2013-03-07 10:32:00,
2013-03-07 02:33:00,36.5,33.3,29.76,WSW,248,1.1,1.6,88,0.00,,---,0.00,VWS V14.00,2013-03-07 10:33:00,
2013-03-07 02:34:00,35.4,32.2,29.79,NNE,22,0.0,0.0,88,0.04,,---,0.04,VWS V14.00,2013-03-07 10:34:00,
2013-03-07 02:35:00,35.4,32.2,29.79,NNE,22,0.0,0.0,88,0.04,,---,0.04,VWS V14.00,2013-03-07 10:35:00,
2013-03-07 02:36:00,35.4,31.9,29.79,NNE,22,2.7,2.7,87,0.04,,---,0.04,VWS V14.00,2013-03-07 10:36:00,
2013-03-07 02:37:00,35.4,31.9,29.79,NNE,22,1.6,2.7,87,0.04,,---,0.04,VWS V14.00,2013-03-07 10:37:00,
2013-03-07 02:38:00,36.5,33.3,29.79,WSW,248,0.0,0.0,88,0.04,,---,0.04,VWS V14.00,2013-03-07 10:38:00,
2013-03-07 02:39:00,35.4,32.2,29.79,NNE,22,2.0,3.4,88,0.00,,---,0.04,VWS V14.00,2013-03-07 10:39:00,
2013-03-07 02:40:00,35.4,32.2,29.79,NNE,22,1.1,2.0,88,0.00,,---,0.04,VWS V14.00,2013-03-07 10:40:00,
2013-03-07 02:41:00,35.4,32.2,29.79,NNE,22,0.0,1.1,88,0.00,,---,0.04,VWS V14.00,2013-03-07 10:41:00,
2013-03-07 02:42:00,35.4,32.2,29.79,NNE,22,0.0,0.0,88,0.00,,---,0.04,VWS V14.00,2013-03-07 10:42:00,
2013-03-07 02:43:00,36.3,33.1,29.79,WSW,248,0.9,2.0,88,0.04,,---,0.04,VWS V14.00,2013-03-07 10:43:00,
2013-03-07 02:44:00,35.2,31.8,29.79,NNE,22,0.0,0.0,87,0.00,,---,0.04,VWS V14.00,2013-03-07 10:44:00,
2013-03-07 02:45:00,35.2,31.8,29.79,NNE,22,0.0,0.0,87,0.00,,---,0.04,VWS V14.00,2013-03-07 10:45:00,
2013-03-07 02:46:00,35.2,31.8,29.79,NNE,22,0.0,0.0,87,0.00,,---,0.04,VWS V14.00,2013-03-07 10:46:00,
2013-03-07 02:47:00,35.2,31.8,29.79,NE,45,1.3,2.5,87,0.00,,---,0.04,VWS V14.00,2013-03-07 10:47:00,
2013-03-07 02:48:00,35.2,31.8,29.79,NE,45,0.9,1.3,87,0.00,,---,0.04,VWS V14.00,2013-03-07 10:48:00,
2013-03-07 02:49:00,36.3,33.1,29.79,West,270,0.0,0.0,88,0.04,,---,0.04,VWS V14.00,2013-03-07 10:49:00,
2013-03-07 02:50:00,35.1,31.6,29.79,NE,45,0.9,2.0,87,0.00,,---,0.04,VWS V14.00,2013-03-07 10:50:00,
2013-03-07 02:51:00,35.1,31.6,29.79,ENE,68,1.3,1.6,87,0.00,,---,0.04,VWS V14.00,2013-03-07 10:51:00,
2013-03-07 02:52:00,35.1,31.6,29.79,ENE,68,1.1,1.3,87,0.00,,---,0.04,VWS V14.00,2013-03-07 10:52:00,
2013-03-07 02:53:00,35.1,31.6,29.79,ENE,68,1.1,1.1,87,0.00,,---,0.04,VWS V14.00,2013-03-07 10:53:00,
2013-03-07 02:54:00,36.3,33.1,29.79,West,270,1.6,1.6,88,0.04,,---,0.04,VWS V14.00,2013-03-07 10:54:00,
2013-03-07 02:55:00,34.9,31.4,29.79,ENE,68,0.0,1.1,87,0.00,,---,0.04,VWS V14.00,2013-03-07 10:55:00,
2013-03-07 02:56:00,34.9,31.4,29.79,East,90,1.3,2.0,87,0.00,,---,0.04,VWS V14.00,2013-03-07 10:56:00,
2013-03-07 02:57:00,34.9,31.4,29.79,East,90,1.3,1.3,87,0.00,,---,0.04,VWS V14.00,2013-03-07 10:57:00,
2013-03-07 02:58:00,34.9,31.4,29.79,East,90,0.0,1.3,87,0.00,,---,0.04,VWS V14.00,2013-03-07 10:58:00,
2013-03-07 02:59:00,36.1,32.9,29.79,NNW,338,2.2,3.4,88,0.04,,---,0.04,VWS V14.00,2013-03-07 10:59:00,
2013-03-07 03:00:00,34.7,31.2,29.79,East,90,0.0,0.0,87,0.00,,---,0.04,VWS V14.00,2013-03-07 11:00:00,
2013-03-07 03:01:00,34.7,31.2,29.79,East,90,0.0,0.0,87,0.00,,---,0.04,VWS V14.00,2013-03-07 11:01:00,
2013-03-07 03:02:00,34.5,31.1,29.79,East,90,0.0,0.0,87,0.00,,---,0.04,VWS V14.00,2013-03-07 11:02:00,
2013-03-07 03:03:00,34.5,31.1,29.79,East,90,0.0,0.0,87,0.00,,---,0.04,VWS V14.00,2013-03-07 11:03:00,
2013-03-07 03:04:00,36.3,33.1,29.79,NNE,22,2.5,4.7,88,0.04,,---,0.04,VWS V14.00,2013-03-07 11:04:00,
2013-03-07 03:05:00,34.5,31.1,29.79,East,90,0.0,0.0,87,0.00,,---,0.04,VWS V14.00,2013-03-07 11:05:00,
2013-03-07 03:06:00,34.5,31.1,29.79,East,90,0.0,0.0,87,0.00,,---,0.04,VWS V14.00,2013-03-07 11:06:00,
2013-03-07 03:07:00,34.5,31.1,29.79,East,90,0.0,0.0,87,0.00,,---,0.04,VWS V14.00,2013-03-07 11:07:00,
2013-03-07 03:08:00,34.5,31.1,29.79,East,90,0.0,0.0,87,0.00,,---,0.04,VWS V14.00,2013-03-07 11:08:00,
2013-03-07 03:09:00,36.1,32.9,29.79,NNE,22,2.5,2.9,88,0.04,,---,0.04,VWS V14.00,2013-03-07 11:09:00,
2013-03-07 03:10:00,34.3,30.9,29.79,East,90,0.0,0.0,87,0.00,,---,0.04,VWS V14.00,2013-03-07 11:10:00,
2013-03-07 03:11:00,34.3,30.9,29.79,East,90,0.0,0.0,87,0.00,,---,0.04,VWS V14.00,2013-03-07 11:11:00,
2013-03-07 03:12:00,34.3,30.9,29.79,East,90,0.0,0.0,87,0.00,,---,0.04,VWS V14.00,2013-03-07 11:12:00,
2013-03-07 03:13:00,34.3,30.9,29.79,East,90,0.0,0.0,87,0.00,,---,0.04,VWS V14.00,2013-03-07 11:13:00,
2013-03-07 03:14:00,36.0,32.5,29.79,NNE,22,0.0,0.0,87,0.04,,---,0.04,VWS V14.00,2013-03-07 11:14:00,
2013-03-07 03:15:00,34.3,30.9,29.79,ENE,68,0.9,1.6,87,0.00,,---,0.04,VWS V14.00,2013-03-07 11:15:00,
2013-03-07 03:16:00,34.3,30.9,29.79,ENE,68,2.0,2.5,87,0.00,,---,0.04,VWS V14.00,2013-03-07 11:16:00,
2013-03-07 03:17:00,34.3,30.9,29.79,ENE,68,0.9,2.0,87,0.00,,---,0.04,VWS V14.00,2013-03-07 11:17:00,
2013-03-07 03:18:00,34.3,30.9,29.79,ENE,68,0.0,0.9,87,0.00,,---,0.04,VWS V14.00,2013-03-07 11:18:00,
2013-03-07 03:19:00,35.8,32.3,29.79,NNE,22,0.0,0.0,87,0.04,,---,0.04,VWS V14.00,2013-03-07 11:19:00,
2013-03-07 03:20:00,34.3,30.9,29.79,ENE,68,1.3,1.3,87,0.00,,---,0.04,VWS V14.00,2013-03-07 11:20:00,
2013-03-07 03:21:00,34.3,30.9,29.79,NE,45,0.9,1.3,87,0.00,,---,0.04,VWS V14.00,2013-03-07 11:21:00,
2013-03-07 03:22:00,34.2,30.7,29.79,NE,45,0.0,0.9,87,0.00,,---,0.04,VWS V14.00,2013-03-07 11:22:00,
2013-03-07 03:23:00,34.2,30.7,29.76,NE,45,1.1,2.0,87,0.00,,---,0.04,VWS V14.00,2013-03-07 11:23:00,
2013-03-07 03:24:00,35.6,32.1,29.79,NNE,22,0.0,0.0,87,0.04,,---,0.04,VWS V14.00,2013-03-07 11:24:00,
2013-03-07 03:25:00,34.2,31.0,29.76,NNE,22,0.0,0.0,88,0.00,,---,0.04,VWS V14.00,2013-03-07 11:25:00,
2013-03-07 03:26:00,34.2,31.0,29.76,NNE,22,0.9,1.6,88,0.00,,---,0.04,VWS V14.00,2013-03-07 11:26:00,
2013-03-07 03:27:00,34.2,31.0,29.76,NNE,22,2.2,2.7,88,0.00,,---,0.04,VWS V14.00,2013-03-07 11:27:00,
2013-03-07 03:28:00,34.2,31.0,29.76,NNE,22,0.0,2.2,88,0.00,,---,0.04,VWS V14.00,2013-03-07 11:28:00,
2013-03-07 03:29:00,35.4,31.9,29.79,NNE,22,1.6,2.7,87,0.04,,---,0.04,VWS V14.00,2013-03-07 11:29:00,
2013-03-07 03:30:00,34.3,31.2,29.76,NNE,22,2.9,3.1,88,0.00,,---,0.04,VWS V14.00,2013-03-07 11:30:00,
2013-03-07 03:31:00,34.3,31.2,29.76,NNE,22,2.2,2.9,88,0.00,,---,0.04,VWS V14.00,2013-03-07 11:31:00,
2013-03-07 03:32:00,34.3,31.2,29.76,NNE,22,2.0,2.7,88,0.00,,---,0.04,VWS V14.00,2013-03-07 11:32:00,
2013-03-07 03:33:00,34.3,31.2,29.76,NNE,22,2.2,2.7,88,0.00,,---,0.04,VWS V14.00,2013-03-07 11:33:00,
2013-03-07 03:34:00,35.4,31.9,29.79,NNE,22,2.9,4.3,87,0.04,,---,0.04,VWS V14.00,2013-03-07 11:34:00,
2013-03-07 03:35:00,34.3,31.2,29.76,NE,45,2.2,2.5,88,0.00,,---,0.04,VWS V14.00,2013-03-07 11:35:00,
2013-03-07 03:36:00,34.5,31.3,29.76,NE,45,1.1,2.2,88,0.00,,---,0.04,VWS V14.00,2013-03-07 11:36:00,
2013-03-07 03:37:00,34.5,31.3,29.76,NE,45,1.3,1.6,88,0.00,,---,0.04,VWS V14.00,2013-03-07 11:37:00,
2013-03-07 03:38:00,34.5,31.3,29.76,NE,45,0.0,1.3,88,0.00,,---,0.04,VWS V14.00,2013-03-07 11:38:00,
2013-03-07 03:39:00,34.5,31.3,29.76,NE,45,0.0,0.0,88,0.00,,---,0.04,VWS V14.00,2013-03-07 11:39:00,
2013-03-07 03:40:00,35.4,32.2,29.79,NNE,22,0.0,0.0,88,0.00,,---,0.04,VWS V14.00,2013-03-07 11:40:00,
2013-03-07 03:41:00,34.3,31.2,29.76,NE,45,0.0,0.0,88,0.00,,---,0.04,VWS V14.00,2013-03-07 11:41:00,
2013-03-07 03:42:00,34.3,30.9,29.76,NE,45,0.0,0.0,87,0.00,,---,0.04,VWS V14.00,2013-03-07 11:42:00,
2013-03-07 03:43:00,34.3,30.9,29.76,NE,45,0.0,0.0,87,0.00,,---,0.04,VWS V14.00,2013-03-07 11:43:00,
2013-03-07 03:44:00,34.3,30.9,29.76,NE,45,0.0,0.0,87,0.00,,---,0.04,VWS V14.00,2013-03-07 11:44:00,
2013-03-07 03:45:00,35.2,31.8,29.79,NE,45,1.3,1.3,87,0.00,,---,0.04,VWS V14.00,2013-03-07 11:45:00,
2013-03-07 03:46:00,34.3,30.9,29.76,NE,45,1.3,1.3,87,0.00,,---,0.04,VWS V14.00,2013-03-07 11:46:00,
2013-03-07 03:47:00,34.2,30.7,29.76,NE,45,0.9,1.3,87,0.00,,---,0.04,VWS V14.00,2013-03-07 11:47:00,
2013-03-07 03:48:00,34.2,30.7,29.76,NE,45,0.0,0.9,87,0.00,,---,0.04,VWS V14.00,2013-03-07 11:48:00,
2013-03-07 03:49:00,34.2,30.7,29.76,NE,45,0.0,0.0,87,0.00,,---,0.04,VWS V14.00,2013-03-07 11:49:00,
2013-03-07 03:50:00,35.1,31.6,29.79,ENE,68,2.0,2.0,87,0.00,,---,0.04,VWS V14.00,2013-03-07 11:50:00,
2013-03-07 03:51:00,34.0,30.5,29.76,NE,45,0.0,0.0,87,0.00,,---,0.04,VWS V14.00,2013-03-07 11:51:00,
2013-03-07 03:52:00,34.0,30.5,29.76,NE,45,0.0,0.0,87,0.00,,---,0.04,VWS V14.00,2013-03-07 11:52:00,
2013-03-07 03:53:00,34.0,30.5,29.76,NE,45,0.0,0.0,87,0.00,,---,0.04,VWS V14.00,2013-03-07 11:53:00,
2013-03-07 03:54:00,34.0,30.5,29.76,NE,45,0.0,0.0,87,0.00,,---,0.04,VWS V14.00,2013-03-07 11:54:00,
2013-03-07 03:55:00,34.9,31.4,29.79,East,90,0.0,0.0,87,0.00,,---,0.04,VWS V14.00,2013-03-07 11:55:00,
2013-03-07 03:56:00,34.0,30.5,29.76,NE,45,0.0,0.0,87,0.00,,---,0.04,VWS V14.00,2013-03-07 11:56:00,
2013-03-07 03:57:00,34.0,30.5,29.76,NE,45,0.0,0.0,87,0.00,,---,0.04,VWS V14.00,2013-03-07 11:57:00,
2013-03-07 03:58:00,34.0,30.5,29.76,NE,45,1.3,1.3,87,0.00,,---,0.04,VWS V14.00,2013-03-07 11:58:00,
2013-03-07 03:59:00,34.0,30.5,29.76,NE,45,0.0,1.3,87,0.00,,---,0.04,VWS V14.00,2013-03-07 11:59:00,
2013-03-07 04:00:00,34.5,31.1,29.79,East,90,0.0,0.0,87,0.00,,---,0.04,VWS V14.00,2013-03-07 12:00:00,
2013-03-07 04:01:00,34.0,30.5,29.76,NE,45,0.0,0.0,87,0.00,,---,0.04,VWS V14.00,2013-03-07 12:01:00,
2013-03-07 04:02:00,34.0,30.5,29.76,NE,45,0.0,0.0,87,0.00,,---,0.04,VWS V14.00,2013-03-07 12:02:00,
2013-03-07 04:03:00,33.8,30.4,29.76,NE,45,0.0,0.0,87,0.00,,---,0.04,VWS V14.00,2013-03-07 12:03:00,
2013-03-07 04:04:00,33.8,30.4,29.76,NE,45,0.0,0.0,87,0.00,,---,0.04,VWS V14.00,2013-03-07 12:04:00,
2013-03-07 04:05:00,34.3,30.9,29.79,East,90,0.0,0.0,87,0.00,,---,0.04,VWS V14.00,2013-03-07 12:05:00,
2013-03-07 04:06:00,33.8,30.4,29.76,NE,45,0.0,0.0,87,0.00,,---,0.04,VWS V14.00,2013-03-07 12:06:00,
2013-03-07 04:07:00,33.8,30.4,29.76,NE,45,0.0,0.0,87,0.00,,---,0.04,VWS V14.00,2013-03-07 12:07:00,
2013-03-07 04:08:00,33.6,30.5,29.76,NE,45,0.0,0.0,88,0.00,,---,0.04,VWS V14.00,2013-03-07 12:08:00,
2013-03-07 04:09:00,33.6,30.5,29.76,NE,45,0.0,0.0,88,0.00,,---,0.04,VWS V14.00,2013-03-07 12:09:00,
2013-03-07 04:10:00,34.3,30.9,29.79,East,90,1.1,1.1,87,0.00,,---,0.04,VWS V14.00,2013-03-07 12:10:00,
2013-03-07 04:11:00,33.6,30.5,29.76,NE,45,0.0,0.0,88,0.00,,---,0.04,VWS V14.00,2013-03-07 12:11:00,
2013-03-07 04:12:00,33.6,30.5,29.76,NE,45,0.0,0.0,88,0.00,,---,0.04,VWS V14.00,2013-03-07 12:12:00,
2013-03-07 04:13:00,33.6,30.5,29.76,NE,45,0.0,0.0,88,0.00,,---,0.04,VWS V14.00,2013-03-07 12:13:00,
2013-03-07 04:14:00,33.6,30.5,29.76,NE,45,0.0,0.0,88,0.00,,---,0.04,VWS V14.00,2013-03-07 12:14:00,
2013-03-07 04:15:00,34.3,30.9,29.79,ENE,68,0.0,0.0,87,0.00,,---,0.04,VWS V14.00,2013-03-07 12:15:00,
2013-03-07 04:16:00,33.4,30.3,29.76,NE,45,2.0,2.0,88,0.00,,---,0.04,VWS V14.00,2013-03-07 12:16:00,
2013-03-07 04:17:00,33.4,30.3,29.76,NE,45,1.6,2.0,88,0.00,,---,0.04,VWS V14.00,2013-03-07 12:17:00,
2013-03-07 04:18:00,33.4,30.3,29.76,NE,45,3.1,3.1,88,0.00,,---,0.04,VWS V14.00,2013-03-07 12:18:00,
2013-03-07 04:19:00,33.4,30.3,29.76,NE,45,2.7,3.1,88,0.00,,---,0.04,VWS V14.00,2013-03-07 12:19:00,
2013-03-07 04:20:00,34.2,31.0,29.76,NE,45,0.0,1.1,88,0.00,,---,0.04,VWS V14.00,2013-03-07 12:20:00,
2013-03-07 04:21:00,33.4,30.3,29.76,NE,45,1.3,2.5,88,0.00,,---,0.04,VWS V14.00,2013-03-07 12:21:00,
2013-03-07 04:22:00,33.4,30.3,29.76,NE,45,2.0,2.0,88,0.00,,---,0.04,VWS V14.00,2013-03-07 12:22:00,
2013-03-07 04:23:00,33.4,30.3,29.79,NE,45,1.6,2.0,88,0.00,,---,0.04,VWS V14.00,2013-03-07 12:23:00,
2013-03-07 04:24:00,33.4,30.3,29.79,NE,45,1.1,1.6,88,0.00,,---,0.04,VWS V14.00,2013-03-07 12:24:00,
2013-03-07 04:25:00,34.2,31.0,29.76,NNE,22,0.0,0.0,88,0.00,,---,0.04,VWS V14.00,2013-03-07 12:25:00,
2013-03-07 04:26:00,33.4,30.3,29.79,NE,45,2.5,2.5,88,0.00,,---,0.04,VWS V14.00,2013-03-07 12:26:00,
2013-03-07 04:27:00,33.4,30.3,29.79,NE,45,1.6,2.5,88,0.00,,---,0.04,VWS V14.00,2013-03-07 12:27:00,
2013-03-07 04:28:00,33.4,30.3,29.79,NE,45,1.3,2.0,88,0.00,,---,0.04,VWS V14.00,2013-03-07 12:28:00,
2013-03-07 04:29:00,33.4,30.3,29.79,NE,45,0.0,1.3,88,0.00,,---,0.04,VWS V14.00,2013-03-07 12:29:00,
2013-03-07 04:30:00,34.3,31.2,29.76,NE,45,2.5,2.9,88,0.00,,---,0.04,VWS V14.00,2013-03-07 12:30:00,
2013-03-07 04:31:00,33.4,30.3,29.79,NE,45,2.0,2.0,88,0.00,,---,0.04,VWS V14.00,2013-03-07 12:31:00,
2013-03-07 04:32:00,33.4,30.3,29.79,NE,45,1.1,2.0,88,0.00,,---,0.04,VWS V14.00,2013-03-07 12:32:00,
2013-03-07 04:33:00,33.4,30.3,29.79,NE,45,1.1,1.1,88,0.00,,---,0.04,VWS V14.00,2013-03-07 12:33:00,
2013-03-07 04:34:00,33.4,30.3,29.79,NE,45,0.0,1.1,88,0.00,,---,0.04,VWS V14.00,2013-03-07 12:34:00,
2013-03-07 04:35:00,34.5,31.3,29.76,NE,45,0.0,0.0,88,0.00,,---,0.04,VWS V14.00,2013-03-07 12:35:00,
2013-03-07 04:36:00,33.4,30.3,29.79,NE,45,0.0,0.0,88,0.00,,---,0.04,VWS V14.00,2013-03-07 12:36:00,
2013-03-07 04:37:00,33.4,30.3,29.79,NE,45,0.0,0.0,88,0.00,,---,0.04,VWS V14.00,2013-03-07 12:37:00,
2013-03-07 04:38:00,33.4,30.3,29.76,NE,45,0.0,0.0,88,0.00,,---,0.04,VWS V14.00,2013-03-07 12:38:00,
2013-03-07 04:39:00,33.4,30.3,29.76,NE,45,0.0,0.0,88,0.00,,---,0.04,VWS V14.00,2013-03-07 12:39:00,
2013-03-07 04:40:00,34.3,30.9,29.76,NE,45,0.0,0.0,87,0.00,,---,0.04,VWS V14.00,2013-03-07 12:40:00,
2013-03-07 04:41:00,33.3,30.1,29.76,NE,45,2.5,2.7,88,0.00,,---,0.04,VWS V14.00,2013-03-07 12:41:00,
2013-03-07 04:42:00,33.3,30.1,29.76,NE,45,1.3,2.5,88,0.00,,---,0.04,VWS V14.00,2013-03-07 12:42:00,
2013-03-07 04:43:00,33.4,30.3,29.76,NE,45,1.1,1.3,88,0.00,,---,0.04,VWS V14.00,2013-03-07 12:43:00,
2013-03-07 04:44:00,33.4,30.3,29.76,NE,45,0.0,1.1,88,0.00,,---,0.04,VWS V14.00,2013-03-07 12:44:00,
2013-03-07 04:45:00,34.2,30.7,29.76,NE,45,0.0,0.0,87,0.00,,---,0.04,VWS V14.00,2013-03-07 12:45:00,
2013-03-07 04:46:00,33.3,30.1,29.76,NE,45,0.0,0.0,88,0.00,,---,0.04,VWS V14.00,2013-03-07 12:46:00,
2013-03-07 04:47:00,33.3,30.1,29.76,NE,45,0.0,0.0,88,0.00,,---,0.04,VWS V14.00,2013-03-07 12:47:00,
2013-03-07 04:48:00,33.3,30.1,29.76,NE,45,0.0,0.0,88,0.00,,---,0.04,VWS V14.00,2013-03-07 12:48:00,
2013-03-07 04:49:00,33.3,30.1,29.76,NE,45,0.0,0.0,88,0.00,,---,0.04,VWS V14.00,2013-03-07 12:49:00,
2013-03-07 04:50:00,34.0,30.5,29.76,NE,45,0.0,0.0,87,0.00,,---,0.04,VWS V14.00,2013-03-07 12:50:00,
2013-03-07 04:51:00,33.3,30.1,29.76,NE,45,0.0,0.0,88,0.00,,---,0.04,VWS V14.00,2013-03-07 12:51:00,
2013-03-07 04:52:00,33.3,30.1,29.76,NE,45,0.0,1.1,88,0.00,,---,0.04,VWS V14.00,2013-03-07 12:52:00,
2013-03-07 04:53:00,33.3,30.1,29.79,NE,45,0.0,0.0,88,0.00,,---,0.04,VWS V14.00,2013-03-07 12:53:00,
2013-03-07 04:54:00,33.1,29.9,29.79,NE,45,0.0,0.0,88,0.00,,---,0.04,VWS V14.00,2013-03-07 12:54:00,
2013-03-07 04:55:00,34.0,30.5,29.76,NE,45,0.0,1.3,87,0.00,,---,0.04,VWS V14.00,2013-03-07 12:55:00,
2013-03-07 04:56:00,33.1,29.9,29.79,NNE,22,1.3,1.3,88,0.00,,---,0.04,VWS V14.00,2013-03-07 12:56:00,
2013-03-07 04:57:00,33.1,29.9,29.79,NNE,22,0.0,1.3,88,0.00,,---,0.04,VWS V14.00,2013-03-07 12:57:00,
2013-03-07 04:58:00,33.1,29.9,29.79,NNE,22,0.0,0.0,88,0.00,,---,0.04,VWS V14.00,2013-03-07 12:58:00,
2013-03-07 04:59:00,33.1,29.9,29.79,NNE,22,0.0,0.0,88,0.00,,---,0.04,VWS V14.00,2013-03-07 12:59:00,
2013-03-07 05:00:00,33.8,30.4,29.76,NE,45,0.0,0.0,87,0.00,,---,0.04,VWS V14.00,2013-03-07 13:00:00,
2013-03-07 05:01:00,33.1,29.9,29.79,NNE,22,1.3,1.3,88,0.00,,---,0.04,VWS V14.00,2013-03-07 13:01:00,
2013-03-07 05:02:00,32.9,29.7,29.79,NNE,22,1.3,1.3,88,0.00,,---,0.04,VWS V14.00,2013-03-07 13:02:00,
2013-03-07 05:03:00,32.9,29.7,29.79,NNE,22,1.6,1.6,88,0.00,,---,0.04,VWS V14.00,2013-03-07 13:03:00,
2013-03-07 05:04:00,32.9,29.7,29.79,NNE,22,2.5,2.5,88,0.00,,---,0.04,VWS V14.00,2013-03-07 13:04:00,
2013-03-07 05:05:00,33.6,30.5,29.76,NE,45,0.0,0.0,88,0.00,,---,0.04,VWS V14.00,2013-03-07 13:05:00,
2013-03-07 05:06:00,33.1,29.9,29.79,NNE,22,2.0,2.0,88,0.00,,---,0.04,VWS V14.00,2013-03-07 13:06:00,
2013-03-07 05:07:00,33.1,29.9,29.79,NNE,22,1.3,2.0,88,0.00,,---,0.04,VWS V14.00,2013-03-07 13:07:00,
2013-03-07 05:08:00,33.1,29.9,29.79,NNE,22,2.0,2.9,88,0.00,,---,0.04,VWS V14.00,2013-03-07 13:08:00,
2013-03-07 05:09:00,33.3,30.1,29.79,NNE,22,2.5,2.5,88,0.00,,---,0.04,VWS V14.00,2013-03-07 13:09:00,
2013-03-07 05:10:00,33.6,30.5,29.76,NE,45,0.0,0.0,88,0.00,,---,0.04,VWS V14.00,2013-03-07 13:10:00,
2013-03-07 05:11:00,33.3,30.1,29.79,NNE,22,2.5,2.5,88,0.00,,---,0.04,VWS V14.00,2013-03-07 13:11:00,
2013-03-07 05:12:00,33.3,30.1,29.79,NNE,22,2.0,2.5,88,0.00,,---,0.04,VWS V14.00,2013-03-07 13:12:00,
2013-03-07 05:13:00,33.4,30.3,29.79,NNE,22,2.0,2.2,88,0.00,,---,0.04,VWS V14.00,2013-03-07 13:13:00,
2013-03-07 05:14:00,33.4,30.3,29.79,NNE,22,1.6,2.5,88,0.00,,---,0.04,VWS V14.00,2013-03-07 13:14:00,
2013-03-07 05:15:00,33.4,30.3,29.79,NNE,22,1.1,2.0,88,0.00,,---,0.04,VWS V14.00,2013-03-07 13:15:00,
2013-03-07 05:16:00,33.4,30.3,29.76,NE,45,2.2,2.7,88,0.00,,---,0.04,VWS V14.00,2013-03-07 13:16:00,
2013-03-07 05:17:00,33.4,30.3,29.79,NNE,22,1.1,1.3,88,0.00,,---,0.04,VWS V14.00,2013-03-07 13:17:00,
2013-03-07 05:18:00,33.4,30.3,29.79,NNE,22,2.0,2.5,88,0.00,,---,0.04,VWS V14.00,2013-03-07 13:18:00,
2013-03-07 05:19:00,33.4,30.3,29.79,NNE,22,2.2,2.7,88,0.00,,---,0.04,VWS V14.00,2013-03-07 13:19:00,
2013-03-07 05:20:00,33.4,30.3,29.79,NNE,22,1.6,2.2,88,0.00,,---,0.04,VWS V14.00,2013-03-07 13:20:00,
2013-03-07 05:21:00,33.4,30.3,29.79,NE,45,1.6,2.0,88,0.00,,---,0.04,VWS V14.00,2013-03-07 13:21:00,
2013-03-07 05:22:00,33.4,30.3,29.79,NNE,22,0.0,1.6,88,0.00,,---,0.04,VWS V14.00,2013-03-07 13:22:00,
2013-03-07 05:23:00,33.4,30.3,29.76,NNE,22,0.0,0.0,88,0.00,,---,0.04,VWS V14.00,2013-03-07 13:23:00,
2013-03-07 05:24:00,33.3,30.1,29.76,NNE,22,1.3,1.3,88,0.00,,---,0.04,VWS V14.00,2013-03-07 13:24:00,
2013-03-07 05:25:00,33.3,30.1,29.76,NNE,22,1.6,1.6,88,0.00,,---,0.04,VWS V14.00,2013-03-07 13:25:00,
2013-03-07 05:26:00,33.4,30.3,29.79,NE,45,0.0,0.9,88,0.00,,---,0.04,VWS V14.00,2013-03-07 13:26:00,
2013-03-07 05:27:00,33.3,30.1,29.76,NNE,22,1.3,2.0,88,0.00,,---,0.04,VWS V14.00,2013-03-07 13:27:00,
2013-03-07 05:28:00,33.3,30.1,29.76,NNE,22,1.1,1.3,88,0.00,,---,0.04,VWS V14.00,2013-03-07 13:28:00,
2013-03-07 05:29:00,33.3,30.1,29.76,NNE,22,1.3,1.3,88,0.00,,---,0.04,VWS V14.00,2013-03-07 13:29:00,
2013-03-07 05:30:00,33.3,30.1,29.76,NNE,22,2.0,2.0,88,0.00,,---,0.04,VWS V14.00,2013-03-07 13:30:00,
2013-03-07 05:31:00,33.4,30.3,29.79,NE,45,0.0,0.0,88,0.00,,---,0.04,VWS V14.00,2013-03-07 13:31:00,
2013-03-07 05:32:00,33.3,29.8,29.76,NNE,22,0.0,0.9,87,0.00,,---,0.04,VWS V14.00,2013-03-07 13:32:00,
2013-03-07 05:33:00,33.3,29.8,29.76,NNE,22,1.1,1.1,87,0.00,,---,0.04,VWS V14.00,2013-03-07 13:33:00,
2013-03-07 05:34:00,33.3,29.8,29.76,NNE,22,1.6,2.2,87,0.00,,---,0.04,VWS V14.00,2013-03-07 13:34:00,
2013-03-07 05:35:00,33.3,30.1,29.76,NNE,22,1.1,2.2,88,0.00,,---,0.04,VWS V14.00,2013-03-07 13:35:00,
2013-03-07 05:36:00,33.3,30.1,29.76,NE,45,0.0,0.0,88,0.00,,---,0.04,VWS V14.00,2013-03-07 13:36:00,
2013-03-07 05:37:00,33.4,30.3,29.76,NE,45,0.0,1.6,88,0.00,,---,0.04,VWS V14.00,2013-03-07 13:37:00,
2013-03-07 05:38:00,33.4,30.3,29.79,NE,45,0.0,0.0,88,0.00,,---,0.04,VWS V14.00,2013-03-07 13:38:00,
2013-03-07 05:39:00,33.4,30.3,29.79,NE,45,2.0,2.0,88,0.00,,---,0.04,VWS V14.00,2013-03-07 13:39:00,
2013-03-07 05:40:00,33.4,30.3,29.79,ENE,68,2.0,2.0,88,0.00,,---,0.04,VWS V14.00,2013-03-07 13:40:00,
2013-03-07 05:41:00,33.3,30.1,29.76,NE,45,0.0,0.0,88,0.00,,---,0.04,VWS V14.00,2013-03-07 13:41:00,
2013-03-07 05:42:00,33.4,30.3,29.79,ENE,68,0.0,0.0,88,0.00,,---,0.04,VWS V14.00,2013-03-07 13:42:00,
2013-03-07 05:43:00,33.4,30.3,29.79,ENE,68,0.0,0.0,88,0.00,,---,0.04,VWS V14.00,2013-03-07 13:43:00,
2013-03-07 05:44:00,33.4,30.3,29.79,ENE,68,0.9,1.6,88,0.00,,---,0.04,VWS V14.00,2013-03-07 13:44:00,
2013-03-07 05:45:00,33.4,30.3,29.79,ENE,68,0.0,1.1,88,0.00,,---,0.04,VWS V14.00,2013-03-07 13:45:00,
2013-03-07 05:46:00,33.6,30.5,29.79,ENE,68,1.3,1.3,88,0.00,,---,0.04,VWS V14.00,2013-03-07 13:46:00,
2013-03-07 05:47:00,33.3,30.1,29.76,NE,45,0.0,0.0,88,0.00,,---,0.04,VWS V14.00,2013-03-07 13:47:00,
2013-03-07 05:48:00,33.6,30.5,29.79,NE,45,0.0,1.1,88,0.00,,---,0.04,VWS V14.00,2013-03-07 13:48:00,
2013-03-07 05:49:00,33.6,30.5,29.79,NE,45,0.0,0.0,88,0.00,,---,0.04,VWS V14.00,2013-03-07 13:49:00,
2013-03-07 05:50:00,33.6,30.5,29.79,NE,45,0.0,0.0,88,0.00,,---,0.04,VWS V14.00,2013-03-07 13:50:00,
2013-03-07 05:51:00,33.6,30.5,29.79,NE,45,1.6,2.2,88,0.00,,---,0.04,VWS V14.00,2013-03-07 13:51:00,
2013-03-07 05:52:00,33.1,29.9,29.79,NNE,22,1.3,1.3,88,0.00,,---,0.04,VWS V14.00,2013-03-07 13:52:00,
2013-03-07 05:53:00,33.6,30.5,29.79,NNE,22,2.7,2.7,88,0.00,,---,0.04,VWS V14.00,2013-03-07 13:53:00,
2013-03-07 05:54:00,33.6,30.5,29.79,NNE,22,2.5,2.7,88,0.00,,---,0.04,VWS V14.00,2013-03-07 13:54:00,
2013-03-07 05:55:00,33.6,30.5,29.79,NNE,22,2.5,2.5,88,0.00,,---,0.04,VWS V14.00,2013-03-07 13:55:00,
2013-03-07 05:56:00,33.8,30.6,29.79,NNE,22,2.5,2.7,88,0.00,,---,0.04,VWS V14.00,2013-03-07 13:56:00,
2013-03-07 05:57:00,33.1,29.9,29.79,NNE,22,0.0,0.0,88,0.00,,---,0.04,VWS V14.00,2013-03-07 13:57:00,
2013-03-07 05:58:00,33.8,30.6,29.79,NNE,22,1.1,2.7,88,0.00,,---,0.04,VWS V14.00,2013-03-07 13:58:00,
2013-03-07 05:59:00,33.8,30.6,29.79,NE,45,2.0,2.5,88,0.00,,---,0.04,VWS V14.00,2013-03-07 13:59:00,
2013-03-07 06:00:00,33.8,30.6,29.79,ENE,68,2.7,2.7,88,0.00,,---,0.04,VWS V14.00,2013-03-07 14:00:00,
2013-03-07 06:01:00,33.6,30.5,29.79,ENE,68,1.1,2.7,88,0.00,,---,0.04,VWS V14.00,2013-03-07 14:01:00,
2013-03-07 06:02:00,33.1,29.9,29.79,NNE,22,2.0,2.0,88,0.00,,---,0.04,VWS V14.00,2013-03-07 14:02:00,
2013-03-07 06:03:00,33.6,30.5,29.79,ENE,68,1.3,2.7,88,0.00,,---,0.04,VWS V14.00,2013-03-07 14:03:00,
2013-03-07 06:04:00,33.8,30.6,29.79,ENE,68,1.1,2.7,88,0.00,,---,0.04,VWS V14.00,2013-03-07 14:04:00,
2013-03-07 06:05:00,33.8,30.6,29.79,ENE,68,1.6,2.0,88,0.00,,---,0.04,VWS V14.00,2013-03-07 14:05:00,
2013-03-07 06:06:00,33.8,30.6,29.79,ENE,68,1.3,2.0,88,0.00,,---,0.04,VWS V14.00,2013-03-07 14:06:00,
2013-03-07 06:07:00,33.3,30.1,29.79,NNE,22,2.5,2.5,88,0.00,,---,0.04,VWS V14.00,2013-03-07 14:07:00,
2013-03-07 06:08:00,34.0,30.8,29.79,NE,45,1.6,2.5,88,0.00,,---,0.04,VWS V14.00,2013-03-07 14:08:00,
2013-03-07 06:09:00,34.0,30.8,29.79,NE,45,0.0,1.6,88,0.00,,---,0.04,VWS V14.00,2013-03-07 14:09:00,
2013-03-07 06:10:00,34.0,30.8,29.79,NNE,22,0.0,0.0,88,0.00,,---,0.04,VWS V14.00,2013-03-07 14:10:00,
2013-03-07 06:11:00,34.0,30.8,29.79,NNE,22,0.0,0.0,88,0.00,,---,0.04,VWS V14.00,2013-03-07 14:11:00,
2013-03-07 06:12:00,33.4,30.3,29.79,NNE,22,1.3,1.3,88,0.00,,---,0.04,VWS V14.00,2013-03-07 14:12:00,
2013-03-07 06:13:00,34.2,31.0,29.79,NNE,22,1.1,1.3,88,0.00,,---,0.04,VWS V14.00,2013-03-07 14:13:00,
2013-03-07 06:14:00,34.2,31.0,29.79,NE,45,0.0,1.1,88,0.00,,---,0.04,VWS V14.00,2013-03-07 14:14:00,
2013-03-07 06:15:00,34.2,31.0,29.79,NE,45,1.6,1.6,88,0.00,,---,0.04,VWS V14.00,2013-03-07 14:15:00,
2013-03-07 06:16:00,34.3,31.2,29.79,NE,45,1.3,2.7,88,0.00,,---,0.04,VWS V14.00,2013-03-07 14:16:00,
2013-03-07 06:17:00,33.4,30.3,29.79,NNE,22,1.6,2.0,88,0.00,,---,0.04,VWS V14.00,2013-03-07 14:17:00,
2013-03-07 06:18:00,34.3,31.2,29.79,ENE,68,1.3,2.7,88,0.00,,---,0.04,VWS V14.00,2013-03-07 14:18:00,
2013-03-07 06:19:00,34.5,31.3,29.79,ENE,68,2.2,2.2,88,0.00,,---,0.04,VWS V14.00,2013-03-07 14:19:00,
2013-03-07 06:20:00,34.5,31.3,29.79,ENE,68,0.0,2.2,88,0.00,,---,0.04,VWS V14.00,2013-03-07 14:20:00,
2013-03-07 06:21:00,34.5,31.3,29.79,NE,45,0.9,1.3,88,0.00,,---,0.04,VWS V14.00,2013-03-07 14:21:00,
2013-03-07 06:22:00,33.3,30.1,29.76,NNE,22,2.0,2.0,88,0.00,,---,0.04,VWS V14.00,2013-03-07 14:22:00,
2013-03-07 06:23:00,34.5,31.3,29.79,NE,45,2.5,2.5,88,0.00,,---,0.04,VWS V14.00,2013-03-07 14:23:00,
2013-03-07 06:24:00,34.5,31.1,29.79,NNE,22,1.6,3.1,87,0.00,,---,0.04,VWS V14.00,2013-03-07 14:24:00,
2013-03-07 06:25:00,34.5,31.1,29.79,NNE,22,2.0,2.0,87,0.00,,---,0.04,VWS V14.00,2013-03-07 14:25:00,
2013-03-07 06:26:00,34.5,31.1,29.79,NNE,22,1.6,2.0,87,0.00,,---,0.04,VWS V14.00,2013-03-07 14:26:00,
2013-03-07 06:27:00,33.3,30.1,29.76,NNE,22,0.9,2.0,88,0.00,,---,0.04,VWS V14.00,2013-03-07 14:27:00,
2013-03-07 06:28:00,34.5,31.1,29.79,NNE,22,2.0,2.2,87,0.00,,---,0.04,VWS V14.00,2013-03-07 14:28:00,
2013-03-07 06:29:00,34.5,31.1,29.79,NNE,22,1.3,2.0,87,0.00,,---,0.04,VWS V14.00,2013-03-07 14:29:00,
2013-03-07 06:30:00,34.5,31.1,29.79,NNE,22,1.1,2.2,87,0.00,,---,0.04,VWS V14.00,2013-03-07 14:30:00,
2013-03-07 06:31:00,34.7,31.2,29.79,NNE,22,1.1,1.3,87,0.00,,---,0.04,VWS V14.00,2013-03-07 14:31:00,
2013-03-07 06:32:00,33.3,30.1,29.76,NE,45,1.6,2.0,88,0.00,,---,0.04,VWS V14.00,2013-03-07 14:32:00,
2013-03-07 06:33:00,34.7,31.0,29.79,NNE,22,1.6,1.6,86,0.00,,---,0.04,VWS V14.00,2013-03-07 14:33:00,
2013-03-07 06:34:00,34.7,31.0,29.79,NNE,22,1.3,1.6,86,0.00,,---,0.04,VWS V14.00,2013-03-07 14:34:00,
2013-03-07 06:35:00,34.7,31.0,29.79,NNE,22,1.1,1.3,86,0.00,,---,0.04,VWS V14.00,2013-03-07 14:35:00,
2013-03-07 06:36:00,34.7,31.0,29.79,NNE,22,1.1,1.6,86,0.00,,---,0.04,VWS V14.00,2013-03-07 14:36:00,
2013-03-07 06:37:00,33.4,30.3,29.79,ENE,68,0.0,2.0,88,0.00,,---,0.04,VWS V14.00,2013-03-07 14:37:00,
2013-03-07 06:38:00,34.7,31.0,29.79,NNE,22,1.6,2.0,86,0.00,,---,0.04,VWS V14.00,2013-03-07 14:38:00,
2013-03-07 06:39:00,34.7,31.0,29.79,NNE,22,1.3,1.6,86,0.00,,---,0.04,VWS V14.00,2013-03-07 14:39:00,
2013-03-07 06:40:00,34.7,31.0,29.79,NNE,22,1.6,1.6,86,0.00,,---,0.04,VWS V14.00,2013-03-07 14:40:00,
2013-03-07 06:41:00,34.9,31.1,29.79,NNE,22,2.2,2.2,86,0.00,,---,0.04,VWS V14.00,2013-03-07 14:41:00,
2013-03-07 06:42:00,33.6,30.5,29.79,ENE,68,1.3,1.3,88,0.00,,---,0.04,VWS V14.00,2013-03-07 14:42:00,
2013-03-07 06:43:00,34.9,31.1,29.79,NNE,22,1.6,1.6,86,0.00,,---,0.04,VWS V14.00,2013-03-07 14:43:00,
2013-03-07 06:44:00,35.1,31.3,29.79,NNE,22,1.1,1.6,86,0.00,,---,0.04,VWS V14.00,2013-03-07 14:44:00,
2013-03-07 06:45:00,35.1,31.3,29.79,NNE,22,0.0,1.1,86,0.00,,---,0.04,VWS V14.00,2013-03-07 14:45:00,
2013-03-07 06:46:00,35.1,31.3,29.79,NNE,22,1.3,1.3,86,0.00,,---,0.04,VWS V14.00,2013-03-07 14:46:00,
2013-03-07 06:47:00,33.6,30.5,29.79,NE,45,1.6,2.2,88,0.00,,---,0.04,VWS V14.00,2013-03-07 14:47:00,
2013-03-07 06:48:00,35.1,31.3,29.79,NNE,22,0.0,0.0,86,0.00,,---,0.04,VWS V14.00,2013-03-07 14:48:00,
2013-03-07 06:49:00,35.2,31.5,29.79,NNE,22,1.3,2.2,86,0.00,,---,0.04,VWS V14.00,2013-03-07 14:49:00,
2013-03-07 06:50:00,35.4,31.7,29.79,NNE,22,1.6,2.0,86,0.00,,---,0.04,VWS V14.00,2013-03-07 14:50:00,
2013-03-07 06:51:00,35.4,31.7,29.79,NNE,22,2.5,2.5,86,0.00,,---,0.04,VWS V14.00,2013-03-07 14:51:00,
2013-03-07 06:52:00,33.8,30.6,29.79,NNE,22,2.5,2.7,88,0.00,,---,0.04,VWS V14.00,2013-03-07 14:52:00,
2013-03-07 06:53:00,35.4,31.7,29.79,NNE,22,2.5,2.5,86,0.00,,---,0.04,VWS V14.00,2013-03-07 14:53:00,
2013-03-07 06:54:00,35.6,31.5,29.79,NNE,22,2.5,3.1,85,0.00,,---,0.04,VWS V14.00,2013-03-07 14:54:00,
2013-03-07 06:55:00,35.6,31.5,29.79,NNE,22,2.0,2.5,85,0.00,,---,0.04,VWS V14.00,2013-03-07 14:55:00,
2013-03-07 06:56:00,35.6,31.5,29.79,NE,45,2.0,2.5,85,0.00,,---,0.04,VWS V14.00,2013-03-07 14:56:00,
2013-03-07 06:57:00,33.6,30.5,29.79,ENE,68,1.1,2.7,88,0.00,,---,0.04,VWS V14.00,2013-03-07 14:57:00,
2013-03-07 06:58:00,35.8,31.7,29.79,NE,45,0.0,1.1,85,0.00,,---,0.04,VWS V14.00,2013-03-07 14:58:00,
2013-03-07 06:59:00,35.8,31.7,29.79,NE,45,2.5,2.5,85,0.00,,---,0.04,VWS V14.00,2013-03-07 14:59:00,
2013-03-07 07:00:00,35.8,31.7,29.79,NE,45,1.6,2.5,85,0.00,,---,0.04,VWS V14.00,2013-03-07 15:00:00,
2013-03-07 07:01:00,35.8,31.7,29.79,NE,45,1.6,2.5,85,0.00,,---,0.04,VWS V14.00,2013-03-07 15:01:00,
2013-03-07 07:02:00,33.8,30.6,29.79,ENE,68,1.3,2.0,88,0.00,,---,0.04,VWS V14.00,2013-03-07 15:02:00,
2013-03-07 07:03:00,36.0,31.9,29.79,NE,45,1.3,2.2,85,0.00,,---,0.04,VWS V14.00,2013-03-07 15:03:00,
2013-03-07 07:04:00,36.0,31.6,29.79,NE,45,0.0,1.3,84,0.00,,---,0.04,VWS V14.00,2013-03-07 15:04:00,
2013-03-07 07:05:00,36.1,31.8,29.79,NE,45,0.0,0.0,84,0.00,,---,0.04,VWS V14.00,2013-03-07 15:05:00,
2013-03-07 07:06:00,36.1,31.8,29.79,NE,45,1.3,1.6,84,0.00,,---,0.04,VWS V14.00,2013-03-07 15:06:00,
2013-03-07 07:07:00,34.0,30.8,29.79,NNE,22,0.0,0.0,88,0.00,,---,0.04,VWS V14.00,2013-03-07 15:07:00,
2013-03-07 07:08:00,36.3,32.0,29.79,NE,45,2.0,2.2,84,0.00,,---,0.04,VWS V14.00,2013-03-07 15:08:00,
2013-03-07 07:09:00,36.3,32.0,29.79,NE,45,1.1,2.0,84,0.00,,---,0.04,VWS V14.00,2013-03-07 15:09:00,
2013-03-07 07:10:00,36.5,32.1,29.79,NE,45,1.6,1.6,84,0.00,,---,0.04,VWS V14.00,2013-03-07 15:10:00,
2013-03-07 07:11:00,36.7,32.3,29.79,NE,45,1.6,2.0,84,0.00,,---,0.04,VWS V14.00,2013-03-07 15:11:00,
2013-03-07 07:12:00,34.3,31.2,29.79,NE,45,1.3,2.7,88,0.00,,---,0.04,VWS V14.00,2013-03-07 15:12:00,
2013-03-07 07:13:00,36.9,31.9,29.79,NNE,22,2.9,2.9,82,0.00,,---,0.04,VWS V14.00,2013-03-07 15:13:00,
2013-03-07 07:14:00,36.9,31.9,29.79,NNE,22,2.0,2.9,82,0.00,,---,0.04,VWS V14.00,2013-03-07 15:14:00,
2013-03-07 07:15:00,37.0,32.1,29.79,NNE,22,2.0,2.0,82,0.00,,---,0.04,VWS V14.00,2013-03-07 15:15:00,
2013-03-07 07:16:00,37.0,32.1,29.79,NNE,22,0.0,2.0,82,0.00,,---,0.04,VWS V14.00,2013-03-07 15:16:00,
2013-03-07 07:17:00,34.5,31.3,29.79,NE,45,0.9,1.3,88,0.00,,---,0.04,VWS V14.00,2013-03-07 15:17:00,
2013-03-07 07:18:00,37.4,32.4,29.79,NE,45,1.3,2.2,82,0.00,,---,0.04,VWS V14.00,2013-03-07 15:18:00,
2013-03-07 07:19:00,37.4,32.4,29.79,NE,45,1.1,1.6,82,0.00,,---,0.04,VWS V14.00,2013-03-07 15:19:00,
2013-03-07 07:20:00,37.8,33.1,29.79,NE,45,1.3,1.3,83,0.00,,---,0.04,VWS V14.00,2013-03-07 15:20:00,
2013-03-07 07:21:00,37.8,33.1,29.79,ENE,68,1.1,2.2,83,0.00,,---,0.04,VWS V14.00,2013-03-07 15:21:00,
2013-03-07 07:22:00,38.1,33.4,29.79,ENE,68,0.0,2.2,83,0.00,,---,0.04,VWS V14.00,2013-03-07 15:22:00,
2013-03-07 07:23:00,34.5,31.1,29.79,NNE,22,1.3,1.6,87,0.00,,---,0.04,VWS V14.00,2013-03-07 15:23:00,
2013-03-07 07:24:00,38.3,33.6,29.79,ENE,68,2.2,2.7,83,0.00,,---,0.04,VWS V14.00,2013-03-07 15:24:00,
2013-03-07 07:25:00,38.5,33.8,29.79,East,90,3.1,3.1,83,0.00,,---,0.04,VWS V14.00,2013-03-07 15:25:00,
2013-03-07 07:26:00,38.5,33.5,29.79,East,90,2.7,3.4,82,0.00,,---,0.04,VWS V14.00,2013-03-07 15:26:00,
2013-03-07 07:27:00,38.7,33.3,29.79,East,90,2.5,2.7,81,0.00,,---,0.04,VWS V14.00,2013-03-07 15:27:00,
2013-03-07 07:28:00,34.7,31.2,29.79,NNE,22,1.6,1.6,87,0.00,,---,0.04,VWS V14.00,2013-03-07 15:28:00,
2013-03-07 07:29:00,39.0,33.4,29.79,East,90,1.3,2.5,80,0.00,,---,0.04,VWS V14.00,2013-03-07 15:29:00,
2013-03-07 07:30:00,39.0,33.4,29.79,East,90,2.5,2.9,80,0.00,,---,0.04,VWS V14.00,2013-03-07 15:30:00,
2013-03-07 07:31:00,39.0,33.1,29.79,East,90,2.5,2.9,79,0.00,,---,0.04,VWS V14.00,2013-03-07 15:31:00,
2013-03-07 07:32:00,39.0,33.1,29.79,East,90,2.5,2.5,79,0.00,,---,0.04,VWS V14.00,2013-03-07 15:32:00,
2013-03-07 07:33:00,34.7,31.0,29.79,NNE,22,1.6,1.6,86,0.00,,---,0.04,VWS V14.00,2013-03-07 15:33:00,
2013-03-07 07:34:00,38.8,32.6,29.79,East,90,2.0,2.5,78,0.00,,---,0.04,VWS V14.00,2013-03-07 15:34:00,
2013-03-07 07:35:00,38.8,32.6,29.79,East,90,1.6,2.9,78,0.00,,---,0.04,VWS V14.00,2013-03-07 15:35:00,
2013-03-07 07:36:00,39.2,32.6,29.79,East,90,1.3,1.6,77,0.00,,---,0.04,VWS V14.00,2013-03-07 15:36:00,
2013-03-07 07:37:00,39.2,32.6,29.79,East,90,0.9,2.0,77,0.00,,---,0.04,VWS V14.00,2013-03-07 15:37:00,
2013-03-07 07:38:00,34.9,31.1,29.79,NNE,22,1.3,2.2,86,0.00,,---,0.04,VWS V14.00,2013-03-07 15:38:00,
2013-03-07 07:39:00,39.4,32.8,29.79,ENE,68,1.3,1.6,77,0.00,,---,0.04,VWS V14.00,2013-03-07 15:39:00,
2013-03-07 07:40:00,39.4,32.8,29.79,ENE,68,1.6,1.6,77,0.00,,---,0.04,VWS V14.00,2013-03-07 15:40:00,
2013-03-07 07:41:00,39.4,33.1,29.79,ENE,68,1.1,2.0,78,0.00,,---,0.04,VWS V14.00,2013-03-07 15:41:00,
2013-03-07 07:42:00,39.6,33.0,29.79,ENE,68,2.0,2.0,77,0.00,,---,0.04,VWS V14.00,2013-03-07 15:42:00,
2013-03-07 07:43:00,35.1,31.3,29.79,NNE,22,0.0,1.3,86,0.00,,---,0.04,VWS V14.00,2013-03-07 15:43:00,
2013-03-07 07:44:00,39.7,33.1,29.79,ENE,68,0.9,1.6,77,0.00,,---,0.04,VWS V14.00,2013-03-07 15:44:00,
2013-03-07 07:45:00,39.7,33.1,29.79,ENE,68,2.0,2.0,77,0.00,,---,0.04,VWS V14.00,2013-03-07 15:45:00,
2013-03-07 07:46:00,39.9,33.3,29.79,ENE,68,1.3,2.0,77,0.00,,---,0.04,VWS V14.00,2013-03-07 15:46:00,
2013-03-07 07:47:00,39.9,33.3,29.79,ENE,68,1.6,1.6,77,0.00,,---,0.04,VWS V14.00,2013-03-07 15:47:00,
2013-03-07 07:48:00,35.4,31.7,29.79,NNE,22,2.2,2.5,86,0.00,,---,0.04,VWS V14.00,2013-03-07 15:48:00,
2013-03-07 07:49:00,40.1,33.5,29.79,ENE,68,1.6,2.2,77,0.00,,---,0.04,VWS V14.00,2013-03-07 15:49:00,
2013-03-07 07:50:00,40.3,33.7,29.79,ENE,68,2.5,3.1,77,0.00,,---,0.04,VWS V14.00,2013-03-07 15:50:00,
2013-03-07 07:51:00,40.3,33.7,29.79,ENE,68,2.0,2.5,77,0.00,,---,0.04,VWS V14.00,2013-03-07 15:51:00,
2013-03-07 07:52:00,40.5,33.8,29.79,ENE,68,0.0,2.0,77,0.00,,---,0.04,VWS V14.00,2013-03-07 15:52:00,
2013-03-07 07:53:00,35.6,31.5,29.79,NE,45,1.6,2.0,85,0.00,,---,0.04,VWS V14.00,2013-03-07 15:53:00,
2013-03-07 07:54:00,40.6,34.0,29.79,ENE,68,1.6,2.0,77,0.00,,---,0.04,VWS V14.00,2013-03-07 15:54:00,
2013-03-07 07:55:00,40.6,34.0,29.79,ENE,68,1.1,2.0,77,0.00,,---,0.04,VWS V14.00,2013-03-07 15:55:00,
2013-03-07 07:56:00,40.6,33.7,29.79,ENE,68,1.3,1.3,76,0.00,,---,0.04,VWS V14.00,2013-03-07 15:56:00,
2013-03-07 07:57:00,41.0,34.0,29.79,NE,45,2.9,2.9,76,0.00,,---,0.04,VWS V14.00,2013-03-07 15:57:00,
2013-03-07 07:58:00,36.0,31.9,29.79,NE,45,1.3,2.0,85,0.00,,---,0.04,VWS V14.00,2013-03-07 15:58:00,
2013-03-07 07:59:00,41.0,33.7,29.79,NNE,22,1.3,2.5,75,0.00,,---,0.04,VWS V14.00,2013-03-07 15:59:00,
2013-03-07 08:00:00,41.2,33.9,29.79,NNE,22,1.3,1.6,75,0.00,,---,0.04,VWS V14.00,2013-03-07 16:00:00,
2013-03-07 08:01:00,41.2,33.9,29.79,NE,45,2.2,2.2,75,0.00,,---,0.04,VWS V14.00,2013-03-07 16:01:00,
2013-03-07 08:02:00,41.2,33.9,29.79,NE,45,1.6,2.5,75,0.00,,---,0.04,VWS V14.00,2013-03-07 16:02:00,
2013-03-07 08:03:00,36.1,31.8,29.79,NE,45,1.6,1.6,84,0.00,,---,0.04,VWS V14.00,2013-03-07 16:03:00,
2013-03-07 08:04:00,41.4,33.7,29.79,East,90,1.6,2.9,74,0.00,,---,0.04,VWS V14.00,2013-03-07 16:04:00,
2013-03-07 08:05:00,41.4,33.7,29.79,ENE,68,2.5,2.5,74,0.00,,---,0.04,VWS V14.00,2013-03-07 16:05:00,
2013-03-07 08:06:00,41.5,33.9,29.79,ENE,68,1.3,2.5,74,0.00,,---,0.04,VWS V14.00,2013-03-07 16:06:00,
2013-03-07 08:07:00,41.7,34.1,29.79,ENE,68,1.3,2.0,74,0.00,,---,0.04,VWS V14.00,2013-03-07 16:07:00,
2013-03-07 08:08:00,36.7,32.3,29.79,NE,45,2.2,2.2,84,0.00,,---,0.04,VWS V14.00,2013-03-07 16:08:00,
2013-03-07 08:09:00,41.9,33.9,29.79,ENE,68,2.2,2.5,73,0.00,,---,0.04,VWS V14.00,2013-03-07 16:09:00,
2013-03-07 08:10:00,42.1,34.1,29.79,ENE,68,2.5,2.5,73,0.00,,---,0.04,VWS V14.00,2013-03-07 16:10:00,
2013-03-07 08:11:00,42.1,33.7,29.79,ENE,68,2.0,2.5,72,0.00,,---,0.04,VWS V14.00,2013-03-07 16:11:00,
2013-03-07 08:12:00,42.3,33.5,29.79,East,90,2.5,2.5,71,0.00,,---,0.04,VWS V14.00,2013-03-07 16:12:00,
2013-03-07 08:13:00,37.2,32.2,29.79,NE,45,2.2,2.2,82,0.00,,---,0.04,VWS V14.00,2013-03-07 16:13:00,
2013-03-07 08:14:00,42.6,33.9,29.79,ENE,68,2.7,2.7,71,0.00,,---,0.04,VWS V14.00,2013-03-07 16:14:00,
2013-03-07 08:15:00,42.6,33.9,29.79,ENE,68,2.0,2.7,71,0.00,,---,0.04,VWS V14.00,2013-03-07 16:15:00,
2013-03-07 08:16:00,42.6,33.2,29.79,East,90,2.5,2.7,69,0.00,,---,0.04,VWS V14.00,2013-03-07 16:16:00,
2013-03-07 08:17:00,42.6,32.4,29.79,NE,45,3.4,3.4,67,0.00,,---,0.04,VWS V14.00,2013-03-07 16:17:00,
2013-03-07 08:18:00,38.1,33.4,29.79,ENE,68,0.9,2.2,83,0.00,,---,0.04,VWS V14.00,2013-03-07 16:18:00,
2013-03-07 08:19:00,42.8,32.6,29.79,NE,45,2.0,2.9,67,0.00,,---,0.04,VWS V14.00,2013-03-07 16:19:00,
2013-03-07 08:20:00,43.0,32.8,29.79,NE,45,2.2,2.5,67,0.00,,---,0.04,VWS V14.00,2013-03-07 16:20:00,
2013-03-07 08:21:00,43.0,32.8,29.79,ENE,68,2.0,2.7,67,0.00,,---,0.04,VWS V14.00,2013-03-07 16:21:00,
2013-03-07 08:22:00,43.3,33.1,29.79,ENE,68,0.0,2.0,67,0.00,,---,0.04,VWS V14.00,2013-03-07 16:22:00,
2013-03-07 08:23:00,38.7,33.3,29.79,East,90,2.5,2.7,81,0.00,,---,0.04,VWS V14.00,2013-03-07 16:23:00,
2013-03-07 08:24:00,43.3,33.1,29.79,ENE,68,1.6,2.5,67,0.00,,---,0.04,VWS V14.00,2013-03-07 16:24:00,
2013-03-07 08:25:00,43.5,32.9,29.79,NE,45,2.0,2.5,66,0.00,,---,0.04,VWS V14.00,2013-03-07 16:25:00,
2013-03-07 08:26:00,43.5,33.3,29.79,ENE,68,2.5,2.9,67,0.00,,---,0.04,VWS V14.00,2013-03-07 16:26:00,
2013-03-07 08:27:00,43.7,32.0,29.79,East,90,2.5,2.5,63,0.00,,---,0.04,VWS V14.00,2013-03-07 16:27:00,
2013-03-07 08:28:00,39.0,33.1,29.79,East,90,2.5,2.5,79,0.00,,---,0.04,VWS V14.00,2013-03-07 16:28:00,
2013-03-07 08:29:00,43.7,32.0,29.79,ENE,68,1.3,2.5,63,0.00,,---,0.04,VWS V14.00,2013-03-07 16:29:00,
2013-03-07 08:30:00,44.2,32.5,29.79,ENE,68,1.3,1.3,63,0.00,,---,0.04,VWS V14.00,2013-03-07 16:30:00,
2013-03-07 08:31:00,44.2,32.1,29.79,ENE,68,2.5,3.6,62,0.00,,---,0.04,VWS V14.00,2013-03-07 16:31:00,
2013-03-07 08:32:00,44.2,31.2,29.79,ESE,112,2.9,3.1,60,0.00,,---,0.04,VWS V14.00,2013-03-07 16:32:00,
2013-03-07 08:33:00,39.2,32.6,29.79,East,90,0.9,2.0,77,0.00,,---,0.04,VWS V14.00,2013-03-07 16:33:00,
2013-03-07 08:34:00,44.2,30.8,29.79,East,90,2.7,3.1,59,0.00,,---,0.04,VWS V14.00,2013-03-07 16:34:00,
2013-03-07 08:35:00,44.4,30.6,29.79,NE,45,2.7,2.7,58,0.00,,---,0.04,VWS V14.00,2013-03-07 16:35:00,
2013-03-07 08:36:00,44.4,30.6,29.79,NNE,22,2.2,3.4,58,0.00,,---,0.04,VWS V14.00,2013-03-07 16:36:00,
2013-03-07 08:37:00,44.6,31.2,29.79,NNE,22,1.6,2.2,59,0.00,,---,0.04,VWS V14.00,2013-03-07 16:37:00,
2013-03-07 08:38:00,39.6,33.0,29.79,ENE,68,2.0,2.0,77,0.00,,---,0.04,VWS V14.00,2013-03-07 16:38:00,
2013-03-07 08:39:00,44.6,30.8,29.79,NE,45,3.4,3.4,58,0.00,,---,0.04,VWS V14.00,2013-03-07 16:39:00,
2013-03-07 08:40:00,44.6,31.2,29.79,NE,45,2.5,3.4,59,0.00,,---,0.04,VWS V14.00,2013-03-07 16:40:00,
2013-03-07 08:41:00,44.8,31.3,29.79,ENE,68,2.2,2.5,59,0.00,,---,0.04,VWS V14.00,2013-03-07 16:41:00,
2013-03-07 08:42:00,44.8,31.3,29.79,ESE,112,1.3,2.5,59,0.00,,---,0.04,VWS V14.00,2013-03-07 16:42:00,
2013-03-07 08:43:00,39.9,33.3,29.79,ENE,68,1.6,1.6,77,0.00,,---,0.04,VWS V14.00,2013-03-07 16:43:00,
2013-03-07 08:44:00,45.0,30.7,29.79,ESE,112,3.8,3.8,57,0.00,,---,0.04,VWS V14.00,2013-03-07 16:44:00,
2013-03-07 08:45:00,44.8,30.1,29.79,ESE,112,2.9,3.8,56,0.00,,---,0.04,VWS V14.00,2013-03-07 16:45:00,
2013-03-07 08:46:00,44.8,30.1,29.79,NE,45,3.6,3.6,56,0.00,,---,0.04,VWS V14.00,2013-03-07 16:46:00,
2013-03-07 08:47:00,45.0,30.2,29.79,NE,45,2.9,3.6,56,0.00,,---,0.04,VWS V14.00,2013-03-07 16:47:00,
2013-03-07 08:48:00,40.5,33.8,29.79,ENE,68,0.0,2.0,77,0.00,,---,0.04,VWS V14.00,2013-03-07 16:48:00,
2013-03-07 08:49:00,45.0,30.7,29.79,NE,45,2.7,2.7,57,0.00,,---,0.04,VWS V14.00,2013-03-07 16:49:00,
2013-03-07 08:50:00,45.0,30.7,29.79,NE,45,2.5,2.7,57,0.00,,---,0.04,VWS V14.00,2013-03-07 16:50:00,
2013-03-07 08:51:00,45.0,30.2,29.79,NE,45,2.9,2.9,56,0.00,,---,0.04,VWS V14.00,2013-03-07 16:51:00,
2013-03-07 08:52:00,45.0,30.7,29.79,ENE,68,0.0,2.9,57,0.00,,---,0.04,VWS V14.00,2013-03-07 16:52:00,
2013-03-07 08:53:00,45.1,30.8,29.79,ENE,68,1.6,1.6,57,0.00,,---,0.04,VWS V14.00,2013-03-07 16:53:00,
2013-03-07 08:54:00,41.0,34.0,29.79,NE,45,1.6,2.9,76,0.00,,---,0.04,VWS V14.00,2013-03-07 16:54:00,
2013-03-07 08:55:00,45.1,30.8,29.79,ENE,68,2.5,2.5,57,0.00,,---,0.04,VWS V14.00,2013-03-07 16:55:00,
2013-03-07 08:56:00,45.1,30.4,29.79,East,90,2.9,2.9,56,0.00,,---,0.04,VWS V14.00,2013-03-07 16:56:00,
2013-03-07 08:57:00,45.1,29.5,29.79,ENE,68,2.0,3.1,54,0.00,,---,0.04,VWS V14.00,2013-03-07 16:57:00,
2013-03-07 08:58:00,45.1,30.0,29.79,NE,45,1.6,2.9,55,0.00,,---,0.04,VWS V14.00,2013-03-07 16:58:00,
2013-03-07 08:59:00,41.2,33.9,29.79,ENE,68,2.2,2.7,75,0.00,,---,0.04,VWS V14.00,2013-03-07 16:59:00,
2013-03-07 09:00:00,45.3,30.1,29.79,NE,45,2.5,2.9,55,0.00,,---,0.04,VWS V14.00,2013-03-07 17:00:00,
2013-03-07 09:01:00,45.3,30.1,29.79,NE,45,0.0,2.5,55,0.00,,---,0.04,VWS V14.00,2013-03-07 17:01:00,
2013-03-07 09:02:00,45.7,30.5,29.79,NE,45,0.0,0.0,55,0.00,,---,0.04,VWS V14.00,2013-03-07 17:02:00,
2013-03-07 09:03:00,45.9,31.1,29.79,NE,45,2.0,2.9,56,0.00,,---,0.04,VWS V14.00,2013-03-07 17:03:00,
2013-03-07 09:04:00,41.7,34.1,29.79,ENE,68,2.2,2.5,74,0.00,,---,0.04,VWS V14.00,2013-03-07 17:04:00,
2013-03-07 09:05:00,46.2,31.4,29.79,ESE,112,2.9,2.9,56,0.00,,---,0.04,VWS V14.00,2013-03-07 17:05:00,
2013-03-07 09:06:00,46.2,30.0,29.79,East,90,1.6,3.6,53,0.00,,---,0.04,VWS V14.00,2013-03-07 17:06:00,
2013-03-07 09:07:00,46.2,29.6,29.79,NE,45,3.1,3.6,52,0.00,,---,0.04,VWS V14.00,2013-03-07 17:07:00,
2013-03-07 09:08:00,46.2,29.1,29.79,NNE,22,3.1,3.1,51,0.00,,---,0.04,VWS V14.00,2013-03-07 17:08:00,
2013-03-07 09:09:00,42.3,33.5,29.79,East,90,2.5,3.1,71,0.00,,---,0.04,VWS V14.00,2013-03-07 17:09:00,
2013-03-07 09:10:00,46.2,29.1,29.79,NNE,22,1.6,1.6,51,0.00,,---,0.04,VWS V14.00,2013-03-07 17:10:00,
2013-03-07 09:11:00,46.4,29.8,29.79,ESE,112,3.1,3.1,52,0.00,,---,0.04,VWS V14.00,2013-03-07 17:11:00,
2013-03-07 09:12:00,46.4,29.8,29.79,East,90,2.5,3.1,52,0.00,,---,0.04,VWS V14.00,2013-03-07 17:12:00,
2013-03-07 09:13:00,46.4,28.3,29.79,ESE,112,0.0,2.7,49,0.00,,---,0.04,VWS V14.00,2013-03-07 17:13:00,
2013-03-07 09:14:00,42.8,32.6,29.79,NE,45,2.9,3.4,67,0.00,,---,0.04,VWS V14.00,2013-03-07 17:14:00,
2013-03-07 09:15:00,46.8,28.6,29.79,NNE,22,2.5,3.4,49,0.00,,---,0.04,VWS V14.00,2013-03-07 17:15:00,
2013-03-07 09:16:00,46.8,27.6,29.79,North,0,3.1,3.1,47,0.00,,---,0.04,VWS V14.00,2013-03-07 17:16:00,
2013-03-07 09:17:00,46.8,26.6,29.79,North,0,2.0,3.4,45,0.00,,---,0.04,VWS V14.00,2013-03-07 17:17:00,
2013-03-07 09:18:00,46.8,28.6,29.79,NNW,338,2.5,2.5,49,0.00,,---,0.04,VWS V14.00,2013-03-07 17:18:00,
2013-03-07 09:19:00,43.3,33.1,29.79,ENE,68,2.5,2.7,67,0.00,,---,0.04,VWS V14.00,2013-03-07 17:19:00,
2013-03-07 09:20:00,46.9,28.8,29.79,NNW,338,0.0,0.9,49,0.00,,---,0.04,VWS V14.00,2013-03-07 17:20:00,
2013-03-07 09:21:00,47.1,29.5,29.79,NNW,338,0.0,0.0,50,0.00,,---,0.04,VWS V14.00,2013-03-07 17:21:00,
2013-03-07 09:22:00,47.3,28.6,29.79,NNE,22,2.9,2.9,48,0.00,,---,0.04,VWS V14.00,2013-03-07 17:22:00,
2013-03-07 09:23:00,47.1,27.9,29.79,NNE,22,2.2,2.9,47,0.00,,---,0.04,VWS V14.00,2013-03-07 17:23:00,
2013-03-07 09:24:00,43.7,32.0,29.79,East,90,1.6,2.5,63,0.00,,---,0.04,VWS V14.00,2013-03-07 17:24:00,
2013-03-07 09:25:00,46.9,28.3,29.79,NE,45,3.1,3.6,48,0.00,,---,0.04,VWS V14.00,2013-03-07 17:25:00,
2013-03-07 09:26:00,47.1,28.5,29.79,NE,45,2.5,3.1,48,0.00,,---,0.04,VWS V14.00,2013-03-07 17:26:00,
2013-03-07 09:27:00,47.1,28.5,29.79,NNE,22,1.6,2.5,48,0.00,,---,0.04,VWS V14.00,2013-03-07 17:27:00,
2013-03-07 09:28:00,46.9,28.3,29.79,NW,315,2.7,2.7,48,0.00,,---,0.04,VWS V14.00,2013-03-07 17:28:00,
2013-03-07 09:29:00,44.2,30.8,29.79,ESE,112,2.5,2.9,59,0.00,,---,0.04,VWS V14.00,2013-03-07 17:29:00,
2013-03-07 09:30:00,46.9,28.3,29.79,North,0,2.7,2.7,48,0.00,,---,0.04,VWS V14.00,2013-03-07 17:30:00,
2013-03-07 09:31:00,46.9,28.3,29.79,NNE,22,1.6,2.7,48,0.00,,---,0.04,VWS V14.00,2013-03-07 17:31:00,
2013-03-07 09:32:00,46.8,28.1,29.79,ENE,68,1.6,2.2,48,0.00,,---,0.04,VWS V14.00,2013-03-07 17:32:00,
2013-03-07 09:33:00,46.8,28.1,29.79,East,90,2.5,2.5,48,0.00,,---,0.04,VWS V14.00,2013-03-07 17:33:00,
2013-03-07 09:34:00,44.6,31.2,29.79,East,90,2.9,2.9,59,0.00,,---,0.04,VWS V14.00,2013-03-07 17:34:00,
2013-03-07 09:35:00,46.8,28.1,29.79,ESE,112,0.0,0.9,48,0.00,,---,0.04,VWS V14.00,2013-03-07 17:35:00,
2013-03-07 09:36:00,46.8,27.6,29.79,ESE,112,2.7,2.7,47,0.00,,---,0.04,VWS V14.00,2013-03-07 17:36:00,
2013-03-07 09:37:00,46.6,27.5,29.79,East,90,2.0,3.4,47,0.00,,---,0.04,VWS V14.00,2013-03-07 17:37:00,
2013-03-07 09:38:00,46.6,27.5,29.79,NE,45,2.0,2.5,47,0.00,,---,0.04,VWS V14.00,2013-03-07 17:38:00,
2013-03-07 09:39:00,45.0,31.5,29.79,ESE,112,1.3,1.6,59,0.00,,---,0.04,VWS V14.00,2013-03-07 17:39:00,
2013-03-07 09:40:00,46.8,28.1,29.79,NE,45,1.6,1.6,48,0.00,,---,0.04,VWS V14.00,2013-03-07 17:40:00,
2013-03-07 09:41:00,46.8,28.1,29.79,NNE,22,2.5,2.7,48,0.00,,---,0.04,VWS V14.00,2013-03-07 17:41:00,
2013-03-07 09:42:00,46.8,27.6,29.79,NNE,22,2.7,2.9,47,0.00,,---,0.04,VWS V14.00,2013-03-07 17:42:00,
2013-03-07 09:43:00,46.8,27.6,29.79,NNE,22,2.5,2.7,47,0.00,,---,0.04,VWS V14.00,2013-03-07 17:43:00,
2013-03-07 09:44:00,45.0,30.2,29.79,NE,45,0.9,2.9,56,0.00,,---,0.04,VWS V14.00,2013-03-07 17:44:00,
2013-03-07 09:45:00,46.9,28.3,29.79,NNE,22,0.0,1.6,48,0.00,,---,0.04,VWS V14.00,2013-03-07 17:45:00,
2013-03-07 09:46:00,47.1,28.5,29.79,NNE,22,0.0,1.3,48,0.00,,---,0.04,VWS V14.00,2013-03-07 17:46:00,
2013-03-07 09:47:00,47.1,28.5,29.79,NNE,22,0.0,0.0,48,0.00,,---,0.04,VWS V14.00,2013-03-07 17:47:00,
2013-03-07 09:48:00,47.3,29.1,29.79,North,0,0.9,1.3,49,0.00,,---,0.04,VWS V14.00,2013-03-07 17:48:00,
2013-03-07 09:49:00,45.1,30.8,29.79,ENE,68,1.6,1.6,57,0.00,,---,0.04,VWS V14.00,2013-03-07 17:49:00,
2013-03-07 09:50:00,47.5,28.8,29.79,North,0,2.0,2.0,48,0.00,,---,0.04,VWS V14.00,2013-03-07 17:50:00,
2013-03-07 09:51:00,47.5,28.8,29.79,North,0,2.7,2.7,48,0.00,,---,0.04,VWS V14.00,2013-03-07 17:51:00,
2013-03-07 09:52:00,47.5,29.3,29.79,NNW,338,1.3,2.7,49,0.00,,---,0.04,VWS V14.00,2013-03-07 17:52:00,
2013-03-07 09:53:00,47.5,29.3,29.76,NNW,338,0.0,1.3,49,0.00,,---,0.04,VWS V14.00,2013-03-07 17:53:00,
2013-03-07 09:54:00,45.1,30.0,29.79,NE,45,1.6,2.9,55,0.00,,---,0.04,VWS V14.00,2013-03-07 17:54:00,
2013-03-07 09:55:00,47.7,30.0,29.76,NW,315,1.1,1.6,50,0.00,,---,0.04,VWS V14.00,2013-03-07 17:55:00,
2013-03-07 09:56:00,47.7,30.0,29.76,NW,315,1.6,1.6,50,0.00,,---,0.04,VWS V14.00,2013-03-07 17:56:00,
2013-03-07 09:57:00,47.7,30.0,29.76,West,270,2.0,2.2,50,0.00,,---,0.04,VWS V14.00,2013-03-07 17:57:00,
2013-03-07 09:58:00,47.5,30.3,29.76,SW,225,4.3,4.3,51,0.00,,---,0.04,VWS V14.00,2013-03-07 17:58:00,
2013-03-07 09:59:00,45.9,31.1,29.79,NE,45,2.0,2.9,56,0.00,,---,0.04,VWS V14.00,2013-03-07 17:59:00,
2013-03-07 10:00:00,47.3,29.6,29.76,SW,225,0.9,2.2,50,0.00,,---,0.04,VWS V14.00,2013-03-07 18:00:00,
2013-03-07 10:01:00,47.3,29.6,29.76,SW,225,3.1,3.1,50,0.00,,---,0.04,VWS V14.00,2013-03-07 18:01:00,
2013-03-07 10:02:00,47.3,30.1,29.76,SW,225,1.3,3.1,51,0.00,,---,0.04,VWS V14.00,2013-03-07 18:02:00,
2013-03-07 10:03:00,47.3,30.1,29.76,WSW,248,2.0,2.7,51,0.00,,---,0.04,VWS V14.00,2013-03-07 18:03:00,
2013-03-07 10:04:00,46.2,29.1,29.79,NNE,22,3.1,3.1,51,0.00,,---,0.04,VWS V14.00,2013-03-07 18:04:00,
2013-03-07 10:05:00,47.3,30.1,29.76,West,270,1.6,2.5,51,0.00,,---,0.04,VWS V14.00,2013-03-07 18:05:00,
2013-03-07 10:06:00,47.3,30.1,29.76,WNW,292,1.3,2.0,51,0.00,,---,0.04,VWS V14.00,2013-03-07 18:06:00,
2013-03-07 10:07:00,47.3,30.6,29.76,WNW,292,1.6,1.6,52,0.00,,---,0.04,VWS V14.00,2013-03-07 18:07:00,
2013-03-07 10:08:00,47.3,30.6,29.79,WNW,292,3.1,3.4,52,0.00,,---,0.04,VWS V14.00,2013-03-07 18:08:00,
2013-03-07 10:09:00,47.3,30.6,29.79,WNW,292,2.7,3.1,52,0.00,,---,0.04,VWS V14.00,2013-03-07 18:09:00,
2013-03-07 10:10:00,46.4,28.3,29.79,ENE,68,1.1,1.6,49,0.00,,---,0.04,VWS V14.00,2013-03-07 18:10:00,
2013-03-07 10:11:00,47.3,30.6,29.79,WNW,292,1.3,3.1,52,0.00,,---,0.04,VWS V14.00,2013-03-07 18:11:00,
2013-03-07 10:12:00,47.3,30.6,29.79,WSW,248,1.6,2.5,52,0.00,,---,0.04,VWS V14.00,2013-03-07 18:12:00,
2013-03-07 10:13:00,47.3,30.6,29.79,WSW,248,1.6,2.7,52,0.00,,---,0.04,VWS V14.00,2013-03-07 18:13:00,
2013-03-07 10:14:00,47.5,30.8,29.79,WSW,248,2.0,2.2,52,0.00,,---,0.04,VWS V14.00,2013-03-07 18:14:00,
2013-03-07 10:15:00,46.8,28.6,29.79,NNW,338,0.9,2.5,49,0.00,,---,0.04,VWS V14.00,2013-03-07 18:15:00,
2013-03-07 10:16:00,47.7,30.9,29.79,WNW,292,1.6,1.6,52,0.00,,---,0.04,VWS V14.00,2013-03-07 18:16:00,
2013-03-07 10:17:00,47.7,30.9,29.79,WNW,292,3.1,3.1,52,0.00,,---,0.04,VWS V14.00,2013-03-07 18:17:00,
2013-03-07 10:18:00,47.7,30.9,29.79,WNW,292,2.0,3.1,52,0.00,,---,0.04,VWS V14.00,2013-03-07 18:18:00,
2013-03-07 10:19:00,47.7,30.9,29.79,WSW,248,1.1,2.0,52,0.00,,---,0.04,VWS V14.00,2013-03-07 18:19:00,
2013-03-07 10:20:00,47.1,27.9,29.79,NE,45,3.6,3.6,47,0.00,,---,0.04,VWS V14.00,2013-03-07 18:20:00,
2013-03-07 10:21:00,47.7,30.9,29.79,WNW,292,2.5,2.5,52,0.00,,---,0.04,VWS V14.00,2013-03-07 18:21:00,
2013-03-07 10:22:00,48.0,31.2,29.79,WNW,292,0.0,2.5,52,0.00,,---,0.04,VWS V14.00,2013-03-07 18:22:00,
2013-03-07 10:23:00,48.2,30.9,29.76,NW,315,2.5,2.5,51,0.00,,---,0.04,VWS V14.00,2013-03-07 18:23:00,
2013-03-07 10:24:00,48.2,30.9,29.76,NW,315,0.0,2.5,51,0.00,,---,0.04,VWS V14.00,2013-03-07 18:24:00,
2013-03-07 10:25:00,46.9,28.3,29.79,WNW,292,2.5,2.7,48,0.00,,---,0.04,VWS V14.00,2013-03-07 18:25:00,
2013-03-07 10:26:00,48.6,31.3,29.76,NW,315,0.9,3.1,51,0.00,,---,0.04,VWS V14.00,2013-03-07 18:26:00,
2013-03-07 10:27:00,48.6,31.3,29.76,NNW,338,1.1,2.5,51,0.00,,---,0.04,VWS V14.00,2013-03-07 18:27:00,
2013-03-07 10:28:00,48.7,31.4,29.76,NNW,338,1.3,2.0,51,0.00,,---,0.04,VWS V14.00,2013-03-07 18:28:00,
2013-03-07 10:29:00,48.9,31.6,29.76,NNW,338,0.0,1.3,51,0.00,,---,0.04,VWS V14.00,2013-03-07 18:29:00,
2013-03-07 10:30:00,46.8,27.6,29.79,ESE,112,1.6,2.5,47,0.00,,---,0.04,VWS V14.00,2013-03-07 18:30:00,
2013-03-07 10:31:00,49.3,31.9,29.76,NNW,338,3.1,3.1,51,0.00,,---,0.04,VWS V14.00,2013-03-07 18:31:00,
2013-03-07 10:32:00,49.3,31.5,29.76,WNW,292,2.7,3.1,50,0.00,,---,0.04,VWS V14.00,2013-03-07 18:32:00,
2013-03-07 10:33:00,49.5,31.6,29.76,SW,225,1.1,2.7,50,0.00,,---,0.04,VWS V14.00,2013-03-07 18:33:00,
2013-03-07 10:34:00,49.5,31.6,29.76,SW,225,2.9,3.6,50,0.00,,---,0.04,VWS V14.00,2013-03-07 18:34:00,
2013-03-07 10:35:00,46.6,28.0,29.79,NE,45,1.6,2.0,48,0.00,,---,0.04,VWS V14.00,2013-03-07 18:35:00,
2013-03-07 10:36:00,49.6,31.8,29.76,NNW,338,3.8,3.8,50,0.00,,---,0.04,VWS V14.00,2013-03-07 18:36:00,
2013-03-07 10:37:00,49.6,30.8,29.76,WNW,292,3.1,3.8,48,0.00,,---,0.04,VWS V14.00,2013-03-07 18:37:00,
2013-03-07 10:38:00,49.6,30.8,29.79,WSW,248,1.6,3.6,48,0.00,,---,0.04,VWS V14.00,2013-03-07 18:38:00,
2013-03-07 10:39:00,49.6,30.8,29.79,WSW,248,2.9,3.6,48,0.00,,---,0.04,VWS V14.00,2013-03-07 18:39:00,
2013-03-07 10:40:00,46.9,27.8,29.79,NNE,22,2.0,2.5,47,0.00,,---,0.04,VWS V14.00,2013-03-07 18:40:00,
2013-03-07 10:41:00,49.6,30.8,29.79,WNW,292,1.6,2.5,48,0.00,,---,0.04,VWS V14.00,2013-03-07 18:41:00,
2013-03-07 10:42:00,49.6,30.8,29.79,West,270,2.0,2.9,48,0.00,,---,0.04,VWS V14.00,2013-03-07 18:42:00,
2013-03-07 10:43:00,49.8,30.9,29.79,NW,315,2.7,3.6,48,0.00,,---,0.04,VWS V14.00,2013-03-07 18:43:00,
2013-03-07 10:44:00,50.0,30.6,29.79,NNW,338,3.1,3.1,47,0.00,,---,0.04,VWS V14.00,2013-03-07 18:44:00,
2013-03-07 10:45:00,47.3,29.1,29.79,North,0,0.9,1.1,49,0.00,,---,0.04,VWS V14.00,2013-03-07 18:45:00,
2013-03-07 10:46:00,50.0,30.6,29.79,WNW,292,0.9,1.6,47,0.00,,---,0.04,VWS V14.00,2013-03-07 18:46:00,
2013-03-07 10:47:00,50.0,30.6,29.79,NNW,338,0.0,2.0,47,0.00,,---,0.04,VWS V14.00,2013-03-07 18:47:00,
2013-03-07 10:48:00,50.0,30.6,29.79,NNW,338,1.3,1.6,47,0.00,,---,0.04,VWS V14.00,2013-03-07 18:48:00,
2013-03-07 10:49:00,50.0,30.6,29.79,WNW,292,1.6,3.1,47,0.00,,---,0.04,VWS V14.00,2013-03-07 18:49:00,
2013-03-07 10:50:00,47.5,29.8,29.76,NNW,338,0.0,0.0,50,0.00,,---,0.04,VWS V14.00,2013-03-07 18:50:00,
2013-03-07 10:51:00,50.2,30.8,29.79,SSW,202,3.6,3.6,47,0.00,,---,0.04,VWS V14.00,2013-03-07 18:51:00,
2013-03-07 10:52:00,50.0,28.4,29.79,NNW,338,2.9,3.6,43,0.00,,---,0.04,VWS V14.00,2013-03-07 18:52:00,
2013-03-07 10:53:00,50.0,28.4,29.79,NNW,338,2.5,3.4,43,0.00,,---,0.04,VWS V14.00,2013-03-07 18:53:00,
2013-03-07 10:54:00,50.0,28.4,29.79,NNW,338,0.9,3.1,43,0.00,,---,0.04,VWS V14.00,2013-03-07 18:54:00,
2013-03-07 10:55:00,47.3,29.6,29.76,SW,225,2.2,4.3,50,0.00,,---,0.04,VWS V14.00,2013-03-07 18:55:00,
2013-03-07 10:56:00,50.0,27.8,29.79,North,0,1.1,3.6,42,0.00,,---,0.04,VWS V14.00,2013-03-07 18:56:00,
2013-03-07 10:57:00,50.0,28.4,29.79,NNE,22,2.5,2.9,43,0.00,,---,0.04,VWS V14.00,2013-03-07 18:57:00,
2013-03-07 10:58:00,50.0,29.0,29.79,NNE,22,5.6,5.6,44,0.00,,---,0.04,VWS V14.00,2013-03-07 18:58:00,
2013-03-07 10:59:00,50.0,27.8,29.79,NNE,22,2.7,5.6,42,0.00,,---,0.04,VWS V14.00,2013-03-07 18:59:00,
2013-03-07 11:00:00,47.3,30.1,29.76,West,270,2.5,2.5,51,0.00,,---,0.04,VWS V14.00,2013-03-07 19:00:00,
2013-03-07 11:01:00,50.0,28.4,29.79,NNW,338,1.3,3.4,43,0.00,,---,0.04,VWS V14.00,2013-03-07 19:01:00,
2013-03-07 11:02:00,50.4,28.7,29.79,NW,315,2.7,2.7,43,0.00,,---,0.04,VWS V14.00,2013-03-07 19:02:00,
2013-03-07 11:03:00,50.4,28.7,29.79,North,0,3.4,3.4,43,0.00,,---,0.04,VWS V14.00,2013-03-07 19:03:00,
2013-03-07 11:04:00,50.4,28.7,29.79,SSW,202,2.7,3.4,43,0.00,,---,0.04,VWS V14.00,2013-03-07 19:04:00,
2013-03-07 11:05:00,50.4,28.7,29.79,SSW,202,0.0,3.1,43,0.00,,---,0.04,VWS V14.00,2013-03-07 19:05:00,
2013-03-07 11:06:00,47.3,30.6,29.79,WNW,292,2.5,2.7,52,0.00,,---,0.04,VWS V14.00,2013-03-07 19:06:00,
2013-03-07 11:07:00,50.5,28.9,29.79,SSE,158,1.3,2.5,43,0.00,,---,0.04,VWS V14.00,2013-03-07 19:07:00,
2013-03-07 11:08:00,50.7,29.6,29.76,South,180,1.1,2.5,44,0.00,,---,0.04,VWS V14.00,2013-03-07 19:08:00,
2013-03-07 11:09:00,50.7,27.9,29.76,SSW,202,2.2,3.4,41,0.00,,---,0.04,VWS V14.00,2013-03-07 19:09:00,
2013-03-07 11:10:00,50.7,28.5,29.76,NNW,338,2.7,2.7,42,0.00,,---,0.04,VWS V14.00,2013-03-07 19:10:00,
2013-03-07 11:11:00,47.5,30.8,29.79,WSW,248,0.9,2.0,52,0.00,,---,0.04,VWS V14.00,2013-03-07 19:11:00,
2013-03-07 11:12:00,50.5,28.9,29.76,SSE,158,2.9,3.1,43,0.00,,---,0.04,VWS V14.00,2013-03-07 19:12:00,
2013-03-07 11:13:00,50.5,28.9,29.76,SSE,158,5.8,5.8,43,0.00,,---,0.04,VWS V14.00,2013-03-07 19:13:00,
2013-03-07 11:14:00,50.4,26.4,29.76,SE,135,6.5,6.5,39,0.00,,---,0.04,VWS V14.00,2013-03-07 19:14:00,
2013-03-07 11:15:00,50.2,26.2,29.76,SSE,158,4.9,6.5,39,0.00,,---,0.04,VWS V14.00,2013-03-07 19:15:00,
2013-03-07 11:16:00,47.7,30.4,29.79,WSW,248,1.1,1.1,51,0.00,,---,0.04,VWS V14.00,2013-03-07 19:16:00,
2013-03-07 11:17:00,49.8,26.5,29.76,WSW,248,2.5,3.4,40,0.00,,---,0.04,VWS V14.00,2013-03-07 19:17:00,
2013-03-07 11:18:00,49.8,26.5,29.76,NW,315,2.0,3.4,40,0.00,,---,0.04,VWS V14.00,2013-03-07 19:18:00,
2013-03-07 11:19:00,49.8,26.5,29.76,NNW,338,2.0,2.0,40,0.00,,---,0.04,VWS V14.00,2013-03-07 19:19:00,
2013-03-07 11:20:00,49.8,26.5,29.76,North,0,1.1,2.9,40,0.00,,---,0.04,VWS V14.00,2013-03-07 19:20:00,
2013-03-07 11:21:00,48.4,31.1,29.76,NW,315,2.0,2.0,51,0.00,,---,0.04,VWS V14.00,2013-03-07 19:21:00,
2013-03-07 11:22:00,50.5,28.3,29.76,WSW,248,3.8,3.8,42,0.00,,---,0.04,VWS V14.00,2013-03-07 19:22:00,
2013-03-07 11:23:00,50.7,29.1,29.76,WSW,248,1.3,3.8,43,0.00,,---,0.04,VWS V14.00,2013-03-07 19:23:00,
2013-03-07 11:24:00,50.9,28.6,29.76,West,270,0.0,2.9,42,0.00,,---,0.04,VWS V14.00,2013-03-07 19:24:00,
2013-03-07 11:25:00,50.9,28.6,29.76,SW,225,1.1,1.3,42,0.00,,---,0.04,VWS V14.00,2013-03-07 19:25:00,
2013-03-07 11:26:00,48.9,31.6,29.76,NNW,338,0.0,0.0,51,0.00,,---,0.04,VWS V14.00,2013-03-07 19:26:00,
2013-03-07 11:27:00,51.1,28.8,29.76,SSW,202,4.0,4.0,42,0.00,,---,0.04,VWS V14.00,2013-03-07 19:27:00,
2013-03-07 11:28:00,50.9,27.5,29.76,South,180,4.3,5.4,40,0.00,,---,0.04,VWS V14.00,2013-03-07 19:28:00,
2013-03-07 11:29:00,50.7,26.7,29.76,SSW,202,4.7,4.7,39,0.00,,---,0.04,VWS V14.00,2013-03-07 19:29:00,
2013-03-07 11:30:00,50.7,26.7,29.76,SSW,202,4.7,4.7,39,0.00,,---,0.04,VWS V14.00,2013-03-07 19:30:00,
2013-03-07 11:31:00,49.6,31.8,29.76,SSW,202,2.2,2.9,50,0.00,,---,0.04,VWS V14.00,2013-03-07 19:31:00,
2013-03-07 11:32:00,50.7,27.3,29.76,South,180,3.6,3.6,40,0.00,,---,0.04,VWS V14.00,2013-03-07 19:32:00,
2013-03-07 11:33:00,50.4,25.7,29.76,SSE,158,3.6,5.8,38,0.00,,---,0.04,VWS V14.00,2013-03-07 19:33:00,
2013-03-07 11:34:00,50.4,25.7,29.76,SSE,158,2.7,4.0,38,0.00,,---,0.04,VWS V14.00,2013-03-07 19:34:00,
2013-03-07 11:35:00,50.5,26.5,29.76,ESE,112,4.3,4.3,39,0.00,,---,0.04,VWS V14.00,2013-03-07 19:35:00,
2013-03-07 11:36:00,50.7,27.3,29.76,SSW,202,3.1,4.5,40,0.00,,---,0.04,VWS V14.00,2013-03-07 19:36:00,
2013-03-07 11:37:00,49.6,30.8,29.79,WNW,292,1.6,2.5,48,0.00,,---,0.04,VWS V14.00,2013-03-07 19:37:00,
2013-03-07 11:38:00,50.5,26.5,29.76,SSW,202,3.6,6.0,39,0.00,,---,0.04,VWS V14.00,2013-03-07 19:38:00,
2013-03-07 11:39:00,50.4,26.4,29.76,SSW,202,3.6,4.0,39,0.00,,---,0.04,VWS V14.00,2013-03-07 19:39:00,
2013-03-07 11:40:00,50.4,26.4,29.76,SSW,202,2.2,4.5,39,0.00,,---,0.04,VWS V14.00,2013-03-07 19:40:00,
2013-03-07 11:41:00,50.4,26.4,29.76,South,180,2.0,2.5,39,0.00,,---,0.04,VWS V14.00,2013-03-07 19:41:00,
2013-03-07 11:42:00,50.0,30.6,29.79,WNW,292,0.9,1.6,47,0.00,,---,0.04,VWS V14.00,2013-03-07 19:42:00,
2013-03-07 11:43:00,50.0,26.6,29.76,WNW,292,1.6,4.0,40,0.00,,---,0.04,VWS V14.00,2013-03-07 19:43:00,
2013-03-07 11:44:00,50.0,27.2,29.76,WNW,292,0.9,3.6,41,0.00,,---,0.04,VWS V14.00,2013-03-07 19:44:00,
2013-03-07 11:45:00,50.0,27.2,29.76,WSW,248,2.5,2.7,41,0.00,,---,0.04,VWS V14.00,2013-03-07 19:45:00,
2013-03-07 11:46:00,50.0,27.2,29.76,NNW,338,3.1,3.8,41,0.00,,---,0.04,VWS V14.00,2013-03-07 19:46:00,
2013-03-07 11:47:00,49.8,27.1,29.76,NNW,338,0.0,3.1,41,0.00,,---,0.04,VWS V14.00,2013-03-07 19:47:00,
2013-03-07 11:48:00,50.0,28.4,29.79,WNW,292,2.7,3.6,43,0.00,,---,0.04,VWS V14.00,2013-03-07 19:48:00,
2013-03-07 11:49:00,49.8,27.7,29.76,SSW,202,2.5,2.5,42,0.00,,---,0.04,VWS V14.00,2013-03-07 19:49:00,
2013-03-07 11:50:00,49.6,26.9,29.76,SSE,158,2.0,4.7,41,0.00,,---,0.04,VWS V14.00,2013-03-07 19:50:00,
2013-03-07 11:51:00,49.5,26.8,29.76,SW,225,2.7,3.1,41,0.00,,---,0.04,VWS V14.00,2013-03-07 19:51:00,
2013-03-07 11:52:00,49.5,26.8,29.76,SSW,202,1.6,3.1,41,0.00,,---,0.04,VWS V14.00,2013-03-07 19:52:00,
2013-03-07 11:53:00,50.0,28.4,29.79,NNE,22,2.5,2.9,43,0.00,,---,0.04,VWS V14.00,2013-03-07 19:53:00,
2013-03-07 11:54:00,49.5,27.3,29.76,WSW,248,0.0,2.2,42,0.00,,---,0.04,VWS V14.00,2013-03-07 19:54:00,
2013-03-07 11:55:00,49.3,27.2,29.76,WSW,248,0.0,0.0,42,0.00,,---,0.04,VWS V14.00,2013-03-07 19:55:00,
2013-03-07 11:56:00,49.5,27.3,29.76,WSW,248,0.0,0.0,42,0.00,,---,0.04,VWS V14.00,2013-03-07 19:56:00,
2013-03-07 11:57:00,49.5,27.9,29.76,West,270,1.3,2.0,43,0.00,,---,0.04,VWS V14.00,2013-03-07 19:57:00,
2013-03-07 11:58:00,50.4,28.7,29.79,NNW,338,0.9,2.2,43,0.00,,---,0.04,VWS V14.00,2013-03-07 19:58:00,
2013-03-07 11:59:00,49.5,27.9,29.76,SW,225,2.7,2.7,43,0.00,,---,0.04,VWS V14.00,2013-03-07 19:59:00,
2013-03-07 12:00:00,49.6,28.1,29.76,SSW,202,2.2,2.7,43,0.00,,---,0.04,VWS V14.00,2013-03-07 20:00:00,
2013-03-07 12:01:00,49.6,28.1,29.76,South,180,1.6,2.2,43,0.00,,---,0.04,VWS V14.00,2013-03-07 20:01:00,
2013-03-07 12:02:00,49.6,27.5,29.76,SSW,202,2.0,3.6,42,0.00,,---,0.04,VWS V14.00,2013-03-07 20:02:00,
2013-03-07 12:03:00,50.5,28.9,29.79,SSE,158,1.3,2.5,43,0.00,,---,0.04,VWS V14.00,2013-03-07 20:03:00,
2013-03-07 12:04:00,49.6,27.5,29.76,SSW,202,4.0,4.0,42,0.00,,---,0.04,VWS V14.00,2013-03-07 20:04:00,
2013-03-07 12:05:00,49.5,26.8,29.76,SW,225,0.0,4.0,41,0.00,,---,0.04,VWS V14.00,2013-03-07 20:05:00,
2013-03-07 12:06:00,49.6,26.9,29.76,WSW,248,0.0,1.1,41,0.00,,---,0.04,VWS V14.00,2013-03-07 20:06:00,
2013-03-07 12:07:00,49.6,27.5,29.76,West,270,1.6,1.6,42,0.00,,---,0.04,VWS V14.00,2013-03-07 20:07:00,
2013-03-07 12:08:00,50.5,28.9,29.76,SE,135,3.1,3.1,43,0.00,,---,0.04,VWS V14.00,2013-03-07 20:08:00,
2013-03-07 12:09:00,49.6,28.1,29.76,North,0,1.1,2.9,43,0.00,,---,0.04,VWS V14.00,2013-03-07 20:09:00,
2013-03-07 12:10:00,49.6,27.5,29.76,WSW,248,1.1,3.6,42,0.00,,---,0.04,VWS V14.00,2013-03-07 20:10:00,
2013-03-07 12:11:00,49.8,28.2,29.76,WSW,248,1.1,2.5,43,0.00,,---,0.04,VWS V14.00,2013-03-07 20:11:00,
2013-03-07 12:12:00,49.8,28.2,29.76,WNW,292,1.6,2.2,43,0.00,,---,0.04,VWS V14.00,2013-03-07 20:12:00,
2013-03-07 12:13:00,49.8,26.5,29.76,WSW,248,2.5,3.4,40,0.00,,---,0.04,VWS V14.00,2013-03-07 20:13:00,
2013-03-07 12:14:00,50.0,28.4,29.76,NNW,338,1.1,2.0,43,0.00,,---,0.04,VWS V14.00,2013-03-07 20:14:00,
2013-03-07 12:15:00,50.0,28.4,29.76,North,0,0.0,1.3,43,0.00,,---,0.04,VWS V14.00,2013-03-07 20:15:00,
2013-03-07 12:16:00,50.0,28.4,29.76,South,180,3.1,3.1,43,0.00,,---,0.04,VWS V14.00,2013-03-07 20:16:00,
2013-03-07 12:17:00,50.0,27.8,29.76,South,180,2.9,3.1,42,0.00,,---,0.04,VWS V14.00,2013-03-07 20:17:00,
2013-03-07 12:18:00,50.5,28.3,29.76,SW,225,2.5,2.5,42,0.00,,---,0.04,VWS V14.00,2013-03-07 20:18:00,
2013-03-07 12:19:00,50.2,28.0,29.76,North,0,1.3,2.5,42,0.00,,---,0.04,VWS V14.00,2013-03-07 20:19:00,
2013-03-07 12:20:00,50.4,28.7,29.76,WNW,292,2.9,2.9,43,0.00,,---,0.04,VWS V14.00,2013-03-07 20:20:00,
2013-03-07 12:21:00,50.5,28.9,29.76,SW,225,5.8,5.8,43,0.00,,---,0.04,VWS V14.00,2013-03-07 20:21:00,
2013-03-07 12:22:00,50.5,27.7,29.76,SSW,202,1.1,5.8,41,0.00,,---,0.04,VWS V14.00,2013-03-07 20:22:00,
2013-03-07 12:23:00,51.1,28.8,29.76,SSW,202,4.0,4.0,42,0.00,,---,0.04,VWS V14.00,2013-03-07 20:23:00,
2013-03-07 12:24:00,50.5,27.7,29.76,SSW,202,1.6,4.7,41,0.00,,---,0.04,VWS V14.00,2013-03-07 20:24:00,
2013-03-07 12:25:00,50.7,28.5,29.76,SSW,202,0.0,2.2,42,0.00,,---,0.04,VWS V14.00,2013-03-07 20:25:00,
2013-03-07 12:26:00,50.7,28.5,29.76,South,180,4.0,4.3,42,0.00,,---,0.04,VWS V14.00,2013-03-07 20:26:00,
2013-03-07 12:27:00,50.7,27.3,29.76,South,180,3.6,4.5,40,0.00,,---,0.04,VWS V14.00,2013-03-07 20:27:00,
2013-03-07 12:28:00,50.7,27.3,29.76,South,180,3.6,3.6,40,0.00,,---,0.04,VWS V14.00,2013-03-07 20:28:00,
2013-03-07 12:29:00,50.5,27.1,29.76,South,180,2.9,4.7,40,0.00,,---,0.04,VWS V14.00,2013-03-07 20:29:00,
2013-03-07 12:30:00,50.7,27.3,29.76,SSW,202,2.7,3.6,40,0.00,,---,0.04,VWS V14.00,2013-03-07 20:30:00,
2013-03-07 12:31:00,50.9,27.5,29.76,SSW,202,3.6,3.6,40,0.00,,---,0.04,VWS V14.00,2013-03-07 20:31:00,
2013-03-07 12:32:00,50.9,27.5,29.76,SSW,202,0.0,3.8,40,0.00,,---,0.04,VWS V14.00,2013-03-07 20:32:00,
2013-03-07 12:33:00,50.7,27.3,29.76,SW,225,4.0,4.9,40,0.00,,---,0.04,VWS V14.00,2013-03-07 20:33:00,
2013-03-07 12:34:00,51.1,27.6,29.76,East,90,2.7,2.7,40,0.00,,---,0.04,VWS V14.00,2013-03-07 20:34:00,
2013-03-07 12:35:00,51.1,27.6,29.76,ENE,68,1.3,3.1,40,0.00,,---,0.04,VWS V14.00,2013-03-07 20:35:00,
2013-03-07 12:36:00,51.1,27.6,29.76,South,180,3.6,3.6,40,0.00,,---,0.04,VWS V14.00,2013-03-07 20:36:00,
2013-03-07 12:37:00,51.1,27.6,29.76,NNE,22,2.0,3.6,40,0.00,,---,0.04,VWS V14.00,2013-03-07 20:37:00,
2013-03-07 12:38:00,51.1,28.2,29.74,NE,45,1.1,2.9,41,0.00,,---,0.04,VWS V14.00,2013-03-07 20:38:00,
2013-03-07 12:39:00,50.0,26.6,29.76,SW,225,4.0,4.0,40,0.00,,---,0.04,VWS V14.00,2013-03-07 20:39:00,
2013-03-07 12:40:00,50.9,26.8,29.74,SSW,202,2.9,5.4,39,0.00,,---,0.04,VWS V14.00,2013-03-07 20:40:00,
2013-03-07 12:41:00,50.9,26.8,29.74,SW,225,4.5,4.5,39,0.00,,---,0.04,VWS V14.00,2013-03-07 20:41:00,
2013-03-07 12:42:00,51.1,27.0,29.74,South,180,3.4,4.7,39,0.00,,---,0.04,VWS V14.00,2013-03-07 20:42:00,
2013-03-07 12:43:00,51.1,27.0,29.74,SSE,158,1.1,4.0,39,0.00,,---,0.04,VWS V14.00,2013-03-07 20:43:00,
2013-03-07 12:44:00,49.8,27.1,29.76,NNW,338,0.9,0.9,41,0.00,,---,0.04,VWS V14.00,2013-03-07 20:44:00,
2013-03-07 12:45:00,51.6,28.1,29.74,WNW,292,1.3,1.3,40,0.00,,---,0.04,VWS V14.00,2013-03-07 20:45:00,
2013-03-07 12:46:00,51.6,28.1,29.74,NNW,338,1.3,2.2,40,0.00,,---,0.04,VWS V14.00,2013-03-07 20:46:00,
2013-03-07 12:47:00,51.8,27.6,29.74,SW,225,2.7,3.6,39,0.00,,---,0.04,VWS V14.00,2013-03-07 20:47:00,
2013-03-07 12:48:00,51.6,27.5,29.74,NNW,338,2.0,2.7,39,0.00,,---,0.04,VWS V14.00,2013-03-07 20:48:00,
2013-03-07 12:49:00,49.5,26.8,29.76,SSW,202,2.0,2.5,41,0.00,,---,0.04,VWS V14.00,2013-03-07 20:49:00,
2013-03-07 12:50:00,51.4,27.3,29.74,West,270,0.9,2.2,39,0.00,,---,0.04,VWS V14.00,2013-03-07 20:50:00,
2013-03-07 12:51:00,51.4,27.3,29.74,SSW,202,1.6,3.1,39,0.00,,---,0.04,VWS V14.00,2013-03-07 20:51:00,
2013-03-07 12:52:00,51.3,27.2,29.74,SW,225,3.6,3.6,39,0.00,,---,0.04,VWS V14.00,2013-03-07 20:52:00,
2013-03-07 12:53:00,50.9,26.8,29.76,SSW,202,4.0,5.4,39,0.00,,---,0.04,VWS V14.00,2013-03-07 20:53:00,
2013-03-07 12:54:00,49.5,27.9,29.76,West,270,0.0,1.3,43,0.00,,---,0.04,VWS V14.00,2013-03-07 20:54:00,
2013-03-07 12:55:00,50.9,26.8,29.76,SSW,202,1.3,2.5,39,0.00,,---,0.04,VWS V14.00,2013-03-07 20:55:00,
2013-03-07 12:56:00,50.7,26.7,29.76,South,180,1.3,1.3,39,0.00,,---,0.04,VWS V14.00,2013-03-07 20:56:00,
2013-03-07 12:57:00,50.7,26.7,29.76,South,180,0.0,1.3,39,0.00,,---,0.04,VWS V14.00,2013-03-07 20:57:00,
2013-03-07 12:58:00,50.7,27.3,29.76,SSE,158,0.0,1.3,40,0.00,,---,0.04,VWS V14.00,2013-03-07 20:58:00,
2013-03-07 12:59:00,49.6,27.5,29.76,SW,225,2.5,2.7,42,0.00,,---,0.04,VWS V14.00,2013-03-07 20:59:00,
2013-03-07 13:00:00,50.7,27.3,29.76,SE,135,1.6,1.6,40,0.00,,---,0.04,VWS V14.00,2013-03-07 21:00:00,
2013-03-07 13:01:00,50.5,27.1,29.76,SSW,202,3.4,3.4,40,0.00,,---,0.04,VWS V14.00,2013-03-07 21:01:00,
2013-03-07 13:02:00,50.5,27.1,29.76,SSW,202,1.3,3.4,40,0.00,,---,0.04,VWS V14.00,2013-03-07 21:02:00,
2013-03-07 13:03:00,50.5,27.1,29.76,SSE,158,1.3,1.3,40,0.00,,---,0.04,VWS V14.00,2013-03-07 21:03:00,
2013-03-07 13:04:00,49.6,27.5,29.76,NNW,338,2.0,2.2,42,0.00,,---,0.04,VWS V14.00,2013-03-07 21:04:00,
2013-03-07 13:05:00,50.4,26.4,29.76,East,90,1.6,1.6,39,0.00,,---,0.04,VWS V14.00,2013-03-07 21:05:00,
2013-03-07 13:06:00,50.4,27.0,29.76,ENE,68,0.0,1.6,40,0.00,,---,0.04,VWS V14.00,2013-03-07 21:06:00,
2013-03-07 13:07:00,50.2,26.8,29.76,ENE,68,0.0,0.0,40,0.00,,---,0.04,VWS V14.00,2013-03-07 21:07:00,
2013-03-07 13:08:00,50.2,26.8,29.74,ESE,112,1.1,1.1,40,0.00,,---,0.04,VWS V14.00,2013-03-07 21:08:00,
2013-03-07 13:09:00,49.8,28.2,29.76,WNW,292,0.0,1.6,43,0.00,,---,0.04,VWS V14.00,2013-03-07 21:09:00,
2013-03-07 13:10:00,50.0,26.0,29.74,SSE,158,2.9,3.6,39,0.00,,---,0.04,VWS V14.00,2013-03-07 21:10:00,
2013-03-07 13:11:00,50.0,26.0,29.74,South,180,2.0,3.8,39,0.00,,---,0.04,VWS V14.00,2013-03-07 21:11:00,
2013-03-07 13:12:00,50.0,26.6,29.74,South,180,1.3,2.0,40,0.00,,---,0.04,VWS V14.00,2013-03-07 21:12:00,
2013-03-07 13:13:00,50.0,26.6,29.74,South,180,0.0,1.3,40,0.00,,---,0.04,VWS V14.00,2013-03-07 21:13:00,
2013-03-07 13:14:00,50.2,28.0,29.76,WSW,248,0.9,3.4,42,0.00,,---,0.04,VWS V14.00,2013-03-07 21:14:00,
2013-03-07 13:15:00,49.8,27.1,29.74,WNW,292,0.0,2.7,41,0.00,,---,0.04,VWS V14.00,2013-03-07 21:15:00,
2013-03-07 13:16:00,49.8,27.1,29.74,South,180,2.5,2.7,41,0.00,,---,0.04,VWS V14.00,2013-03-07 21:16:00,
2013-03-07 13:17:00,50.0,26.6,29.74,SSE,158,2.5,3.1,40,0.00,,---,0.04,VWS V14.00,2013-03-07 21:17:00,
2013-03-07 13:18:00,50.0,26.6,29.74,South,180,2.9,2.9,40,0.00,,---,0.04,VWS V14.00,2013-03-07 21:18:00,
2013-03-07 13:19:00,50.4,27.6,29.76,SSW,202,4.7,4.7,41,0.00,,---,0.04,VWS V14.00,2013-03-07 21:19:00,
2013-03-07 13:20:00,50.4,27.0,29.74,South,180,3.8,3.8,40,0.00,,---,0.04,VWS V14.00,2013-03-07 21:20:00,
2013-03-07 13:21:00,50.4,27.0,29.74,SSE,158,2.5,3.8,40,0.00,,---,0.04,VWS V14.00,2013-03-07 21:21:00,
2013-03-07 13:22:00,50.5,27.1,29.74,SSW,202,3.4,3.4,40,0.00,,---,0.04,VWS V14.00,2013-03-07 21:22:00,
2013-03-07 13:23:00,50.7,27.3,29.74,SSW,202,2.0,3.4,40,0.00,,---,0.04,VWS V14.00,2013-03-07 21:23:00,
2013-03-07 13:24:00,50.5,27.1,29.76,South,180,4.3,6.0,40,0.00,,---,0.04,VWS V14.00,2013-03-07 21:24:00,
2013-03-07 13:25:00,51.1,27.6,29.74,WSW,248,1.1,3.4,40,0.00,,---,0.04,VWS V14.00,2013-03-07 21:25:00,
2013-03-07 13:26:00,51.3,27.8,29.74,NW,315,1.3,1.6,40,0.00,,---,0.04,VWS V14.00,2013-03-07 21:26:00,
2013-03-07 13:27:00,51.3,27.8,29.74,West,270,2.7,2.9,40,0.00,,---,0.04,VWS V14.00,2013-03-07 21:27:00,
2013-03-07 13:28:00,51.4,27.9,29.74,WNW,292,3.1,3.1,40,0.00,,---,0.04,VWS V14.00,2013-03-07 21:28:00,
2013-03-07 13:29:00,51.1,27.6,29.76,SSW,202,0.9,0.9,40,0.00,,---,0.04,VWS V14.00,2013-03-07 21:29:00,
2013-03-07 13:30:00,51.4,27.9,29.74,South,180,2.0,2.0,40,0.00,,---,0.04,VWS V14.00,2013-03-07 21:30:00,
2013-03-07 13:31:00,51.6,28.1,29.74,SE,135,0.0,2.5,40,0.00,,---,0.04,VWS V14.00,2013-03-07 21:31:00,
2013-03-07 13:32:00,51.6,28.1,29.74,NNE,22,1.1,2.5,40,0.00,,---,0.04,VWS V14.00,2013-03-07 21:32:00,
2013-03-07 13:33:00,51.6,28.1,29.74,ENE,68,0.0,2.9,40,0.00,,---,0.04,VWS V14.00,2013-03-07 21:33:00,
2013-03-07 13:34:00,51.4,27.9,29.74,South,180,1.3,2.9,40,0.00,,---,0.04,VWS V14.00,2013-03-07 21:34:00,
2013-03-07 13:35:00,51.1,28.2,29.74,SSE,158,2.0,2.0,41,0.00,,---,0.04,VWS V14.00,2013-03-07 21:35:00,
2013-03-07 13:36:00,51.4,27.9,29.74,SSW,202,2.7,3.6,40,0.00,,---,0.04,VWS V14.00,2013-03-07 21:36:00,
2013-03-07 13:37:00,51.3,27.2,29.74,SE,135,3.8,4.7,39,0.00,,---,0.04,VWS V14.00,2013-03-07 21:37:00,
2013-03-07 13:38:00,51.1,27.0,29.74,SSW,202,2.7,3.8,39,0.00,,---,0.04,VWS V14.00,2013-03-07 21:38:00,
2013-03-07 13:39:00,51.1,27.0,29.74,SSW,202,2.0,2.7,39,0.00,,---,0.04,VWS V14.00,2013-03-07 21:39:00,
2013-03-07 13:40:00,51.3,27.2,29.74,SSE,158,1.1,1.1,39,0.00,,---,0.04,VWS V14.00,2013-03-07 21:40:00,
2013-03-07 13:41:00,50.5,25.9,29.74,SSW,202,4.9,5.6,38,0.00,,---,0.04,VWS V14.00,2013-03-07 21:41:00,
2013-03-07 13:42:00,50.4,25.7,29.74,SSW,202,2.5,4.9,38,0.00,,---,0.04,VWS V14.00,2013-03-07 21:42:00,
2013-03-07 13:43:00,50.5,25.9,29.74,SSW,202,0.0,2.5,38,0.00,,---,0.04,VWS V14.00,2013-03-07 21:43:00,
2013-03-07 13:44:00,50.5,26.5,29.74,SSW,202,2.5,2.5,39,0.00,,---,0.04,VWS V14.00,2013-03-07 21:44:00,
2013-03-07 13:45:00,51.6,27.5,29.74,NNE,22,1.1,2.9,39,0.00,,---,0.04,VWS V14.00,2013-03-07 21:45:00,
2013-03-07 13:46:00,50.5,26.5,29.74,SSW,202,1.3,1.6,39,0.00,,---,0.04,VWS V14.00,2013-03-07 21:46:00,
2013-03-07 13:47:00,50.4,26.4,29.74,SSW,202,2.0,2.7,39,0.00,,---,0.04,VWS V14.00,2013-03-07 21:47:00,
2013-03-07 13:48:00,50.4,26.4,29.74,SSW,202,1.6,2.2,39,0.00,,---,0.04,VWS V14.00,2013-03-07 21:48:00,
2013-03-07 13:49:00,50.4,26.4,29.74,SSE,158,2.7,2.7,39,0.00,,---,0.04,VWS V14.00,2013-03-07 21:49:00,
2013-03-07 13:50:00,50.9,26.8,29.76,South,180,2.9,4.0,39,0.00,,---,0.04,VWS V14.00,2013-03-07 21:50:00,
2013-03-07 13:51:00,50.2,26.2,29.74,WSW,248,1.6,1.6,39,0.00,,---,0.04,VWS V14.00,2013-03-07 21:51:00,
2013-03-07 13:52:00,50.2,26.2,29.74,NW,315,3.4,3.4,39,0.00,,---,0.04,VWS V14.00,2013-03-07 21:52:00,
2013-03-07 13:53:00,50.0,26.0,29.74,South,180,4.0,4.0,39,0.00,,---,0.04,VWS V14.00,2013-03-07 21:53:00,
2013-03-07 13:54:00,49.6,25.7,29.74,SSE,158,6.0,6.0,39,0.00,,---,0.04,VWS V14.00,2013-03-07 21:54:00,
2013-03-07 13:55:00,50.7,27.3,29.76,SE,135,1.3,1.3,40,0.00,,---,0.04,VWS V14.00,2013-03-07 21:55:00,
2013-03-07 13:56:00,49.5,26.2,29.74,South,180,2.2,4.3,40,0.00,,---,0.04,VWS V14.00,2013-03-07 21:56:00,
2013-03-07 13:57:00,49.5,26.2,29.74,SSW,202,1.1,2.2,40,0.00,,---,0.04,VWS V14.00,2013-03-07 21:57:00,
2013-03-07 13:58:00,49.5,26.2,29.74,South,180,0.9,2.9,40,0.00,,---,0.04,VWS V14.00,2013-03-07 21:58:00,
2013-03-07 13:59:00,49.5,26.2,29.74,South,180,0.9,2.5,40,0.00,,---,0.04,VWS V14.00,2013-03-07 21:59:00,
2013-03-07 14:00:00,50.4,26.4,29.76,SSE,158,3.1,3.1,39,0.00,,---,0.04,VWS V14.00,2013-03-07 22:00:00,
2013-03-07 14:01:00,49.3,26.0,29.74,South,180,3.4,3.6,40,0.00,,---,0.04,VWS V14.00,2013-03-07 22:01:00,
2013-03-07 14:02:00,49.1,25.8,29.74,SSW,202,3.1,3.8,40,0.00,,---,0.04,VWS V14.00,2013-03-07 22:02:00,
2013-03-07 14:03:00,49.1,25.8,29.74,SSW,202,1.6,3.1,40,0.00,,---,0.04,VWS V14.00,2013-03-07 22:03:00,
2013-03-07 14:04:00,49.1,25.8,29.74,SSW,202,0.9,2.0,40,0.00,,---,0.04,VWS V14.00,2013-03-07 22:04:00,
2013-03-07 14:05:00,50.2,26.8,29.74,South,180,2.5,2.5,40,0.00,,---,0.04,VWS V14.00,2013-03-07 22:05:00,
2013-03-07 14:06:00,49.1,26.4,29.74,SW,225,1.3,1.3,41,0.00,,---,0.04,VWS V14.00,2013-03-07 22:06:00,
2013-03-07 14:07:00,48.9,26.3,29.74,WSW,248,0.0,1.6,41,0.00,,---,0.04,VWS V14.00,2013-03-07 22:07:00,
2013-03-07 14:08:00,48.9,26.3,29.74,WSW,248,0.0,1.6,41,0.00,,---,0.04,VWS V14.00,2013-03-07 22:08:00,
2013-03-07 14:09:00,48.9,26.3,29.74,SSW,202,1.6,2.0,41,0.00,,---,0.04,VWS V14.00,2013-03-07 22:09:00,
2013-03-07 14:10:00,50.0,26.6,29.74,WNW,292,3.4,3.4,40,0.00,,---,0.04,VWS V14.00,2013-03-07 22:10:00,
2013-03-07 14:11:00,48.7,26.1,29.74,South,180,3.6,4.3,41,0.00,,---,0.04,VWS V14.00,2013-03-07 22:11:00,
2013-03-07 14:12:00,48.7,26.1,29.74,SSW,202,2.5,3.6,41,0.00,,---,0.04,VWS V14.00,2013-03-07 22:12:00,
2013-03-07 14:13:00,48.6,26.0,29.74,South,180,2.7,2.7,41,0.00,,---,0.04,VWS V14.00,2013-03-07 22:13:00,
2013-03-07 14:14:00,48.6,26.0,29.74,South,180,2.0,2.7,41,0.00,,---,0.04,VWS V14.00,2013-03-07 22:14:00,
2013-03-07 14:15:00,50.2,26.8,29.74,SSW,202,0.0,2.9,40,0.00,,---,0.04,VWS V14.00,2013-03-07 22:15:00,
2013-03-07 14:16:00,48.6,26.5,29.74,SSW,202,2.0,2.0,42,0.00,,---,0.04,VWS V14.00,2013-03-07 22:16:00,
2013-03-07 14:17:00,48.6,26.5,29.74,SSE,158,3.4,3.4,42,0.00,,---,0.04,VWS V14.00,2013-03-07 22:17:00,
2013-03-07 14:18:00,48.6,26.5,29.74,SSW,202,2.5,3.4,42,0.00,,---,0.04,VWS V14.00,2013-03-07 22:18:00,
2013-03-07 14:19:00,48.6,26.5,29.74,SSW,202,2.5,2.5,42,0.00,,---,0.04,VWS V14.00,2013-03-07 22:19:00,
2013-03-07 14:20:00,50.9,27.5,29.74,SSW,202,2.0,2.7,40,0.00,,---,0.04,VWS V14.00,2013-03-07 22:20:00,
2013-03-07 14:21:00,48.6,26.5,29.74,SSW,202,2.0,2.9,42,0.00,,---,0.04,VWS V14.00,2013-03-07 22:21:00,
2013-03-07 14:22:00,48.6,26.5,29.74,SW,225,2.5,2.5,42,0.00,,---,0.04,VWS V14.00,2013-03-07 22:22:00,
2013-03-07 14:23:00,48.6,26.5,29.74,SSW,202,2.9,3.4,42,0.00,,---,0.04,VWS V14.00,2013-03-07 22:23:00,
2013-03-07 14:24:00,48.6,26.5,29.74,SSW,202,1.6,2.9,42,0.00,,---,0.04,VWS V14.00,2013-03-07 22:24:00,
2013-03-07 14:25:00,48.6,26.5,29.74,SSW,202,0.0,1.6,42,0.00,,---,0.04,VWS V14.00,2013-03-07 22:25:00,
2013-03-07 14:26:00,51.4,27.9,29.74,South,180,2.0,2.0,40,0.00,,---,0.04,VWS V14.00,2013-03-07 22:26:00,
2013-03-07 14:27:00,48.7,26.7,29.74,SSW,202,1.6,1.6,42,0.00,,---,0.04,VWS V14.00,2013-03-07 22:27:00,
2013-03-07 14:28:00,48.6,26.5,29.74,South,180,1.3,2.5,42,0.00,,---,0.04,VWS V14.00,2013-03-07 22:28:00,
2013-03-07 14:29:00,48.6,26.5,29.74,South,180,2.5,3.6,42,0.00,,---,0.04,VWS V14.00,2013-03-07 22:29:00,
2013-03-07 14:30:00,48.6,26.5,29.74,SSE,158,0.0,2.7,42,0.00,,---,0.04,VWS V14.00,2013-03-07 22:30:00,
2013-03-07 14:31:00,51.4,27.9,29.74,SSE,158,2.5,3.6,40,0.00,,---,0.04,VWS V14.00,2013-03-07 22:31:00,
2013-03-07 14:32:00,48.6,26.5,29.74,SSE,158,3.1,3.1,42,0.00,,---,0.04,VWS V14.00,2013-03-07 22:32:00,
2013-03-07 14:33:00,48.4,25.8,29.74,SSE,158,2.9,4.7,41,0.00,,---,0.04,VWS V14.00,2013-03-07 22:33:00,
2013-03-07 14:34:00,48.4,26.4,29.74,SSW,202,1.3,3.8,42,0.00,,---,0.04,VWS V14.00,2013-03-07 22:34:00,
2013-03-07 14:35:00,48.4,26.4,29.74,South,180,1.1,1.3,42,0.00,,---,0.04,VWS V14.00,2013-03-07 22:35:00,
2013-03-07 14:36:00,48.4,26.4,29.74,SSE,158,0.9,1.6,42,0.00,,---,0.04,VWS V14.00,2013-03-07 22:36:00,
2013-03-07 14:37:00,50.7,26.0,29.74,South,180,5.6,5.6,38,0.00,,---,0.04,VWS V14.00,2013-03-07 22:37:00,
2013-03-07 14:38:00,48.4,26.4,29.74,SSE,158,3.4,3.4,42,0.00,,---,0.04,VWS V14.00,2013-03-07 22:38:00,
2013-03-07 14:39:00,48.4,26.4,29.74,SSW,202,2.2,3.8,42,0.00,,---,0.04,VWS V14.00,2013-03-07 22:39:00,
2013-03-07 14:40:00,48.4,26.9,29.74,SSW,202,2.7,2.7,43,0.00,,---,0.04,VWS V14.00,2013-03-07 22:40:00,
2013-03-07 14:41:00,48.4,26.4,29.74,SSW,202,0.9,2.7,42,0.00,,---,0.04,VWS V14.00,2013-03-07 22:41:00,
2013-03-07 14:42:00,50.5,26.5,29.74,South,180,1.1,1.6,39,0.00,,---,0.04,VWS V14.00,2013-03-07 22:42:00,
2013-03-07 14:43:00,48.4,26.9,29.74,SSW,202,3.4,3.4,43,0.00,,---,0.04,VWS V14.00,2013-03-07 22:43:00,
2013-03-07 14:44:00,48.2,26.2,29.74,South,180,3.1,4.3,42,0.00,,---,0.04,VWS V14.00,2013-03-07 22:44:00,
2013-03-07 14:45:00,48.2,26.2,29.74,SSE,158,6.3,6.3,42,0.00,,---,0.04,VWS V14.00,2013-03-07 22:45:00,
2013-03-07 14:46:00,48.0,26.0,29.74,South,180,2.0,6.3,42,0.00,,---,0.04,VWS V14.00,2013-03-07 22:46:00,
2013-03-07 14:47:00,50.2,26.2,29.74,SSW,202,0.0,1.3,39,0.00,,---,0.04,VWS V14.00,2013-03-07 22:47:00,
2013-03-07 14:48:00,48.2,26.2,29.74,East,90,3.1,3.1,42,0.00,,---,0.04,VWS V14.00,2013-03-07 22:48:00,
2013-03-07 14:49:00,48.0,27.2,29.74,East,90,0.0,3.1,44,0.00,,---,0.04,VWS V14.00,2013-03-07 22:49:00,
2013-03-07 14:50:00,48.0,26.6,29.74,East,90,0.0,0.0,43,0.00,,---,0.04,VWS V14.00,2013-03-07 22:50:00,
2013-03-07 14:51:00,48.2,26.8,29.74,SE,135,0.0,0.0,43,0.00,,---,0.04,VWS V14.00,2013-03-07 22:51:00,
2013-03-07 14:52:00,49.5,26.2,29.74,South,180,2.5,4.3,40,0.00,,---,0.04,VWS V14.00,2013-03-07 22:52:00,
2013-03-07 14:53:00,48.2,26.8,29.74,SSW,202,1.6,1.6,43,0.00,,---,0.04,VWS V14.00,2013-03-07 22:53:00,
2013-03-07 14:54:00,48.0,26.6,29.74,SSW,202,0.0,1.6,43,0.00,,---,0.04,VWS V14.00,2013-03-07 22:54:00,
2013-03-07 14:55:00,48.0,27.2,29.74,SSW,202,0.0,0.0,44,0.00,,---,0.04,VWS V14.00,2013-03-07 22:55:00,
2013-03-07 14:56:00,48.0,27.2,29.74,SSW,202,2.7,2.7,44,0.00,,---,0.04,VWS V14.00,2013-03-07 22:56:00,
2013-03-07 14:57:00,49.3,26.0,29.74,South,180,3.1,3.6,40,0.00,,---,0.04,VWS V14.00,2013-03-07 22:57:00,
2013-03-07 14:58:00,48.0,26.6,29.74,WSW,248,2.7,2.7,43,0.00,,---,0.04,VWS V14.00,2013-03-07 22:58:00,
2013-03-07 14:59:00,48.0,26.6,29.74,West,270,1.1,2.7,43,0.00,,---,0.04,VWS V14.00,2013-03-07 22:59:00,
2013-03-07 15:00:00,47.8,26.4,29.74,West,270,2.2,2.2,43,0.00,,---,0.04,VWS V14.00,2013-03-07 23:00:00,
2013-03-07 15:01:00,47.8,26.4,29.74,WNW,292,2.0,2.2,43,0.00,,---,0.04,VWS V14.00,2013-03-07 23:01:00,
2013-03-07 15:02:00,49.1,26.4,29.74,SW,225,1.3,1.3,41,0.00,,---,0.04,VWS V14.00,2013-03-07 23:02:00,
2013-03-07 15:03:00,47.7,26.3,29.74,WNW,292,0.0,1.3,43,0.00,,---,0.04,VWS V14.00,2013-03-07 23:03:00,
2013-03-07 15:04:00,47.7,26.8,29.74,WNW,292,0.0,0.0,44,0.00,,---,0.04,VWS V14.00,2013-03-07 23:04:00,
2013-03-07 15:05:00,47.7,26.8,29.74,West,270,1.1,2.0,44,0.00,,---,0.04,VWS V14.00,2013-03-07 23:05:00,
2013-03-07 15:06:00,47.7,26.8,29.74,West,270,0.0,1.1,44,0.00,,---,0.04,VWS V14.00,2013-03-07 23:06:00,
2013-03-07 15:07:00,48.7,26.1,29.74,South,180,3.6,4.3,41,0.00,,---,0.04,VWS V14.00,2013-03-07 23:07:00,
2013-03-07 15:08:00,47.5,26.7,29.74,West,270,0.0,0.0,44,0.00,,---,0.04,VWS V14.00,2013-03-07 23:08:00,
2013-03-07 15:09:00,47.5,26.7,29.74,WSW,248,1.6,2.9,44,0.00,,---,0.04,VWS V14.00,2013-03-07 23:09:00,
2013-03-07 15:10:00,47.5,26.7,29.74,WSW,248,1.1,2.2,44,0.00,,---,0.04,VWS V14.00,2013-03-07 23:10:00,
2013-03-07 15:11:00,47.5,26.7,29.74,SW,225,2.5,2.5,44,0.00,,---,0.04,VWS V14.00,2013-03-07 23:11:00,
2013-03-07 15:12:00,48.6,26.5,29.74,SSW,202,2.0,2.0,42,0.00,,---,0.04,VWS V14.00,2013-03-07 23:12:00,
2013-03-07 15:13:00,47.3,26.5,29.74,SW,225,2.5,2.5,44,0.00,,---,0.04,VWS V14.00,2013-03-07 23:13:00,
2013-03-07 15:14:00,47.3,26.5,29.74,SW,225,0.0,2.5,44,0.00,,---,0.04,VWS V14.00,2013-03-07 23:14:00,
2013-03-07 15:15:00,47.3,26.5,29.74,WSW,248,2.2,2.2,44,0.00,,---,0.04,VWS V14.00,2013-03-07 23:15:00,
2013-03-07 15:16:00,47.3,26.5,29.74,WNW,292,1.3,3.4,44,0.00,,---,0.04,VWS V14.00,2013-03-07 23:16:00,
2013-03-07 15:17:00,48.6,26.5,29.74,SSW,202,2.0,2.9,42,0.00,,---,0.04,VWS V14.00,2013-03-07 23:17:00,
2013-03-07 15:18:00,47.1,26.9,29.74,WNW,292,2.0,2.7,45,0.00,,---,0.04,VWS V14.00,2013-03-07 23:18:00,
2013-03-07 15:19:00,47.1,26.9,29.74,WNW,292,0.0,2.0,45,0.00,,---,0.04,VWS V14.00,2013-03-07 23:19:00,
2013-03-07 15:20:00,47.1,26.9,29.74,WNW,292,0.0,1.6,45,0.00,,---,0.04,VWS V14.00,2013-03-07 23:20:00,
2013-03-07 15:21:00,47.1,26.9,29.74,West,270,0.0,0.0,45,0.00,,---,0.04,VWS V14.00,2013-03-07 23:21:00,
2013-03-07 15:22:00,48.6,26.5,29.74,WSW,248,0.0,3.1,42,0.00,,---,0.04,VWS V14.00,2013-03-07 23:22:00,
2013-03-07 15:23:00,46.9,26.7,29.74,WSW,248,0.0,1.3,45,0.00,,---,0.04,VWS V14.00,2013-03-07 23:23:00,
2013-03-07 15:24:00,46.9,26.7,29.74,WSW,248,0.0,1.1,45,0.00,,---,0.04,VWS V14.00,2013-03-07 23:24:00,
2013-03-07 15:25:00,46.9,26.7,29.74,WSW,248,0.9,1.6,45,0.00,,---,0.04,VWS V14.00,2013-03-07 23:25:00,
2013-03-07 15:26:00,46.9,26.7,29.74,WSW,248,0.0,0.9,45,0.00,,---,0.04,VWS V14.00,2013-03-07 23:26:00,
2013-03-07 15:27:00,46.9,26.7,29.74,WSW,248,0.0,0.0,45,0.00,,---,0.04,VWS V14.00,2013-03-07 23:27:00,
2013-03-07 15:28:00,48.6,26.5,29.74,South,180,2.5,2.7,42,0.00,,---,0.04,VWS V14.00,2013-03-07 23:28:00,
2013-03-07 15:29:00,46.9,27.3,29.74,WSW,248,0.0,0.0,46,0.00,,---,0.04,VWS V14.00,2013-03-07 23:29:00,
2013-03-07 15:30:00,46.9,27.3,29.74,WSW,248,0.0,0.0,46,0.00,,---,0.04,VWS V14.00,2013-03-07 23:30:00,
2013-03-07 15:31:00,46.8,27.1,29.74,West,270,0.0,0.0,46,0.00,,---,0.04,VWS V14.00,2013-03-07 23:31:00,
2013-03-07 15:32:00,46.8,27.1,29.74,West,270,0.0,0.0,46,0.00,,---,0.04,VWS V14.00,2013-03-07 23:32:00,
2013-03-07 15:33:00,48.4,26.4,29.74,SSE,158,0.9,0.9,42,0.00,,---,0.04,VWS V14.00,2013-03-07 23:33:00,
2013-03-07 15:34:00,46.8,27.1,29.74,West,270,0.0,0.0,46,0.00,,---,0.04,VWS V14.00,2013-03-07 23:34:00,
2013-03-07 15:35:00,46.6,27.5,29.74,West,270,0.0,0.0,47,0.00,,---,0.04,VWS V14.00,2013-03-07 23:35:00,
2013-03-07 15:36:00,46.6,27.5,29.74,West,270,0.0,0.0,47,0.00,,---,0.04,VWS V14.00,2013-03-07 23:36:00,
2013-03-07 15:37:00,46.6,27.5,29.74,West,270,0.0,0.0,47,0.00,,---,0.04,VWS V14.00,2013-03-07 23:37:00,
2013-03-07 15:38:00,48.4,26.4,29.74,SSW,202,0.9,0.9,42,0.00,,---,0.04,VWS V14.00,2013-03-07 23:38:00,
2013-03-07 15:39:00,46.6,27.5,29.74,West,270,0.0,0.0,47,0.00,,---,0.04,VWS V14.00,2013-03-07 23:39:00,
2013-03-07 15:40:00,46.6,27.5,29.74,West,270,0.0,0.0,47,0.00,,---,0.04,VWS V14.00,2013-03-07 23:40:00,
2013-03-07 15:41:00,46.4,27.3,29.74,West,270,0.0,0.0,47,0.00,,---,0.04,VWS V14.00,2013-03-07 23:41:00,
2013-03-07 15:42:00,46.4,27.3,29.74,West,270,0.0,0.0,47,0.00,,---,0.04,VWS V14.00,2013-03-07 23:42:00,
2013-03-07 15:43:00,48.0,26.0,29.74,South,180,1.6,2.0,42,0.00,,---,0.04,VWS V14.00,2013-03-07 23:43:00,
2013-03-07 15:44:00,46.4,27.3,29.74,West,270,0.0,0.0,47,0.00,,---,0.04,VWS V14.00,2013-03-07 23:44:00,
2013-03-07 15:45:00,46.4,27.3,29.74,West,270,0.0,0.0,47,0.00,,---,0.04,VWS V14.00,2013-03-07 23:45:00,
2013-03-07 15:46:00,46.4,27.3,29.74,West,270,0.0,0.0,47,0.00,,---,0.04,VWS V14.00,2013-03-07 23:46:00,
2013-03-07 15:47:00,46.4,27.3,29.74,West,270,0.0,0.0,47,0.00,,---,0.04,VWS V14.00,2013-03-07 23:47:00,
2013-03-07 15:48:00,48.2,26.8,29.74,SE,135,0.0,0.0,43,0.00,,---,0.04,VWS V14.00,2013-03-07 23:48:00,
2013-03-07 15:49:00,46.2,27.6,29.74,West,270,0.0,0.0,48,0.00,,---,0.04,VWS V14.00,2013-03-07 23:49:00,
2013-03-07 15:50:00,46.2,27.6,29.74,West,270,0.0,0.0,48,0.00,,---,0.04,VWS V14.00,2013-03-07 23:50:00,
2013-03-07 15:51:00,46.2,27.6,29.74,West,270,0.0,0.0,48,0.00,,---,0.04,VWS V14.00,2013-03-07 23:51:00,
2013-03-07 15:52:00,46.2,27.6,29.74,West,270,0.0,0.0,48,0.00,,---,0.04,VWS V14.00,2013-03-07 23:52:00,
2013-03-07 15:53:00,48.0,27.2,29.74,SSW,202,2.7,2.7,44,0.00,,---,0.04,VWS V14.00,2013-03-07 23:53:00,
2013-03-07 15:54:00,46.2,27.6,29.74,West,270,0.0,0.0,48,0.00,,---,0.04,VWS V14.00,2013-03-07 23:54:00,
2013-03-07 15:55:00,46.2,27.6,29.74,West,270,0.0,0.0,48,0.00,,---,0.04,VWS V14.00,2013-03-07 23:55:00,
2013-03-07 15:56:00,46.2,27.6,29.74,West,270,0.0,0.9,48,0.00,,---,0.04,VWS V14.00,2013-03-07 23:56:00,
2013-03-07 15:57:00,46.0,27.5,29.74,WSW,248,0.0,0.0,48,0.00,,---,0.04,VWS V14.00,2013-03-07 23:57:00,
2013-03-07 15:58:00,47.8,26.4,29.74,WNW,292,1.1,2.0,43,0.00,,---,0.04,VWS V14.00,2013-03-07 23:58:00,
2013-03-07 15:59:00,46.0,27.5,29.74,WSW,248,0.0,0.0,48,0.00,,---,0.04,VWS V14.00,2013-03-07 23:59:00,
2013-03-07 16:00:00,46.0,27.5,29.74,WSW,248,1.3,1.3,48,0.00,,---,0.04,VWS V14.00,2013-03-08 00:00:00,
2013-03-07 16:01:00,46.0,27.5,29.74,WSW,248,0.0,1.3,48,0.00,,---,0.04,VWS V14.00,2013-03-08 00:01:00,
2013-03-07 16:02:00,46.0,28.0,29.74,SW,225,0.0,0.0,49,0.00,,---,0.04,VWS V14.00,2013-03-08 00:02:00,
2013-03-07 16:03:00,47.7,26.8,29.74,West,270,0.0,0.0,44,0.00,,---,0.04,VWS V14.00,2013-03-08 00:03:00,
2013-03-07 16:04:00,45.9,27.8,29.74,SSW,202,0.0,0.0,49,0.00,,---,0.04,VWS V14.00,2013-03-08 00:04:00,
2013-03-07 16:05:00,45.9,27.8,29.74,SSW,202,0.0,0.0,49,0.00,,---,0.04,VWS V14.00,2013-03-08 00:05:00,
2013-03-07 16:06:00,45.9,27.8,29.74,SSW,202,0.0,1.1,49,0.00,,---,0.04,VWS V14.00,2013-03-08 00:06:00,
2013-03-07 16:07:00,45.9,27.8,29.74,SSW,202,0.0,0.0,49,0.00,,---,0.04,VWS V14.00,2013-03-08 00:07:00,
2013-03-07 16:08:00,47.5,26.7,29.74,SW,225,2.5,2.5,44,0.00,,---,0.04,VWS V14.00,2013-03-08 00:08:00,
2013-03-07 16:09:00,45.9,27.8,29.74,SSW,202,2.0,2.0,49,0.00,,---,0.04,VWS V14.00,2013-03-08 00:09:00,
2013-03-07 16:10:00,45.9,27.8,29.74,SSW,202,1.3,2.0,49,0.00,,---,0.04,VWS V14.00,2013-03-08 00:10:00,
2013-03-07 16:11:00,45.7,27.6,29.74,SSW,202,0.0,1.3,49,0.00,,---,0.04,VWS V14.00,2013-03-08 00:11:00,
2013-03-07 16:12:00,45.7,27.6,29.74,SSW,202,0.0,0.0,49,0.00,,---,0.04,VWS V14.00,2013-03-08 00:12:00,
2013-03-07 16:13:00,47.3,26.5,29.74,WNW,292,1.1,1.3,44,0.00,,---,0.04,VWS V14.00,2013-03-08 00:13:00,
2013-03-07 16:14:00,45.7,27.6,29.74,SSW,202,0.0,0.0,49,0.00,,---,0.04,VWS V14.00,2013-03-08 00:14:00,
2013-03-07 16:15:00,45.7,27.6,29.74,SSW,202,0.0,0.0,49,0.00,,---,0.04,VWS V14.00,2013-03-08 00:15:00,
2013-03-07 16:16:00,45.5,27.5,29.74,SSW,202,0.0,0.0,49,0.00,,---,0.04,VWS V14.00,2013-03-08 00:16:00,
2013-03-07 16:17:00,45.5,27.5,29.74,SSW,202,0.0,0.0,49,0.00,,---,0.04,VWS V14.00,2013-03-08 00:17:00,
2013-03-07 16:18:00,47.1,26.9,29.74,WSW,248,1.6,2.0,45,0.00,,---,0.04,VWS V14.00,2013-03-08 00:18:00,
2013-03-07 16:19:00,45.5,27.5,29.74,South,180,1.3,2.5,49,0.00,,---,0.04,VWS V14.00,2013-03-08 00:19:00,
2013-03-07 16:20:00,45.5,27.5,29.74,South,180,1.1,1.3,49,0.00,,---,0.04,VWS V14.00,2013-03-08 00:20:00,
2013-03-07 16:21:00,45.3,27.3,29.74,South,180,0.9,1.1,49,0.00,,---,0.04,VWS V14.00,2013-03-08 00:21:00,
2013-03-07 16:22:00,45.3,27.3,29.74,South,180,0.0,0.9,49,0.00,,---,0.04,VWS V14.00,2013-03-08 00:22:00,
2013-03-07 16:23:00,46.9,26.7,29.74,WSW,248,0.0,0.0,45,0.00,,---,0.04,VWS V14.00,2013-03-08 00:23:00,
2013-03-07 16:24:00,45.3,27.3,29.74,South,180,0.0,0.0,49,0.00,,---,0.04,VWS V14.00,2013-03-08 00:24:00,
2013-03-07 16:25:00,45.3,27.3,29.74,South,180,0.0,0.0,49,0.00,,---,0.04,VWS V14.00,2013-03-08 00:25:00,
2013-03-07 16:26:00,45.3,27.3,29.74,South,180,0.0,0.9,49,0.00,,---,0.04,VWS V14.00,2013-03-08 00:26:00,
2013-03-07 16:27:00,45.3,27.3,29.74,South,180,0.0,2.0,49,0.00,,---,0.04,VWS V14.00,2013-03-08 00:27:00,
2013-03-07 16:28:00,45.3,27.8,29.74,South,180,0.0,0.0,50,0.00,,---,0.04,VWS V14.00,2013-03-08 00:28:00,
2013-03-07 16:29:00,46.8,27.1,29.74,West,270,0.0,0.0,46,0.00,,---,0.04,VWS V14.00,2013-03-08 00:29:00,
2013-03-07 16:30:00,45.1,27.6,29.74,South,180,0.0,0.9,50,0.00,,---,0.04,VWS V14.00,2013-03-08 00:30:00,
2013-03-07 16:31:00,45.1,27.6,29.74,South,180,0.0,0.9,50,0.00,,---,0.04,VWS V14.00,2013-03-08 00:31:00,
2013-03-07 16:32:00,45.1,27.6,29.74,South,180,1.1,1.6,50,0.00,,---,0.04,VWS V14.00,2013-03-08 00:32:00,
2013-03-07 16:33:00,45.1,27.6,29.74,South,180,0.9,1.3,50,0.00,,---,0.04,VWS V14.00,2013-03-08 00:33:00,
2013-03-07 16:34:00,46.6,27.5,29.74,West,270,0.0,0.0,47,0.00,,---,0.04,VWS V14.00,2013-03-08 00:34:00,
2013-03-07 16:35:00,45.1,27.6,29.74,South,180,1.1,1.1,50,0.00,,---,0.04,VWS V14.00,2013-03-08 00:35:00,
2013-03-07 16:36:00,45.1,27.6,29.74,South,180,1.3,1.3,50,0.00,,---,0.04,VWS V14.00,2013-03-08 00:36:00,
2013-03-07 16:37:00,45.1,27.6,29.74,South,180,0.9,1.3,50,0.00,,---,0.04,VWS V14.00,2013-03-08 00:37:00,
2013-03-07 16:38:00,45.1,27.6,29.76,South,180,0.0,0.9,50,0.00,,---,0.04,VWS V14.00,2013-03-08 00:38:00,
2013-03-07 16:39:00,46.4,27.3,29.74,West,270,0.0,1.3,47,0.00,,---,0.04,VWS V14.00,2013-03-08 00:39:00,
2013-03-07 16:40:00,45.1,27.6,29.76,South,180,0.0,0.9,50,0.00,,---,0.04,VWS V14.00,2013-03-08 00:40:00,
2013-03-07 16:41:00,45.1,27.6,29.76,South,180,0.0,0.0,50,0.00,,---,0.04,VWS V14.00,2013-03-08 00:41:00,
2013-03-07 16:42:00,45.1,27.6,29.76,South,180,0.0,0.0,50,0.00,,---,0.04,VWS V14.00,2013-03-08 00:42:00,
2013-03-07 16:43:00,45.0,27.9,29.76,South,180,0.0,0.0,51,0.00,,---,0.04,VWS V14.00,2013-03-08 00:43:00,
2013-03-07 16:44:00,46.2,27.6,29.74,West,270,0.0,0.0,48,0.00,,---,0.04,VWS V14.00,2013-03-08 00:44:00,
2013-03-07 16:45:00,45.0,27.9,29.76,South,180,0.0,0.0,51,0.00,,---,0.04,VWS V14.00,2013-03-08 00:45:00,
2013-03-07 16:46:00,45.0,27.9,29.76,South,180,0.0,0.0,51,0.00,,---,0.04,VWS V14.00,2013-03-08 00:46:00,
2013-03-07 16:47:00,45.0,27.9,29.76,South,180,0.0,0.0,51,0.00,,---,0.04,VWS V14.00,2013-03-08 00:47:00,
2013-03-07 16:48:00,45.0,27.9,29.76,South,180,0.0,0.0,51,0.00,,---,0.04,VWS V14.00,2013-03-08 00:48:00,
2013-03-07 16:49:00,46.2,27.6,29.74,West,270,0.0,0.0,48,0.00,,---,0.04,VWS V14.00,2013-03-08 00:49:00,
2013-03-07 16:50:00,44.8,28.2,29.76,South,180,0.0,0.0,52,0.00,,---,0.04,VWS V14.00,2013-03-08 00:50:00,
2013-03-07 16:51:00,44.8,28.2,29.76,South,180,0.0,0.0,52,0.00,,---,0.04,VWS V14.00,2013-03-08 00:51:00,
2013-03-07 16:52:00,44.8,28.2,29.76,South,180,0.0,0.0,52,0.00,,---,0.04,VWS V14.00,2013-03-08 00:52:00,
2013-03-07 16:53:00,44.8,28.2,29.74,South,180,0.0,0.0,52,0.00,,---,0.04,VWS V14.00,2013-03-08 00:53:00,
2013-03-07 16:54:00,46.0,27.5,29.74,WSW,248,0.0,0.0,48,0.00,,---,0.04,VWS V14.00,2013-03-08 00:54:00,
2013-03-07 16:55:00,44.6,28.1,29.74,South,180,0.0,0.0,52,0.00,,---,0.04,VWS V14.00,2013-03-08 00:55:00,
2013-03-07 16:56:00,44.6,28.5,29.74,South,180,0.0,0.0,53,0.00,,---,0.04,VWS V14.00,2013-03-08 00:56:00,
2013-03-07 16:57:00,44.6,28.5,29.74,South,180,0.0,0.0,53,0.00,,---,0.04,VWS V14.00,2013-03-08 00:57:00,
2013-03-07 16:58:00,44.4,28.4,29.74,South,180,0.0,0.0,53,0.00,,---,0.04,VWS V14.00,2013-03-08 00:58:00,
2013-03-07 16:59:00,44.4,28.4,29.74,South,180,0.0,0.0,53,0.00,,---,0.04,VWS V14.00,2013-03-08 00:59:00,
2013-03-07 17:00:00,46.0,28.0,29.74,SSW,202,0.0,0.0,49,0.00,,---,0.04,VWS V14.00,2013-03-08 01:00:00,
2013-03-07 17:01:00,44.2,28.2,29.74,South,180,0.0,0.0,53,0.00,,---,0.04,VWS V14.00,2013-03-08 01:01:00,
2013-03-07 17:02:00,44.2,28.7,29.74,South,180,0.0,0.0,54,0.00,,---,0.04,VWS V14.00,2013-03-08 01:02:00,
2013-03-07 17:03:00,44.1,28.0,29.74,South,180,0.0,0.0,53,0.00,,---,0.04,VWS V14.00,2013-03-08 01:03:00,
2013-03-07 17:04:00,44.1,28.0,29.74,South,180,0.0,0.0,53,0.00,,---,0.04,VWS V14.00,2013-03-08 01:04:00,
2013-03-07 17:05:00,44.1,28.0,29.74,South,180,0.0,0.0,53,0.00,,---,0.04,VWS V14.00,2013-03-08 01:05:00,
2013-03-07 17:06:00,45.9,27.8,29.74,SSW,202,2.0,2.0,49,0.00,,---,0.04,VWS V14.00,2013-03-08 01:06:00,
2013-03-07 17:07:00,43.9,27.9,29.74,South,180,0.0,0.0,53,0.00,,---,0.04,VWS V14.00,2013-03-08 01:07:00,
2013-03-07 17:08:00,43.9,27.9,29.74,South,180,0.0,0.0,53,0.00,,---,0.04,VWS V14.00,2013-03-08 01:08:00,
2013-03-07 17:09:00,43.7,27.7,29.74,South,180,0.0,0.0,53,0.00,,---,0.04,VWS V14.00,2013-03-08 01:09:00,
2013-03-07 17:10:00,43.7,27.7,29.74,South,180,0.0,0.0,53,0.00,,---,0.04,VWS V14.00,2013-03-08 01:10:00,
2013-03-07 17:11:00,45.7,27.6,29.74,SSW,202,0.0,0.0,49,0.00,,---,0.04,VWS V14.00,2013-03-08 01:11:00,
2013-03-07 17:12:00,43.7,27.7,29.74,South,180,0.0,0.0,53,0.00,,---,0.04,VWS V14.00,2013-03-08 01:12:00,
2013-03-07 17:13:00,43.5,27.5,29.74,South,180,0.0,0.0,53,0.00,,---,0.04,VWS V14.00,2013-03-08 01:13:00,
2013-03-07 17:14:00,43.5,27.5,29.74,South,180,0.0,0.0,53,0.00,,---,0.04,VWS V14.00,2013-03-08 01:14:00,
2013-03-07 17:15:00,43.5,27.5,29.74,South,180,0.0,0.0,53,0.00,,---,0.04,VWS V14.00,2013-03-08 01:15:00,
2013-03-07 17:16:00,45.5,27.5,29.74,South,180,1.1,1.3,49,0.00,,---,0.04,VWS V14.00,2013-03-08 01:16:00,
2013-03-07 17:17:00,43.3,27.4,29.74,South,180,0.0,0.0,53,0.00,,---,0.04,VWS V14.00,2013-03-08 01:17:00,
2013-03-07 17:18:00,43.3,27.4,29.74,South,180,0.0,0.0,53,0.00,,---,0.04,VWS V14.00,2013-03-08 01:18:00,
2013-03-07 17:19:00,43.3,27.4,29.74,South,180,0.0,0.0,53,0.00,,---,0.04,VWS V14.00,2013-03-08 01:19:00,
2013-03-07 17:20:00,43.2,27.2,29.74,South,180,0.0,0.0,53,0.00,,---,0.04,VWS V14.00,2013-03-08 01:20:00,
2013-03-07 17:21:00,45.3,27.3,29.74,South,180,0.0,0.0,49,0.00,,---,0.04,VWS V14.00,2013-03-08 01:21:00,
2013-03-07 17:22:00,43.0,27.5,29.74,South,180,0.0,0.0,54,0.00,,---,0.04,VWS V14.00,2013-03-08 01:22:00,
2013-03-07 17:23:00,43.0,27.5,29.74,South,180,0.0,0.0,54,0.00,,---,0.04,VWS V14.00,2013-03-08 01:23:00,
2013-03-07 17:24:00,43.0,27.5,29.74,South,180,0.0,0.0,54,0.00,,---,0.04,VWS V14.00,2013-03-08 01:24:00,
2013-03-07 17:25:00,43.0,27.5,29.74,South,180,0.0,0.0,54,0.00,,---,0.04,VWS V14.00,2013-03-08 01:25:00,
2013-03-07 17:26:00,45.1,27.6,29.74,South,180,0.9,0.9,50,0.00,,---,0.04,VWS V14.00,2013-03-08 01:26:00,
2013-03-07 17:27:00,42.8,27.3,29.74,South,180,0.0,0.0,54,0.00,,---,0.04,VWS V14.00,2013-03-08 01:27:00,
2013-03-07 17:28:00,42.8,27.3,29.74,South,180,0.0,0.0,54,0.00,,---,0.04,VWS V14.00,2013-03-08 01:28:00,
2013-03-07 17:29:00,42.8,27.3,29.74,South,180,0.0,0.0,54,0.00,,---,0.04,VWS V14.00,2013-03-08 01:29:00,
2013-03-07 17:30:00,42.8,27.3,29.74,South,180,0.0,0.0,54,0.00,,---,0.04,VWS V14.00,2013-03-08 01:30:00,
2013-03-07 17:31:00,45.1,27.6,29.74,South,180,0.9,0.9,50,0.00,,---,0.04,VWS V14.00,2013-03-08 01:31:00,
2013-03-07 17:32:00,42.8,27.3,29.74,South,180,0.0,0.0,54,0.00,,---,0.04,VWS V14.00,2013-03-08 01:32:00,
2013-03-07 17:33:00,42.6,27.1,29.74,South,180,0.0,0.0,54,0.00,,---,0.04,VWS V14.00,2013-03-08 01:33:00,
2013-03-07 17:34:00,42.6,27.1,29.74,South,180,0.0,0.0,54,0.00,,---,0.04,VWS V14.00,2013-03-08 01:34:00,
2013-03-07 17:35:00,42.6,27.1,29.74,South,180,0.0,0.0,54,0.00,,---,0.04,VWS V14.00,2013-03-08 01:35:00,
2013-03-07 17:36:00,45.1,27.6,29.76,South,180,0.0,0.9,50,0.00,,---,0.04,VWS V14.00,2013-03-08 01:36:00,
2013-03-07 17:37:00,42.6,27.1,29.74,South,180,0.0,0.0,54,0.00,,---,0.04,VWS V14.00,2013-03-08 01:37:00,
2013-03-07 17:38:00,42.4,27.0,29.74,South,180,0.0,0.0,54,0.00,,---,0.04,VWS V14.00,2013-03-08 01:38:00,
2013-03-07 17:39:00,42.4,27.0,29.74,South,180,0.0,0.0,54,0.00,,---,0.04,VWS V14.00,2013-03-08 01:39:00,
2013-03-07 17:40:00,42.4,27.0,29.74,South,180,0.0,0.0,54,0.00,,---,0.04,VWS V14.00,2013-03-08 01:40:00,
2013-03-07 17:41:00,45.0,27.9,29.76,South,180,0.0,0.0,51,0.00,,---,0.04,VWS V14.00,2013-03-08 01:41:00,
2013-03-07 17:42:00,42.4,27.4,29.74,South,180,0.0,0.0,55,0.00,,---,0.04,VWS V14.00,2013-03-08 01:42:00,
2013-03-07 17:43:00,42.4,27.4,29.74,South,180,0.0,0.0,55,0.00,,---,0.04,VWS V14.00,2013-03-08 01:43:00,
2013-03-07 17:44:00,42.3,27.3,29.74,South,180,0.0,0.0,55,0.00,,---,0.04,VWS V14.00,2013-03-08 01:44:00,
2013-03-07 17:45:00,42.3,27.3,29.74,South,180,0.0,0.0,55,0.00,,---,0.04,VWS V14.00,2013-03-08 01:45:00,
2013-03-07 17:46:00,44.8,28.2,29.76,South,180,0.0,0.0,52,0.00,,---,0.04,VWS V14.00,2013-03-08 01:46:00,
2013-03-07 17:47:00,42.3,27.3,29.74,South,180,0.0,0.0,55,0.00,,---,0.04,VWS V14.00,2013-03-08 01:47:00,
2013-03-07 17:48:00,42.3,27.3,29.74,South,180,0.0,0.0,55,0.00,,---,0.04,VWS V14.00,2013-03-08 01:48:00,
2013-03-07 17:49:00,42.3,27.3,29.74,South,180,0.0,0.0,55,0.00,,---,0.04,VWS V14.00,2013-03-08 01:49:00,
2013-03-07 17:50:00,42.1,27.1,29.74,South,180,0.0,0.0,55,0.00,,---,0.04,VWS V14.00,2013-03-08 01:50:00,
2013-03-07 17:51:00,42.1,27.1,29.74,South,180,0.0,0.0,55,0.00,,---,0.04,VWS V14.00,2013-03-08 01:51:00,
2013-03-07 17:52:00,44.6,28.1,29.74,South,180,0.0,0.0,52,0.00,,---,0.04,VWS V14.00,2013-03-08 01:52:00,
2013-03-07 17:53:00,42.1,28.0,29.74,South,180,0.0,0.0,57,0.00,,---,0.04,VWS V14.00,2013-03-08 01:53:00,
2013-03-07 17:54:00,41.9,27.8,29.74,South,180,0.0,0.0,57,0.00,,---,0.04,VWS V14.00,2013-03-08 01:54:00,
2013-03-07 17:55:00,41.9,27.8,29.74,South,180,0.0,0.0,57,0.00,,---,0.04,VWS V14.00,2013-03-08 01:55:00,
2013-03-07 17:56:00,41.7,27.6,29.74,South,180,0.0,0.0,57,0.00,,---,0.04,VWS V14.00,2013-03-08 01:56:00,
2013-03-07 17:57:00,44.2,28.2,29.74,South,180,0.0,0.0,53,0.00,,---,0.54,VWS V14.00,2013-03-08 01:57:00,
2013-03-07 17:58:00,41.7,27.6,29.74,South,180,0.0,0.0,57,0.00,,---,0.04,VWS V14.00,2013-03-08 01:58:00,
2013-03-07 17:59:00,41.7,27.6,29.74,South,180,0.0,0.0,57,0.00,,---,0.04,VWS V14.00,2013-03-08 01:59:00,
2013-03-07 18:00:00,41.5,27.5,29.74,South,180,0.0,0.0,57,0.00,,---,0.04,VWS V14.00,2013-03-08 02:00:00,
2013-03-07 18:01:00,41.5,27.5,29.74,South,180,0.0,0.0,57,0.00,,---,0.04,VWS V14.00,2013-03-08 02:01:00,
2013-03-07 18:02:00,44.1,28.0,29.74,South,180,0.0,0.0,53,0.00,,---,0.04,VWS V14.00,2013-03-08 02:02:00,
2013-03-07 18:03:00,41.4,27.3,29.74,South,180,0.0,0.0,57,0.00,,---,0.04,VWS V14.00,2013-03-08 02:03:00,
2013-03-07 18:04:00,41.4,27.3,29.74,South,180,0.0,0.0,57,0.00,,---,0.04,VWS V14.00,2013-03-08 02:04:00,
2013-03-07 18:05:00,41.4,27.3,29.74,South,180,0.0,0.0,57,0.00,,---,0.04,VWS V14.00,2013-03-08 02:05:00,
2013-03-07 18:06:00,41.2,27.5,29.74,South,180,0.0,0.0,58,0.00,,---,0.04,VWS V14.00,2013-03-08 02:06:00,
2013-03-07 18:07:00,43.7,27.7,29.74,South,180,0.0,0.0,53,0.00,,---,0.04,VWS V14.00,2013-03-08 02:07:00,
2013-03-07 18:08:00,41.2,27.5,29.76,South,180,0.0,0.0,58,0.00,,---,0.04,VWS V14.00,2013-03-08 02:08:00,
2013-03-07 18:09:00,41.2,27.5,29.76,South,180,0.0,0.0,58,0.00,,---,0.04,VWS V14.00,2013-03-08 02:09:00,
2013-03-07 18:10:00,41.0,27.4,29.76,South,180,0.0,0.0,58,0.00,,---,0.04,VWS V14.00,2013-03-08 02:10:00,
2013-03-07 18:11:00,41.0,27.4,29.76,South,180,0.0,0.0,58,0.00,,---,0.04,VWS V14.00,2013-03-08 02:11:00,
2013-03-07 18:12:00,43.5,27.5,29.74,South,180,0.0,0.0,53,0.00,,---,0.04,VWS V14.00,2013-03-08 02:12:00,
2013-03-07 18:13:00,41.0,27.4,29.76,South,180,0.0,0.0,58,0.00,,---,0.04,VWS V14.00,2013-03-08 02:13:00,
2013-03-07 18:14:00,41.0,27.4,29.76,South,180,0.0,0.0,58,0.00,,---,0.04,VWS V14.00,2013-03-08 02:14:00,
2013-03-07 18:15:00,40.8,27.6,29.76,South,180,0.0,0.0,59,0.00,,---,0.04,VWS V14.00,2013-03-08 02:15:00,
2013-03-07 18:16:00,40.8,27.6,29.76,South,180,0.0,0.0,59,0.00,,---,0.04,VWS V14.00,2013-03-08 02:16:00,
2013-03-07 18:17:00,43.2,27.2,29.74,South,180,0.0,0.0,53,0.00,,---,0.04,VWS V14.00,2013-03-08 02:17:00,
2013-03-07 18:18:00,40.8,27.6,29.76,South,180,0.0,0.0,59,0.00,,---,0.04,VWS V14.00,2013-03-08 02:18:00,
2013-03-07 18:19:00,40.6,27.5,29.76,South,180,0.0,0.0,59,0.00,,---,0.04,VWS V14.00,2013-03-08 02:19:00,
2013-03-07 18:20:00,40.6,27.5,29.76,South,180,0.0,0.0,59,0.00,,---,0.04,VWS V14.00,2013-03-08 02:20:00,
2013-03-07 18:21:00,40.6,27.5,29.76,South,180,0.0,0.0,59,0.00,,---,0.04,VWS V14.00,2013-03-08 02:21:00,
2013-03-07 18:22:00,43.0,27.5,29.74,South,180,0.0,0.0,54,0.00,,---,0.04,VWS V14.00,2013-03-08 02:22:00,
2013-03-07 18:23:00,40.6,27.5,29.76,South,180,0.0,0.0,59,0.00,,---,0.04,VWS V14.00,2013-03-08 02:23:00,
2013-03-07 18:24:00,40.6,27.5,29.76,South,180,0.0,0.0,59,0.00,,---,0.04,VWS V14.00,2013-03-08 02:24:00,
2013-03-07 18:25:00,40.6,27.5,29.76,South,180,0.0,0.0,59,0.00,,---,0.04,VWS V14.00,2013-03-08 02:25:00,
2013-03-07 18:26:00,40.6,27.5,29.76,South,180,0.0,0.0,59,0.00,,---,0.04,VWS V14.00,2013-03-08 02:26:00,
2013-03-07 18:27:00,42.8,27.3,29.74,South,180,0.0,0.0,54,0.00,,---,0.04,VWS V14.00,2013-03-08 02:27:00,
2013-03-07 18:28:00,40.6,27.9,29.76,South,180,0.0,0.0,60,0.00,,---,0.04,VWS V14.00,2013-03-08 02:28:00,
2013-03-07 18:29:00,40.6,27.9,29.76,South,180,0.0,0.0,60,0.00,,---,0.04,VWS V14.00,2013-03-08 02:29:00,
2013-03-07 18:30:00,40.6,27.9,29.76,South,180,0.0,0.0,60,0.00,,---,0.04,VWS V14.00,2013-03-08 02:30:00,
2013-03-07 18:31:00,40.5,27.7,29.76,South,180,0.0,0.0,60,0.00,,---,0.04,VWS V14.00,2013-03-08 02:31:00,
2013-03-07 18:32:00,42.6,27.1,29.74,South,180,0.0,0.0,54,0.00,,---,0.04,VWS V14.00,2013-03-08 02:32:00,
2013-03-07 18:33:00,40.5,27.7,29.76,South,180,0.0,0.0,60,0.00,,---,0.04,VWS V14.00,2013-03-08 02:33:00,
2013-03-07 18:34:00,40.5,28.1,29.76,South,180,0.0,0.0,61,0.00,,---,0.04,VWS V14.00,2013-03-08 02:34:00,
2013-03-07 18:35:00,40.5,28.1,29.76,South,180,0.0,0.0,61,0.00,,---,0.04,VWS V14.00,2013-03-08 02:35:00,
2013-03-07 18:36:00,40.5,28.1,29.76,South,180,0.0,0.0,61,0.00,,---,0.04,VWS V14.00,2013-03-08 02:36:00,
2013-03-07 18:37:00,42.4,27.0,29.74,South,180,0.0,0.0,54,0.00,,---,0.04,VWS V14.00,2013-03-08 02:37:00,
2013-03-07 18:38:00,40.5,28.1,29.76,South,180,0.0,0.0,61,0.00,,---,0.04,VWS V14.00,2013-03-08 02:38:00,
2013-03-07 18:39:00,40.5,28.1,29.76,South,180,0.0,0.0,61,0.00,,---,0.04,VWS V14.00,2013-03-08 02:39:00,
2013-03-07 18:40:00,40.5,28.1,29.76,South,180,0.0,0.0,61,0.00,,---,0.04,VWS V14.00,2013-03-08 02:40:00,
2013-03-07 18:41:00,40.5,28.1,29.76,South,180,0.0,0.0,61,0.00,,---,0.04,VWS V14.00,2013-03-08 02:41:00,
2013-03-07 18:42:00,42.3,27.3,29.74,South,180,0.0,0.0,55,0.00,,---,0.04,VWS V14.00,2013-03-08 02:42:00,
2013-03-07 18:43:00,40.5,28.5,29.76,South,180,0.0,0.0,62,0.00,,---,0.04,VWS V14.00,2013-03-08 02:43:00,
2013-03-07 18:44:00,40.5,28.1,29.76,South,180,0.0,0.0,61,0.00,,---,0.04,VWS V14.00,2013-03-08 02:44:00,
2013-03-07 18:45:00,40.5,28.1,29.76,South,180,0.0,0.0,61,0.00,,---,0.04,VWS V14.00,2013-03-08 02:45:00,
2013-03-07 18:46:00,40.5,28.1,29.76,South,180,0.0,0.0,61,0.00,,---,0.04,VWS V14.00,2013-03-08 02:46:00,
2013-03-07 18:47:00,42.1,27.1,29.74,South,180,0.0,0.0,55,0.00,,---,0.04,VWS V14.00,2013-03-08 02:47:00,
2013-03-07 18:48:00,40.3,28.3,29.76,South,180,0.0,0.0,62,0.00,,---,0.04,VWS V14.00,2013-03-08 02:48:00,
2013-03-07 18:49:00,40.3,28.3,29.76,South,180,0.0,0.0,62,0.00,,---,0.04,VWS V14.00,2013-03-08 02:49:00,
2013-03-07 18:50:00,40.3,28.3,29.76,South,180,0.0,0.0,62,0.00,,---,0.04,VWS V14.00,2013-03-08 02:50:00,
2013-03-07 18:51:00,40.3,28.3,29.76,South,180,0.0,0.0,62,0.00,,---,0.04,VWS V14.00,2013-03-08 02:51:00,
2013-03-07 18:52:00,41.7,27.6,29.74,South,180,0.0,0.0,57,0.00,,---,0.04,VWS V14.00,2013-03-08 02:52:00,
2013-03-07 18:53:00,40.3,28.3,29.74,South,180,0.0,0.0,62,0.00,,---,0.04,VWS V14.00,2013-03-08 02:53:00,
2013-03-07 18:54:00,40.3,28.3,29.74,South,180,0.0,0.0,62,0.00,,---,0.04,VWS V14.00,2013-03-08 02:54:00,
2013-03-07 18:55:00,40.3,28.3,29.74,South,180,0.0,0.0,62,0.00,,---,0.04,VWS V14.00,2013-03-08 02:55:00,
2013-03-07 18:56:00,40.3,28.3,29.74,South,180,0.0,0.0,62,0.00,,---,0.04,VWS V14.00,2013-03-08 02:56:00,
2013-03-07 18:57:00,41.5,27.5,29.74,South,180,0.0,0.0,57,0.00,,---,0.04,VWS V14.00,2013-03-08 02:57:00,
2013-03-07 18:58:00,40.3,28.7,29.74,South,180,0.0,0.0,63,0.00,,---,0.04,VWS V14.00,2013-03-08 02:58:00,
2013-03-07 18:59:00,40.3,28.7,29.74,South,180,0.0,0.0,63,0.00,,---,0.04,VWS V14.00,2013-03-08 02:59:00,
2013-03-07 19:00:00,40.3,28.7,29.74,South,180,0.0,0.0,63,0.00,,---,0.04,VWS V14.00,2013-03-08 03:00:00,
2013-03-07 19:01:00,40.3,28.7,29.74,South,180,0.0,0.0,63,0.00,,---,0.04,VWS V14.00,2013-03-08 03:01:00,
2013-03-07 19:02:00,41.4,27.3,29.74,South,180,0.0,0.0,57,0.00,,---,0.04,VWS V14.00,2013-03-08 03:02:00,
2013-03-07 19:03:00,40.3,28.7,29.74,South,180,0.0,0.0,63,0.00,,---,0.04,VWS V14.00,2013-03-08 03:03:00,
2013-03-07 19:04:00,40.3,29.1,29.74,South,180,0.0,0.0,64,0.00,,---,0.04,VWS V14.00,2013-03-08 03:04:00,
2013-03-07 19:05:00,40.3,29.1,29.74,South,180,0.0,0.0,64,0.00,,---,0.04,VWS V14.00,2013-03-08 03:05:00,
2013-03-07 19:06:00,40.1,28.9,29.74,South,180,0.0,0.0,64,0.00,,---,0.04,VWS V14.00,2013-03-08 03:06:00,
2013-03-07 19:07:00,41.0,27.4,29.76,South,180,0.0,0.0,58,0.00,,---,0.04,VWS V14.00,2013-03-08 03:07:00,
2013-03-07 19:08:00,40.1,28.9,29.74,South,180,0.0,0.0,64,0.00,,---,0.04,VWS V14.00,2013-03-08 03:08:00,
2013-03-07 19:09:00,40.1,28.9,29.74,South,180,0.0,0.0,64,0.00,,---,0.04,VWS V14.00,2013-03-08 03:09:00,
2013-03-07 19:10:00,40.1,28.9,29.74,South,180,0.0,0.0,64,0.00,,---,0.04,VWS V14.00,2013-03-08 03:10:00,
2013-03-07 19:11:00,39.9,28.8,29.74,South,180,0.0,0.0,64,0.00,,---,0.04,VWS V14.00,2013-03-08 03:11:00,
2013-03-07 19:12:00,40.8,27.6,29.76,South,180,0.0,0.0,59,0.00,,---,0.04,VWS V14.00,2013-03-08 03:12:00,
2013-03-07 19:13:00,39.9,28.8,29.74,South,180,0.0,0.0,64,0.00,,---,0.04,VWS V14.00,2013-03-08 03:13:00,
2013-03-07 19:14:00,39.9,28.8,29.74,South,180,0.0,0.0,64,0.00,,---,0.04,VWS V14.00,2013-03-08 03:14:00,
2013-03-07 19:15:00,39.9,28.8,29.74,South,180,0.0,0.0,64,0.00,,---,0.04,VWS V14.00,2013-03-08 03:15:00,
2013-03-07 19:16:00,39.9,28.8,29.74,South,180,0.0,0.0,64,0.00,,---,0.04,VWS V14.00,2013-03-08 03:16:00,
2013-03-07 19:17:00,40.6,27.5,29.76,South,180,0.0,0.0,59,0.00,,---,0.04,VWS V14.00,2013-03-08 03:17:00,
2013-03-07 19:18:00,39.7,29.0,29.74,South,180,0.0,0.0,65,0.00,,---,0.04,VWS V14.00,2013-03-08 03:18:00,
2013-03-07 19:19:00,39.7,29.0,29.74,South,180,0.0,0.0,65,0.00,,---,0.04,VWS V14.00,2013-03-08 03:19:00,
2013-03-07 19:20:00,39.7,29.0,29.74,South,180,0.0,0.0,65,0.00,,---,0.04,VWS V14.00,2013-03-08 03:20:00,
2013-03-07 19:21:00,39.7,29.0,29.74,South,180,0.0,0.0,65,0.00,,---,0.04,VWS V14.00,2013-03-08 03:21:00,
2013-03-07 19:22:00,40.6,27.5,29.76,South,180,0.0,0.0,59,0.00,,---,0.04,VWS V14.00,2013-03-08 03:22:00,
2013-03-07 19:23:00,39.7,29.0,29.74,South,180,0.0,0.0,65,0.00,,---,0.04,VWS V14.00,2013-03-08 03:23:00,
2013-03-07 19:24:00,39.7,29.0,29.74,South,180,0.0,0.0,65,0.00,,---,0.04,VWS V14.00,2013-03-08 03:24:00,
2013-03-07 19:25:00,39.6,28.8,29.74,South,180,0.0,0.0,65,0.00,,---,0.04,VWS V14.00,2013-03-08 03:25:00,
2013-03-07 19:26:00,39.6,28.8,29.74,South,180,0.0,0.0,65,0.00,,---,0.04,VWS V14.00,2013-03-08 03:26:00,
2013-03-07 19:27:00,40.5,27.7,29.76,South,180,0.0,0.0,60,0.00,,---,0.04,VWS V14.00,2013-03-08 03:27:00,
2013-03-07 19:28:00,39.4,29.0,29.74,South,180,0.0,0.0,66,0.00,,---,0.04,VWS V14.00,2013-03-08 03:28:00,
2013-03-07 19:29:00,39.4,29.0,29.74,South,180,0.0,0.0,66,0.00,,---,0.04,VWS V14.00,2013-03-08 03:29:00,
2013-03-07 19:30:00,39.4,29.0,29.74,South,180,0.0,0.0,66,0.00,,---,0.04,VWS V14.00,2013-03-08 03:30:00,
2013-03-07 19:31:00,39.4,29.0,29.74,South,180,0.0,0.0,66,0.00,,---,0.04,VWS V14.00,2013-03-08 03:31:00,
2013-03-07 19:32:00,40.5,28.1,29.76,South,180,0.0,0.0,61,0.00,,---,0.04,VWS V14.00,2013-03-08 03:32:00,
2013-03-07 19:33:00,39.2,28.8,29.74,South,180,0.0,0.0,66,0.00,,---,0.04,VWS V14.00,2013-03-08 03:33:00,
2013-03-07 19:34:00,39.2,28.8,29.74,South,180,0.0,0.0,66,0.00,,---,0.04,VWS V14.00,2013-03-08 03:34:00,
2013-03-07 19:35:00,39.2,28.8,29.74,South,180,0.0,0.0,66,0.00,,---,0.04,VWS V14.00,2013-03-08 03:35:00,
2013-03-07 19:36:00,39.2,28.8,29.74,South,180,0.0,0.0,66,0.00,,---,0.04,VWS V14.00,2013-03-08 03:36:00,
2013-03-07 19:37:00,40.5,28.1,29.76,South,180,0.0,0.0,61,0.00,,---,0.04,VWS V14.00,2013-03-08 03:37:00,
2013-03-07 19:38:00,39.2,28.8,29.74,South,180,0.0,0.0,66,0.00,,---,0.04,VWS V14.00,2013-03-08 03:38:00,
2013-03-07 19:39:00,39.2,28.8,29.74,South,180,0.0,0.0,66,0.00,,---,0.04,VWS V14.00,2013-03-08 03:39:00,
2013-03-07 19:40:00,39.2,28.8,29.74,South,180,0.0,0.0,66,0.00,,---,0.04,VWS V14.00,2013-03-08 03:40:00,
2013-03-07 19:41:00,39.2,28.8,29.74,South,180,0.0,0.0,66,0.00,,---,0.04,VWS V14.00,2013-03-08 03:41:00,
2013-03-07 19:42:00,39.2,29.2,29.74,South,180,0.0,0.0,67,0.00,,---,0.04,VWS V14.00,2013-03-08 03:42:00,
2013-03-07 19:43:00,40.3,28.3,29.76,South,180,0.0,0.0,62,0.00,,---,0.04,VWS V14.00,2013-03-08 03:43:00,
2013-03-07 19:44:00,39.2,28.8,29.74,South,180,0.0,0.0,66,0.00,,---,0.04,VWS V14.00,2013-03-08 03:44:00,
2013-03-07 19:45:00,39.2,28.8,29.74,South,180,0.0,0.0,66,0.00,,---,0.04,VWS V14.00,2013-03-08 03:45:00,
2013-03-07 19:46:00,39.2,28.8,29.74,South,180,0.0,0.0,66,0.00,,---,0.04,VWS V14.00,2013-03-08 03:46:00,
2013-03-07 19:47:00,39.2,28.8,29.74,South,180,0.0,0.0,66,0.00,,---,0.04,VWS V14.00,2013-03-08 03:47:00,
2013-03-07 19:48:00,40.3,28.3,29.76,South,180,0.0,0.0,62,0.00,,---,0.04,VWS V14.00,2013-03-08 03:48:00,
2013-03-07 19:49:00,39.0,29.0,29.74,South,180,0.0,0.0,67,0.00,,---,0.04,VWS V14.00,2013-03-08 03:49:00,
2013-03-07 19:50:00,39.0,29.0,29.74,South,180,0.0,0.0,67,0.00,,---,0.04,VWS V14.00,2013-03-08 03:50:00,
2013-03-07 19:51:00,38.8,29.2,29.74,South,180,0.0,0.0,68,0.00,,---,0.04,VWS V14.00,2013-03-08 03:51:00,
2013-03-07 19:52:00,38.8,29.2,29.74,South,180,0.0,0.0,68,0.00,,---,0.04,VWS V14.00,2013-03-08 03:52:00,
2013-03-07 19:53:00,40.3,28.3,29.74,South,180,0.0,0.0,62,0.00,,---,0.04,VWS V14.00,2013-03-08 03:53:00,
2013-03-07 19:54:00,38.8,29.2,29.74,South,180,0.0,0.0,68,0.00,,---,0.04,VWS V14.00,2013-03-08 03:54:00,
2013-03-07 19:55:00,38.7,29.0,29.74,South,180,0.0,0.0,68,0.00,,---,0.04,VWS V14.00,2013-03-08 03:55:00,
2013-03-07 19:56:00,38.7,29.0,29.74,South,180,0.0,0.0,68,0.00,,---,0.04,VWS V14.00,2013-03-08 03:56:00,
2013-03-07 19:57:00,38.7,29.0,29.74,South,180,0.0,0.0,68,0.00,,---,0.04,VWS V14.00,2013-03-08 03:57:00,
2013-03-07 19:58:00,40.3,28.7,29.74,South,180,0.0,0.0,63,0.00,,---,0.04,VWS V14.00,2013-03-08 03:58:00,
2013-03-07 19:59:00,38.5,28.9,29.74,South,180,0.0,0.0,68,0.00,,---,0.04,VWS V14.00,2013-03-08 03:59:00,
2013-03-07 20:00:00,38.5,28.9,29.74,South,180,0.0,0.0,68,0.00,,---,0.04,VWS V14.00,2013-03-08 04:00:00,
2013-03-07 20:01:00,38.5,28.9,29.74,South,180,0.0,0.0,68,0.00,,---,0.04,VWS V14.00,2013-03-08 04:01:00,
2013-03-07 20:02:00,38.5,29.2,29.74,South,180,0.0,0.0,69,0.00,,---,0.04,VWS V14.00,2013-03-08 04:02:00,
2013-03-07 20:03:00,40.1,28.9,29.74,South,180,0.0,0.0,64,0.00,,---,0.04,VWS V14.00,2013-03-08 04:03:00,
2013-03-07 20:04:00,38.3,28.7,29.74,South,180,0.0,0.0,68,0.00,,---,0.04,VWS V14.00,2013-03-08 04:04:00,
2013-03-07 20:05:00,38.3,28.7,29.74,South,180,0.0,0.0,68,0.00,,---,0.04,VWS V14.00,2013-03-08 04:05:00,
2013-03-07 20:06:00,38.3,28.7,29.74,South,180,0.0,0.0,68,0.00,,---,0.04,VWS V14.00,2013-03-08 04:06:00,
2013-03-07 20:07:00,38.3,29.0,29.74,South,180,0.0,0.0,69,0.00,,---,0.04,VWS V14.00,2013-03-08 04:07:00,
2013-03-07 20:08:00,39.9,28.8,29.74,South,180,0.0,0.0,64,0.00,,---,0.04,VWS V14.00,2013-03-08 04:08:00,
2013-03-07 20:09:00,38.3,29.0,29.71,South,180,0.0,0.0,69,0.00,,---,0.04,VWS V14.00,2013-03-08 04:09:00,
2013-03-07 20:10:00,38.3,29.0,29.71,South,180,0.0,0.0,69,0.00,,---,0.04,VWS V14.00,2013-03-08 04:10:00,
2013-03-07 20:11:00,38.3,29.0,29.71,South,180,0.0,0.0,69,0.00,,---,0.04,VWS V14.00,2013-03-08 04:11:00,
2013-03-07 20:12:00,38.3,29.4,29.71,South,180,0.0,0.0,70,0.00,,---,0.04,VWS V14.00,2013-03-08 04:12:00,
2013-03-07 20:13:00,39.7,28.6,29.74,South,180,0.0,0.0,64,0.00,,---,0.04,VWS V14.00,2013-03-08 04:13:00,
2013-03-07 20:14:00,38.3,29.4,29.71,South,180,0.0,0.0,70,0.00,,---,0.04,VWS V14.00,2013-03-08 04:14:00,
2013-03-07 20:15:00,38.3,29.4,29.71,South,180,0.0,0.0,70,0.00,,---,0.04,VWS V14.00,2013-03-08 04:15:00,
2013-03-07 20:16:00,38.3,29.0,29.71,South,180,0.0,0.0,69,0.00,,---,0.04,VWS V14.00,2013-03-08 04:16:00,
2013-03-07 20:17:00,38.3,29.4,29.71,South,180,0.0,0.0,70,0.00,,---,0.04,VWS V14.00,2013-03-08 04:17:00,
2013-03-07 20:18:00,39.7,29.0,29.74,South,180,0.0,0.0,65,0.00,,---,0.04,VWS V14.00,2013-03-08 04:18:00,
2013-03-07 20:19:00,38.1,29.2,29.71,South,180,0.0,0.0,70,0.00,,---,0.04,VWS V14.00,2013-03-08 04:19:00,
2013-03-07 20:20:00,38.1,29.2,29.71,South,180,0.0,0.0,70,0.00,,---,0.04,VWS V14.00,2013-03-08 04:20:00,
2013-03-07 20:21:00,38.1,29.2,29.71,South,180,0.0,0.0,70,0.00,,---,0.04,VWS V14.00,2013-03-08 04:21:00,
2013-03-07 20:22:00,38.1,29.2,29.71,South,180,0.0,0.0,70,0.00,,---,0.04,VWS V14.00,2013-03-08 04:22:00,
2013-03-07 20:23:00,39.4,29.0,29.74,South,180,0.0,0.0,66,0.00,,---,0.04,VWS V14.00,2013-03-08 04:23:00,
2013-03-07 20:24:00,38.1,29.2,29.74,South,180,0.0,0.0,70,0.00,,---,0.04,VWS V14.00,2013-03-08 04:24:00,
2013-03-07 20:25:00,38.1,29.6,29.74,South,180,0.0,0.0,71,0.00,,---,0.04,VWS V14.00,2013-03-08 04:25:00,
2013-03-07 20:26:00,38.1,29.6,29.74,South,180,0.0,0.0,71,0.00,,---,0.04,VWS V14.00,2013-03-08 04:26:00,
2013-03-07 20:27:00,37.9,29.4,29.74,South,180,0.0,0.0,71,0.00,,---,0.04,VWS V14.00,2013-03-08 04:27:00,
2013-03-07 20:28:00,37.9,29.4,29.74,South,180,0.0,0.0,71,0.00,,---,0.04,VWS V14.00,2013-03-08 04:28:00,
2013-03-07 20:29:00,39.4,29.0,29.74,South,180,0.0,0.0,66,0.00,,---,0.04,VWS V14.00,2013-03-08 04:29:00,
2013-03-07 20:30:00,38.1,29.6,29.74,South,180,0.0,0.0,71,0.00,,---,0.04,VWS V14.00,2013-03-08 04:30:00,
2013-03-07 20:31:00,38.1,29.6,29.74,South,180,0.0,0.0,71,0.00,,---,0.04,VWS V14.00,2013-03-08 04:31:00,
2013-03-07 20:32:00,38.1,29.6,29.74,South,180,0.0,0.0,71,0.00,,---,0.04,VWS V14.00,2013-03-08 04:32:00,
2013-03-07 20:33:00,37.9,29.4,29.74,South,180,0.0,0.0,71,0.00,,---,0.04,VWS V14.00,2013-03-08 04:33:00,
2013-03-07 20:34:00,39.2,28.8,29.74,South,180,0.0,0.0,66,0.00,,---,0.04,VWS V14.00,2013-03-08 04:34:00,
2013-03-07 20:35:00,37.9,29.4,29.74,South,180,0.0,0.0,71,0.00,,---,0.04,VWS V14.00,2013-03-08 04:35:00,
2013-03-07 20:36:00,37.9,29.4,29.74,South,180,0.0,0.0,71,0.00,,---,0.04,VWS V14.00,2013-03-08 04:36:00,
2013-03-07 20:37:00,37.9,29.4,29.74,South,180,0.0,0.0,71,0.00,,---,0.04,VWS V14.00,2013-03-08 04:37:00,
2013-03-07 20:38:00,37.9,29.4,29.74,South,180,0.0,0.0,71,0.00,,---,0.04,VWS V14.00,2013-03-08 04:38:00,
2013-03-07 20:39:00,39.2,29.2,29.74,South,180,0.0,0.0,67,0.00,,---,0.04,VWS V14.00,2013-03-08 04:39:00,
2013-03-07 20:40:00,37.9,29.7,29.74,South,180,0.0,0.0,72,0.00,,---,0.04,VWS V14.00,2013-03-08 04:40:00,
2013-03-07 20:41:00,37.9,29.7,29.74,South,180,0.0,0.0,72,0.00,,---,0.04,VWS V14.00,2013-03-08 04:41:00,
2013-03-07 20:42:00,37.9,29.7,29.74,South,180,0.0,0.0,72,0.00,,---,0.04,VWS V14.00,2013-03-08 04:42:00,
2013-03-07 20:43:00,37.9,29.7,29.74,South,180,0.0,0.0,72,0.00,,---,0.04,VWS V14.00,2013-03-08 04:43:00,
2013-03-07 20:44:00,37.9,29.4,29.74,South,180,0.0,0.0,71,0.00,,---,0.04,VWS V14.00,2013-03-08 04:44:00,
2013-03-07 20:45:00,39.2,28.8,29.74,South,180,0.0,0.0,66,0.00,,---,0.04,VWS V14.00,2013-03-08 04:45:00,
2013-03-07 20:46:00,37.9,29.4,29.74,South,180,0.0,0.0,71,0.00,,---,0.04,VWS V14.00,2013-03-08 04:46:00,
2013-03-07 20:47:00,37.9,29.4,29.74,South,180,0.0,0.0,71,0.00,,---,0.04,VWS V14.00,2013-03-08 04:47:00,
2013-03-07 20:48:00,37.9,29.4,29.74,South,180,0.0,0.0,71,0.00,,---,0.04,VWS V14.00,2013-03-08 04:48:00,
2013-03-07 20:49:00,37.8,29.6,29.74,South,180,0.0,0.0,72,0.00,,---,0.04,VWS V14.00,2013-03-08 04:49:00,
2013-03-07 20:50:00,38.8,29.2,29.74,South,180,0.0,0.0,68,0.00,,---,0.04,VWS V14.00,2013-03-08 04:50:00,
2013-03-07 20:51:00,37.8,29.6,29.74,South,180,0.0,0.0,72,0.00,,---,0.04,VWS V14.00,2013-03-08 04:51:00,
2013-03-07 20:52:00,37.8,29.6,29.74,South,180,0.0,0.0,72,0.00,,---,0.04,VWS V14.00,2013-03-08 04:52:00,
2013-03-07 20:53:00,37.6,29.4,29.74,South,180,0.0,0.0,72,0.00,,---,0.04,VWS V14.00,2013-03-08 04:53:00,
2013-03-07 20:54:00,37.6,29.4,29.74,South,180,0.0,0.0,72,0.00,,---,0.04,VWS V14.00,2013-03-08 04:54:00,
2013-03-07 20:55:00,38.7,29.0,29.74,South,180,0.0,0.0,68,0.00,,---,0.04,VWS V14.00,2013-03-08 04:55:00,
2013-03-07 20:56:00,37.6,29.4,29.74,South,180,0.0,0.0,72,0.00,,---,0.04,VWS V14.00,2013-03-08 04:56:00,
2013-03-07 20:57:00,37.6,29.4,29.74,South,180,0.0,0.0,72,0.00,,---,0.04,VWS V14.00,2013-03-08 04:57:00,
2013-03-07 20:58:00,37.4,29.2,29.74,South,180,0.0,0.0,72,0.00,,---,0.04,VWS V14.00,2013-03-08 04:58:00,
2013-03-07 20:59:00,37.4,29.2,29.74,South,180,0.0,0.0,72,0.00,,---,0.04,VWS V14.00,2013-03-08 04:59:00,
2013-03-07 21:00:00,38.3,28.7,29.74,South,180,0.0,0.0,68,0.00,,---,0.04,VWS V14.00,2013-03-08 05:00:00,
2013-03-07 21:01:00,38.3,28.7,29.74,South,180,0.0,0.0,68,0.00,,---,0.04,VWS V14.00,2013-03-08 05:01:00,
2013-03-07 21:02:00,38.3,28.7,29.74,South,180,0.0,0.0,68,0.00,,---,0.04,VWS V14.00,2013-03-08 05:02:00,
2013-03-07 21:03:00,37.0,29.2,29.74,South,180,0.0,0.0,73,0.00,,---,0.04,VWS V14.00,2013-03-08 05:03:00,
2013-03-07 21:04:00,37.0,29.2,29.74,South,180,0.0,0.0,73,0.00,,---,0.04,VWS V14.00,2013-03-08 05:04:00,
2013-03-07 21:05:00,36.9,29.4,29.74,South,180,0.0,0.0,74,0.00,,---,0.04,VWS V14.00,2013-03-08 05:05:00,
2013-03-07 21:06:00,36.9,29.4,29.74,South,180,0.0,0.0,74,0.00,,---,0.04,VWS V14.00,2013-03-08 05:06:00,
2013-03-07 21:07:00,38.3,29.0,29.71,South,180,0.0,0.0,69,0.00,,---,0.04,VWS V14.00,2013-03-08 05:07:00,
2013-03-07 21:08:00,36.9,29.4,29.74,South,180,0.0,0.0,74,0.00,,---,0.04,VWS V14.00,2013-03-08 05:08:00,
2013-03-07 21:09:00,36.9,29.4,29.74,South,180,0.0,0.0,74,0.00,,---,0.04,VWS V14.00,2013-03-08 05:09:00,
2013-03-07 21:10:00,36.9,29.4,29.74,South,180,0.0,0.0,74,0.00,,---,0.04,VWS V14.00,2013-03-08 05:10:00,
2013-03-07 21:11:00,36.7,29.2,29.74,South,180,0.0,0.0,74,0.00,,---,0.04,VWS V14.00,2013-03-08 05:11:00,
2013-03-07 21:12:00,38.3,29.0,29.71,South,180,0.0,0.0,69,0.00,,---,0.04,VWS V14.00,2013-03-08 05:12:00,
2013-03-07 21:13:00,36.7,29.2,29.74,South,180,0.0,0.0,74,0.00,,---,0.04,VWS V14.00,2013-03-08 05:13:00,
2013-03-07 21:14:00,36.7,29.2,29.74,South,180,0.0,0.0,74,0.00,,---,0.04,VWS V14.00,2013-03-08 05:14:00,
2013-03-07 21:15:00,36.7,29.2,29.74,South,180,0.0,0.0,74,0.00,,---,0.04,VWS V14.00,2013-03-08 05:15:00,
2013-03-07 21:16:00,36.7,29.2,29.74,South,180,0.0,0.0,74,0.00,,---,0.04,VWS V14.00,2013-03-08 05:16:00,
2013-03-07 21:17:00,38.1,29.2,29.71,South,180,0.0,0.0,70,0.00,,---,0.04,VWS V14.00,2013-03-08 05:17:00,
2013-03-07 21:18:00,36.5,29.0,29.74,South,180,0.0,0.0,74,0.00,,---,0.04,VWS V14.00,2013-03-08 05:18:00,
2013-03-07 21:19:00,36.5,29.3,29.74,South,180,0.0,0.0,75,0.00,,---,0.04,VWS V14.00,2013-03-08 05:19:00,
2013-03-07 21:20:00,36.5,29.3,29.74,South,180,0.0,0.0,75,0.00,,---,0.04,VWS V14.00,2013-03-08 05:20:00,
2013-03-07 21:21:00,36.5,29.3,29.74,South,180,0.0,0.0,75,0.00,,---,0.04,VWS V14.00,2013-03-08 05:21:00,
2013-03-07 21:22:00,38.1,29.6,29.74,South,180,0.0,0.0,71,0.00,,---,0.04,VWS V14.00,2013-03-08 05:22:00,
2013-03-07 21:23:00,36.5,29.3,29.74,South,180,0.0,0.0,75,0.00,,---,0.04,VWS V14.00,2013-03-08 05:23:00,
2013-03-07 21:24:00,36.5,29.3,29.74,South,180,0.0,0.0,75,0.00,,---,0.04,VWS V14.00,2013-03-08 05:24:00,
2013-03-07 21:25:00,36.3,29.2,29.74,South,180,0.0,0.0,75,0.00,,---,0.04,VWS V14.00,2013-03-08 05:25:00,
2013-03-07 21:26:00,36.3,29.2,29.74,South,180,0.0,0.0,75,0.00,,---,0.04,VWS V14.00,2013-03-08 05:26:00,
2013-03-07 21:27:00,38.1,29.6,29.74,South,180,0.0,0.0,71,0.00,,---,0.04,VWS V14.00,2013-03-08 05:27:00,
2013-03-07 21:28:00,36.3,29.2,29.74,South,180,0.0,0.0,75,0.00,,---,0.04,VWS V14.00,2013-03-08 05:28:00,
2013-03-07 21:29:00,36.3,29.2,29.74,South,180,0.0,0.0,75,0.00,,---,0.04,VWS V14.00,2013-03-08 05:29:00,
2013-03-07 21:30:00,36.3,29.2,29.74,South,180,0.0,0.0,75,0.00,,---,0.04,VWS V14.00,2013-03-08 05:30:00,
2013-03-07 21:31:00,36.3,29.2,29.74,South,180,0.0,0.0,75,0.00,,---,0.04,VWS V14.00,2013-03-08 05:31:00,
2013-03-07 21:32:00,37.9,29.4,29.74,South,180,0.0,0.0,71,0.00,,---,0.04,VWS V14.00,2013-03-08 05:32:00,
2013-03-07 21:33:00,36.3,29.2,29.74,South,180,0.0,0.0,75,0.00,,---,0.04,VWS V14.00,2013-03-08 05:33:00,
2013-03-07 21:34:00,36.3,29.2,29.74,South,180,0.0,0.0,75,0.00,,---,0.04,VWS V14.00,2013-03-08 05:34:00,
2013-03-07 21:35:00,36.3,29.5,29.74,South,180,0.0,0.0,76,0.00,,---,0.04,VWS V14.00,2013-03-08 05:35:00,
2013-03-07 21:36:00,36.3,29.5,29.74,South,180,0.0,0.0,76,0.00,,---,0.04,VWS V14.00,2013-03-08 05:36:00,
2013-03-07 21:37:00,37.9,29.7,29.74,South,180,0.0,0.0,72,0.00,,---,0.04,VWS V14.00,2013-03-08 05:37:00,
2013-03-07 21:38:00,36.3,29.5,29.74,South,180,0.0,0.0,76,0.00,,---,0.04,VWS V14.00,2013-03-08 05:38:00,
2013-03-07 21:39:00,36.3,29.5,29.74,South,180,2.2,2.5,76,0.00,,---,0.04,VWS V14.00,2013-03-08 05:39:00,
2013-03-07 21:40:00,36.3,29.5,29.74,South,180,1.1,2.2,76,0.00,,---,0.04,VWS V14.00,2013-03-08 05:40:00,
2013-03-07 21:41:00,36.3,29.5,29.74,South,180,0.0,1.1,76,0.00,,---,0.04,VWS V14.00,2013-03-08 05:41:00,
2013-03-07 21:42:00,36.3,29.5,29.74,South,180,2.0,2.0,76,0.00,,---,0.04,VWS V14.00,2013-03-08 05:42:00,
2013-03-07 21:43:00,37.9,29.4,29.74,South,180,0.0,0.0,71,0.00,,---,0.04,VWS V14.00,2013-03-08 05:43:00,
2013-03-07 21:44:00,36.3,29.2,29.74,South,180,1.1,2.0,75,0.00,,---,0.04,VWS V14.00,2013-03-08 05:44:00,
2013-03-07 21:45:00,36.5,30.0,29.74,SSW,202,2.5,3.6,77,0.00,,---,0.04,VWS V14.00,2013-03-08 05:45:00,
2013-03-07 21:46:00,36.7,30.5,29.74,SSW,202,1.3,2.5,78,0.00,,---,0.04,VWS V14.00,2013-03-08 05:46:00,
2013-03-07 21:47:00,36.7,30.2,29.74,South,180,2.0,2.0,77,0.00,,---,0.04,VWS V14.00,2013-03-08 05:47:00,
2013-03-07 21:48:00,37.8,29.6,29.74,South,180,0.0,0.0,72,0.00,,---,0.04,VWS V14.00,2013-03-08 05:48:00,
2013-03-07 21:49:00,36.9,30.3,29.74,SSE,158,2.2,2.7,77,0.00,,---,0.04,VWS V14.00,2013-03-08 05:49:00,
2013-03-07 21:50:00,36.9,31.0,29.74,SE,135,3.8,3.8,79,0.00,,---,0.04,VWS V14.00,2013-03-08 05:50:00,
2013-03-07 21:51:00,36.9,31.0,29.74,SE,135,0.0,3.8,79,0.00,,---,0.04,VWS V14.00,2013-03-08 05:51:00,
2013-03-07 21:52:00,36.9,31.0,29.74,SE,135,0.0,0.0,79,0.00,,---,0.04,VWS V14.00,2013-03-08 05:52:00,
2013-03-07 21:53:00,37.6,29.4,29.74,South,180,0.0,0.0,72,0.00,,---,0.04,VWS V14.00,2013-03-08 05:53:00,
2013-03-07 21:54:00,36.9,30.6,29.74,SE,135,1.3,1.3,78,0.00,,---,0.04,VWS V14.00,2013-03-08 05:54:00,
2013-03-07 21:55:00,36.9,30.6,29.74,SE,135,0.0,1.3,78,0.00,,---,0.04,VWS V14.00,2013-03-08 05:55:00,
2013-03-07 21:56:00,36.9,30.6,29.74,SE,135,0.9,0.9,78,0.00,,---,0.04,VWS V14.00,2013-03-08 05:56:00,
2013-03-07 21:57:00,36.9,30.6,29.74,ESE,112,1.1,1.1,78,0.00,,---,0.04,VWS V14.00,2013-03-08 05:57:00,
2013-03-07 21:58:00,37.0,29.2,29.74,South,180,0.0,0.0,73,0.00,,---,0.04,VWS V14.00,2013-03-08 05:58:00,
2013-03-07 21:59:00,36.7,30.5,29.74,ESE,112,1.1,2.5,78,0.00,,---,0.04,VWS V14.00,2013-03-08 05:59:00,
2013-03-07 22:00:00,36.7,30.5,29.74,ESE,112,1.3,1.3,78,0.00,,---,0.04,VWS V14.00,2013-03-08 06:00:00,
2013-03-07 22:01:00,36.7,30.5,29.74,ESE,112,0.0,1.6,78,0.00,,---,0.04,VWS V14.00,2013-03-08 06:01:00,
2013-03-07 22:02:00,36.7,30.5,29.74,ESE,112,0.0,0.0,78,0.00,,---,0.04,VWS V14.00,2013-03-08 06:02:00,
2013-03-07 22:03:00,36.9,29.4,29.74,South,180,0.0,0.0,74,0.00,,---,0.04,VWS V14.00,2013-03-08 06:03:00,
2013-03-07 22:04:00,36.5,30.3,29.74,ESE,112,0.0,0.0,78,0.00,,---,0.04,VWS V14.00,2013-03-08 06:04:00,
2013-03-07 22:05:00,36.5,30.3,29.74,ESE,112,0.0,0.0,78,0.00,,---,0.04,VWS V14.00,2013-03-08 06:05:00,
2013-03-07 22:06:00,36.3,30.1,29.74,ESE,112,0.0,0.0,78,0.00,,---,0.04,VWS V14.00,2013-03-08 06:06:00,
2013-03-07 22:07:00,36.3,30.1,29.74,ESE,112,0.0,0.0,78,0.00,,---,0.04,VWS V14.00,2013-03-08 06:07:00,
2013-03-07 22:08:00,36.7,29.2,29.74,South,180,0.0,0.0,74,0.00,,---,0.04,VWS V14.00,2013-03-08 06:08:00,
2013-03-07 22:09:00,36.3,30.1,29.74,ESE,112,0.0,0.0,78,0.00,,---,0.04,VWS V14.00,2013-03-08 06:09:00,
2013-03-07 22:10:00,36.3,30.1,29.74,ESE,112,0.0,0.0,78,0.00,,---,0.04,VWS V14.00,2013-03-08 06:10:00,
2013-03-07 22:11:00,36.3,30.1,29.74,ESE,112,0.0,0.0,78,0.00,,---,0.04,VWS V14.00,2013-03-08 06:11:00,
2013-03-07 22:12:00,36.1,30.0,29.74,ESE,112,0.0,0.0,78,0.00,,---,0.04,VWS V14.00,2013-03-08 06:12:00,
2013-03-07 22:13:00,36.0,29.8,29.74,ESE,112,0.0,0.0,78,0.00,,---,0.04,VWS V14.00,2013-03-08 06:13:00,
2013-03-07 22:14:00,36.5,29.0,29.74,South,180,0.0,0.0,74,0.00,,---,0.04,VWS V14.00,2013-03-08 06:14:00,
2013-03-07 22:15:00,36.0,29.8,29.74,ESE,112,0.0,0.0,78,0.00,,---,0.04,VWS V14.00,2013-03-08 06:15:00,
2013-03-07 22:16:00,36.0,29.8,29.74,ESE,112,0.0,0.0,78,0.00,,---,0.04,VWS V14.00,2013-03-08 06:16:00,
2013-03-07 22:17:00,35.8,29.6,29.74,ESE,112,0.0,0.0,78,0.00,,---,0.04,VWS V14.00,2013-03-08 06:17:00,
2013-03-07 22:18:00,35.8,29.6,29.74,ESE,112,0.0,0.0,78,0.00,,---,0.04,VWS V14.00,2013-03-08 06:18:00,
2013-03-07 22:19:00,36.5,29.3,29.74,South,180,0.0,0.0,75,0.00,,---,0.04,VWS V14.00,2013-03-08 06:19:00,
2013-03-07 22:20:00,35.8,29.6,29.74,ESE,112,0.0,0.0,78,0.00,,---,0.04,VWS V14.00,2013-03-08 06:20:00,
2013-03-07 22:21:00,35.8,29.6,29.74,ESE,112,0.0,0.0,78,0.00,,---,0.04,VWS V14.00,2013-03-08 06:21:00,
2013-03-07 22:22:00,35.8,29.6,29.74,ESE,112,0.0,0.0,78,0.00,,---,0.04,VWS V14.00,2013-03-08 06:22:00,
2013-03-07 22:23:00,35.6,29.4,29.71,ESE,112,0.0,0.0,78,0.00,,---,0.04,VWS V14.00,2013-03-08 06:23:00,
2013-03-07 22:24:00,36.3,29.2,29.74,South,180,0.0,0.0,75,0.00,,---,0.04,VWS V14.00,2013-03-08 06:24:00,
2013-03-07 22:25:00,35.6,29.7,29.71,ESE,112,0.0,0.0,79,0.00,,---,0.04,VWS V14.00,2013-03-08 06:25:00,
2013-03-07 22:26:00,35.6,29.4,29.71,ESE,112,0.0,0.0,78,0.00,,---,0.04,VWS V14.00,2013-03-08 06:26:00,
2013-03-07 22:27:00,35.6,29.4,29.71,ESE,112,0.0,0.0,78,0.00,,---,0.04,VWS V14.00,2013-03-08 06:27:00,
2013-03-07 22:28:00,35.6,29.4,29.71,ESE,112,0.0,0.0,78,0.00,,---,0.04,VWS V14.00,2013-03-08 06:28:00,
2013-03-07 22:29:00,36.3,29.2,29.74,South,180,0.0,0.0,75,0.00,,---,0.04,VWS V14.00,2013-03-08 06:29:00,
2013-03-07 22:30:00,35.4,29.6,29.71,ESE,112,0.0,0.0,79,0.00,,---,0.04,VWS V14.00,2013-03-08 06:30:00,
2013-03-07 22:31:00,35.4,29.6,29.71,ESE,112,0.0,0.0,79,0.00,,---,0.04,VWS V14.00,2013-03-08 06:31:00,
2013-03-07 22:32:00,35.4,29.6,29.71,ESE,112,0.0,0.0,79,0.00,,---,0.04,VWS V14.00,2013-03-08 06:32:00,
2013-03-07 22:33:00,35.2,29.4,29.71,ESE,112,0.0,0.0,79,0.00,,---,0.04,VWS V14.00,2013-03-08 06:33:00,
2013-03-07 22:34:00,36.3,29.5,29.74,South,180,0.0,0.0,76,0.00,,---,0.04,VWS V14.00,2013-03-08 06:34:00,
2013-03-07 22:35:00,35.1,28.9,29.71,ESE,112,0.0,0.0,78,0.00,,---,0.04,VWS V14.00,2013-03-08 06:35:00,
2013-03-07 22:36:00,35.1,29.2,29.71,ESE,112,0.0,0.0,79,0.00,,---,0.04,VWS V14.00,2013-03-08 06:36:00,
2013-03-07 22:37:00,35.2,29.4,29.71,ESE,112,0.0,0.0,79,0.00,,---,0.04,VWS V14.00,2013-03-08 06:37:00,
2013-03-07 22:38:00,35.2,29.4,29.71,ESE,112,0.0,0.0,79,0.00,,---,0.04,VWS V14.00,2013-03-08 06:38:00,
2013-03-07 22:39:00,36.3,29.5,29.74,South,180,2.0,2.0,76,0.00,,---,0.04,VWS V14.00,2013-03-08 06:39:00,
2013-03-07 22:40:00,35.2,29.4,29.71,ESE,112,0.0,0.0,79,0.00,,---,0.04,VWS V14.00,2013-03-08 06:40:00,
2013-03-07 22:41:00,35.2,29.4,29.71,ESE,112,0.0,0.0,79,0.00,,---,0.04,VWS V14.00,2013-03-08 06:41:00,
2013-03-07 22:42:00,35.2,29.4,29.71,ESE,112,0.0,0.0,79,0.00,,---,0.04,VWS V14.00,2013-03-08 06:42:00,
2013-03-07 22:43:00,35.2,29.4,29.71,ESE,112,0.0,0.0,79,0.00,,---,0.04,VWS V14.00,2013-03-08 06:43:00,
2013-03-07 22:44:00,36.7,30.2,29.74,South,180,2.0,2.0,77,0.00,,---,0.04,VWS V14.00,2013-03-08 06:44:00,
2013-03-07 22:45:00,35.2,29.4,29.71,ESE,112,0.0,0.0,79,0.00,,---,0.04,VWS V14.00,2013-03-08 06:45:00,
2013-03-07 22:46:00,35.2,29.4,29.71,ESE,112,0.0,0.0,79,0.00,,---,0.04,VWS V14.00,2013-03-08 06:46:00,
2013-03-07 22:47:00,35.2,29.4,29.71,ESE,112,0.0,0.0,79,0.00,,---,0.04,VWS V14.00,2013-03-08 06:47:00,
2013-03-07 22:48:00,35.2,29.4,29.71,ESE,112,1.3,1.3,79,0.00,,---,0.04,VWS V14.00,2013-03-08 06:48:00,
2013-03-07 22:49:00,36.9,31.0,29.74,SE,135,0.0,0.0,79,0.00,,---,0.04,VWS V14.00,2013-03-08 06:49:00,
2013-03-07 22:50:00,35.2,29.4,29.71,ESE,112,0.0,0.0,79,0.00,,---,0.04,VWS V14.00,2013-03-08 06:50:00,
2013-03-07 22:51:00,35.2,29.4,29.71,ESE,112,0.9,1.3,79,0.00,,---,0.04,VWS V14.00,2013-03-08 06:51:00,
2013-03-07 22:52:00,35.2,29.4,29.71,ESE,112,0.0,1.3,79,0.00,,---,0.04,VWS V14.00,2013-03-08 06:52:00,
2013-03-07 22:53:00,35.2,29.4,29.71,ESE,112,0.0,0.0,79,0.00,,---,0.04,VWS V14.00,2013-03-08 06:53:00,
2013-03-07 22:54:00,36.9,30.6,29.74,ESE,112,2.0,2.0,78,0.00,,---,0.04,VWS V14.00,2013-03-08 06:54:00,
2013-03-07 22:55:00,35.2,29.4,29.71,ESE,112,0.0,0.0,79,0.00,,---,0.04,VWS V14.00,2013-03-08 06:55:00,
2013-03-07 22:56:00,35.2,29.4,29.71,ESE,112,0.0,0.9,79,0.00,,---,0.04,VWS V14.00,2013-03-08 06:56:00,
2013-03-07 22:57:00,35.2,29.4,29.71,ESE,112,0.0,0.0,79,0.00,,---,0.04,VWS V14.00,2013-03-08 06:57:00,
2013-03-07 22:58:00,35.2,29.7,29.71,ESE,112,0.0,0.0,80,0.00,,---,0.04,VWS V14.00,2013-03-08 06:58:00,
2013-03-07 22:59:00,36.7,30.5,29.74,ESE,112,0.0,0.0,78,0.00,,---,0.04,VWS V14.00,2013-03-08 06:59:00,
2013-03-07 23:00:00,35.4,29.9,29.71,ESE,112,0.0,0.0,80,0.00,,---,0.00,VWS V14.00,2013-03-08 07:00:00,
2013-03-07 23:01:00,35.4,29.9,29.71,ESE,112,0.0,0.0,80,0.00,,---,0.00,VWS V14.00,2013-03-08 07:01:00,
2013-03-07 23:02:00,35.4,29.9,29.71,ESE,112,0.0,0.0,80,0.00,,---,0.00,VWS V14.00,2013-03-08 07:02:00,
2013-03-07 23:03:00,35.4,29.9,29.71,ESE,112,0.0,0.0,80,0.00,,---,0.00,VWS V14.00,2013-03-08 07:03:00,
2013-03-07 23:04:00,36.3,30.1,29.74,ESE,112,0.0,0.0,78,0.00,,---,0.04,VWS V14.00,2013-03-08 07:04:00,
2013-03-07 23:05:00,35.4,29.9,29.71,East,90,0.0,0.0,80,0.00,,---,0.00,VWS V14.00,2013-03-08 07:05:00,
2013-03-07 23:06:00,35.4,29.9,29.71,East,90,0.0,0.0,80,0.00,,---,0.00,VWS V14.00,2013-03-08 07:06:00,
2013-03-07 23:07:00,35.4,30.2,29.71,East,90,3.1,3.1,81,0.00,,---,0.00,VWS V14.00,2013-03-08 07:07:00,
2013-03-07 23:08:00,35.4,30.2,29.71,ENE,68,2.5,3.1,81,0.00,,---,0.00,VWS V14.00,2013-03-08 07:08:00,
2013-03-07 23:09:00,36.1,30.0,29.74,ESE,112,0.0,0.0,78,0.00,,---,0.04,VWS V14.00,2013-03-08 07:09:00,
2013-03-07 23:10:00,35.6,31.0,29.71,ENE,68,3.6,3.6,83,0.00,,---,0.00,VWS V14.00,2013-03-08 07:10:00,
2013-03-07 23:11:00,35.6,31.0,29.71,ENE,68,2.5,3.6,83,0.00,,---,0.00,VWS V14.00,2013-03-08 07:11:00,
2013-03-07 23:12:00,35.8,31.4,29.71,NE,45,2.5,2.5,84,0.00,,---,0.00,VWS V14.00,2013-03-08 07:12:00,
2013-03-07 23:13:00,35.8,31.1,29.71,NE,45,2.0,2.5,83,0.00,,---,0.00,VWS V14.00,2013-03-08 07:13:00,
2013-03-07 23:14:00,35.8,29.6,29.74,ESE,112,0.0,0.0,78,0.00,,---,0.04,VWS V14.00,2013-03-08 07:14:00,
2013-03-07 23:15:00,35.8,30.8,29.71,NE,45,2.0,2.2,82,0.00,,---,0.00,VWS V14.00,2013-03-08 07:15:00,
2013-03-07 23:16:00,35.8,30.8,29.71,NE,45,1.3,2.0,82,0.00,,---,0.00,VWS V14.00,2013-03-08 07:16:00,
2013-03-07 23:17:00,35.8,30.8,29.71,NE,45,2.0,2.0,82,0.00,,---,0.00,VWS V14.00,2013-03-08 07:17:00,
2013-03-07 23:18:00,35.8,30.5,29.71,NE,45,1.6,2.2,81,0.00,,---,0.00,VWS V14.00,2013-03-08 07:18:00,
2013-03-07 23:19:00,35.8,29.6,29.71,ESE,112,0.0,0.0,78,0.00,,---,0.04,VWS V14.00,2013-03-08 07:19:00,
2013-03-07 23:20:00,35.8,30.8,29.71,NE,45,2.0,2.9,82,0.00,,---,0.00,VWS V14.00,2013-03-08 07:20:00,
2013-03-07 23:21:00,35.8,30.8,29.71,NE,45,2.0,2.2,82,0.00,,---,0.00,VWS V14.00,2013-03-08 07:21:00,
2013-03-07 23:22:00,35.8,30.5,29.71,NE,45,2.5,2.7,81,0.00,,---,0.00,VWS V14.00,2013-03-08 07:22:00,
2013-03-07 23:23:00,35.8,30.5,29.71,NE,45,2.0,2.5,81,0.00,,---,0.00,VWS V14.00,2013-03-08 07:23:00,
2013-03-07 23:24:00,35.6,29.4,29.71,ESE,112,0.0,0.0,78,0.00,,---,0.04,VWS V14.00,2013-03-08 07:24:00,
2013-03-07 23:25:00,35.8,30.2,29.71,NE,45,2.5,2.7,80,0.00,,---,0.00,VWS V14.00,2013-03-08 07:25:00,
2013-03-07 23:26:00,35.8,30.2,29.71,NE,45,2.0,2.5,80,0.00,,---,0.00,VWS V14.00,2013-03-08 07:26:00,
2013-03-07 23:27:00,35.8,30.2,29.71,NE,45,1.3,2.5,80,0.00,,---,0.00,VWS V14.00,2013-03-08 07:27:00,
2013-03-07 23:28:00,35.8,30.2,29.71,NE,45,1.3,1.3,80,0.00,,---,0.00,VWS V14.00,2013-03-08 07:28:00,
2013-03-07 23:29:00,35.2,29.4,29.71,ESE,112,0.0,0.0,79,0.00,,---,0.04,VWS V14.00,2013-03-08 07:29:00,
2013-03-07 23:30:00,35.6,30.0,29.71,NE,45,0.0,0.0,80,0.00,,---,0.00,VWS V14.00,2013-03-08 07:30:00,
2013-03-07 23:31:00,35.6,29.7,29.71,NE,45,0.0,2.0,79,0.00,,---,0.00,VWS V14.00,2013-03-08 07:31:00,
2013-03-07 23:32:00,35.6,29.7,29.71,NE,45,0.0,0.0,79,0.00,,---,0.00,VWS V14.00,2013-03-08 07:32:00,
2013-03-07 23:33:00,35.6,29.7,29.71,NE,45,0.9,0.9,79,0.00,,---,0.00,VWS V14.00,2013-03-08 07:33:00,
2013-03-07 23:34:00,35.2,29.4,29.71,ESE,112,0.0,0.0,79,0.00,,---,0.04,VWS V14.00,2013-03-08 07:34:00,
2013-03-07 23:35:00,35.4,29.9,29.71,NE,45,2.0,2.7,80,0.00,,---,0.00,VWS V14.00,2013-03-08 07:35:00,
2013-03-07 23:36:00,35.4,29.9,29.71,NE,45,1.3,2.2,80,0.00,,---,0.00,VWS V14.00,2013-03-08 07:36:00,
2013-03-07 23:37:00,35.4,29.9,29.71,NE,45,1.6,2.2,80,0.00,,---,0.00,VWS V14.00,2013-03-08 07:37:00,
2013-03-07 23:38:00,35.4,29.9,29.71,NE,45,2.0,2.5,80,0.00,,---,0.00,VWS V14.00,2013-03-08 07:38:00,
2013-03-07 23:39:00,35.2,29.4,29.71,ESE,112,0.0,0.0,79,0.00,,---,0.04,VWS V14.00,2013-03-08 07:39:00,
2013-03-07 23:40:00,35.4,29.9,29.71,NE,45,1.3,2.2,80,0.00,,---,0.00,VWS V14.00,2013-03-08 07:40:00,
2013-03-07 23:41:00,35.4,29.9,29.71,NE,45,0.0,1.3,80,0.00,,---,0.00,VWS V14.00,2013-03-08 07:41:00,
2013-03-07 23:42:00,35.4,29.9,29.71,NE,45,0.0,0.0,80,0.00,,---,0.00,VWS V14.00,2013-03-08 07:42:00,
2013-03-07 23:43:00,35.4,29.9,29.71,NE,45,0.0,0.0,80,0.00,,---,0.00,VWS V14.00,2013-03-08 07:43:00,
2013-03-07 23:44:00,35.2,29.4,29.71,ESE,112,1.3,1.3,79,0.00,,---,0.04,VWS V14.00,2013-03-08 07:44:00,
2013-03-07 23:45:00,35.4,29.9,29.71,NE,45,0.0,1.3,80,0.00,,---,0.00,VWS V14.00,2013-03-08 07:45:00,
2013-03-07 23:46:00,35.4,29.9,29.71,NE,45,0.0,0.0,80,0.00,,---,0.00,VWS V14.00,2013-03-08 07:46:00,
2013-03-07 23:47:00,35.2,29.4,29.71,NE,45,1.1,1.1,79,0.00,,---,0.00,VWS V14.00,2013-03-08 07:47:00,
2013-03-07 23:48:00,35.2,29.4,29.71,NE,45,0.0,1.1,79,0.00,,---,0.00,VWS V14.00,2013-03-08 07:48:00,
2013-03-07 23:49:00,35.2,29.4,29.71,ESE,112,0.0,0.0,79,0.00,,---,0.04,VWS V14.00,2013-03-08 07:49:00,
2013-03-07 23:50:00,35.1,29.2,29.71,NE,45,0.0,0.0,79,0.00,,---,0.00,VWS V14.00,2013-03-08 07:50:00,
2013-03-07 23:51:00,35.1,29.2,29.71,NE,45,0.0,0.0,79,0.00,,---,0.00,VWS V14.00,2013-03-08 07:51:00,
2013-03-07 23:52:00,34.9,29.0,29.71,NE,45,0.0,0.0,79,0.00,,---,0.00,VWS V14.00,2013-03-08 07:52:00,
2013-03-07 23:53:00,34.9,29.0,29.71,NE,45,0.0,0.0,79,0.00,,---,0.00,VWS V14.00,2013-03-08 07:53:00,
2013-03-07 23:54:00,35.2,29.4,29.71,ESE,112,0.0,0.0,79,0.00,,---,0.04,VWS V14.00,2013-03-08 07:54:00,
2013-03-07 23:55:00,34.7,28.9,29.71,NE,45,0.0,0.0,79,0.00,,---,0.00,VWS V14.00,2013-03-08 07:55:00,
2013-03-07 23:56:00,34.7,28.9,29.71,NE,45,0.0,0.0,79,0.00,,---,0.00,VWS V14.00,2013-03-08 07:56:00,
2013-03-07 23:57:00,34.5,28.7,29.71,NE,45,0.0,0.0,79,0.00,,---,0.00,VWS V14.00,2013-03-08 07:57:00,
2013-03-07 23:58:00,34.5,28.7,29.71,NE,45,0.0,0.0,79,0.00,,---,0.00,VWS V14.00,2013-03-08 07:58:00,
2013-03-07 23:59:00,35.4,29.9,29.71,ESE,112,0.0,0.0,80,0.00,,---,0.00,VWS V14.00,2013-03-08 07:59:00,